<?xml version="1.0" encoding="UTF-8" standalone="no" ?>
<gpx xmlns="http://www.topografix.com/GPX/1/1" xmlns:xsi="http://www.w3.org/2001/XMLSchema-instance" xsi:schemaLocation="http://www.topografix.com/GPX/1/1 http://www.topografix.com/GPX/1/1/gpx.xsd" version="1.1" creator="VisuGPX - https://www.visugpx.com">
  <metadata>
    <name>Seconde sortie.</name>
    <desc><![CDATA[Seconde sortie du dimanche 5 Septembre.
Mal aux fesses après 15Km.
Changement d'itinéraire à 21Km, retour maison ras le bol.]]></desc>
  </metadata>
  <trk>
    <name><![CDATA[Parcours du 2021-09-05 08:10:49]]></name>
    <extensions>
      <line xmlns="http://www.topografix.com/GPX/gpx_style/0/2">
        <color>0000FF</color>
        <width>4</width>
      </line>
    </extensions>
    <trkseg>
      <trkpt lat="50.45024" lon="3.52605">
        <ele>28.1</ele>
        <time>2021-09-05T06:11:27.317Z</time>
      </trkpt>
      <trkpt lat="50.45034" lon="3.52598">
        <ele>27.9</ele>
        <time>2021-09-05T06:11:27.975Z</time>
      </trkpt>
      <trkpt lat="50.45051" lon="3.52586">
        <ele>27.2</ele>
        <time>2021-09-05T06:11:32.000Z</time>
      </trkpt>
      <trkpt lat="50.45065" lon="3.52571">
        <ele>26.8</ele>
        <time>2021-09-05T06:11:35.000Z</time>
      </trkpt>
      <trkpt lat="50.45077" lon="3.52553">
        <ele>26.1</ele>
        <time>2021-09-05T06:11:38.000Z</time>
      </trkpt>
      <trkpt lat="50.4509" lon="3.52522">
        <ele>24.8</ele>
        <time>2021-09-05T06:11:42.000Z</time>
      </trkpt>
      <trkpt lat="50.45102" lon="3.52498">
        <ele>24</ele>
        <time>2021-09-05T06:11:45.000Z</time>
      </trkpt>
      <trkpt lat="50.4512" lon="3.52467">
        <ele>22.5</ele>
        <time>2021-09-05T06:11:49.000Z</time>
      </trkpt>
      <trkpt lat="50.4514" lon="3.52433">
        <ele>21</ele>
        <time>2021-09-05T06:11:53.000Z</time>
      </trkpt>
      <trkpt lat="50.45155" lon="3.52411">
        <ele>20.3</ele>
        <time>2021-09-05T06:11:56.000Z</time>
      </trkpt>
      <trkpt lat="50.4517" lon="3.5239">
        <ele>19.9</ele>
        <time>2021-09-05T06:11:59.000Z</time>
      </trkpt>
      <trkpt lat="50.45191" lon="3.52365">
        <ele>19</ele>
        <time>2021-09-05T06:12:03.000Z</time>
      </trkpt>
      <trkpt lat="50.45211" lon="3.52338">
        <ele>19</ele>
        <time>2021-09-05T06:12:07.000Z</time>
      </trkpt>
      <trkpt lat="50.45225" lon="3.52319">
        <ele>19</ele>
        <time>2021-09-05T06:12:10.000Z</time>
      </trkpt>
      <trkpt lat="50.45243" lon="3.52295">
        <ele>19</ele>
        <time>2021-09-05T06:12:14.000Z</time>
      </trkpt>
      <trkpt lat="50.45259" lon="3.52273">
        <ele>19.1</ele>
        <time>2021-09-05T06:12:18.000Z</time>
      </trkpt>
      <trkpt lat="50.4527" lon="3.52259">
        <ele>19.5</ele>
        <time>2021-09-05T06:12:21.000Z</time>
      </trkpt>
      <trkpt lat="50.45284" lon="3.52235">
        <ele>20</ele>
        <time>2021-09-05T06:12:25.000Z</time>
      </trkpt>
      <trkpt lat="50.45296" lon="3.52212">
        <ele>20</ele>
        <time>2021-09-05T06:12:29.000Z</time>
      </trkpt>
      <trkpt lat="50.45309" lon="3.52187">
        <ele>20.1</ele>
        <time>2021-09-05T06:12:33.000Z</time>
      </trkpt>
      <trkpt lat="50.45321" lon="3.52171">
        <ele>20.6</ele>
        <time>2021-09-05T06:12:36.000Z</time>
      </trkpt>
      <trkpt lat="50.45329" lon="3.52159">
        <ele>20.8</ele>
        <time>2021-09-05T06:12:39.000Z</time>
      </trkpt>
      <trkpt lat="50.45338" lon="3.52141">
        <ele>21</ele>
        <time>2021-09-05T06:12:42.000Z</time>
      </trkpt>
      <trkpt lat="50.45348" lon="3.52128">
        <ele>21</ele>
        <time>2021-09-05T06:12:45.000Z</time>
      </trkpt>
      <trkpt lat="50.45357" lon="3.52116">
        <ele>21</ele>
        <time>2021-09-05T06:12:48.000Z</time>
      </trkpt>
      <trkpt lat="50.45366" lon="3.52101">
        <ele>21.5</ele>
        <time>2021-09-05T06:12:50.396Z</time>
      </trkpt>
      <trkpt lat="50.45377" lon="3.52087">
        <ele>21.9</ele>
        <time>2021-09-05T06:12:55.000Z</time>
      </trkpt>
      <trkpt lat="50.45387" lon="3.52076">
        <ele>22</ele>
        <time>2021-09-05T06:12:58.000Z</time>
      </trkpt>
      <trkpt lat="50.45396" lon="3.52064">
        <ele>22.3</ele>
        <time>2021-09-05T06:13:00.782Z</time>
      </trkpt>
      <trkpt lat="50.45406" lon="3.5205">
        <ele>22.6</ele>
        <time>2021-09-05T06:13:05.000Z</time>
      </trkpt>
      <trkpt lat="50.45414" lon="3.5204">
        <ele>22.9</ele>
        <time>2021-09-05T06:13:08.000Z</time>
      </trkpt>
      <trkpt lat="50.45425" lon="3.52026">
        <ele>23</ele>
        <time>2021-09-05T06:13:12.000Z</time>
      </trkpt>
      <trkpt lat="50.45433" lon="3.52014">
        <ele>23.3</ele>
        <time>2021-09-05T06:13:14.639Z</time>
      </trkpt>
      <trkpt lat="50.45443" lon="3.52007">
        <ele>23.7</ele>
        <time>2021-09-05T06:13:19.000Z</time>
      </trkpt>
      <trkpt lat="50.45453" lon="3.52009">
        <ele>24</ele>
        <time>2021-09-05T06:13:22.000Z</time>
      </trkpt>
      <trkpt lat="50.4546" lon="3.5202">
        <ele>23.8</ele>
        <time>2021-09-05T06:13:25.000Z</time>
      </trkpt>
      <trkpt lat="50.45466" lon="3.52034">
        <ele>23.8</ele>
        <time>2021-09-05T06:13:28.000Z</time>
      </trkpt>
      <trkpt lat="50.45472" lon="3.52056">
        <ele>24</ele>
        <time>2021-09-05T06:13:31.021Z</time>
      </trkpt>
      <trkpt lat="50.45478" lon="3.52073">
        <ele>24.3</ele>
        <time>2021-09-05T06:13:35.000Z</time>
      </trkpt>
      <trkpt lat="50.45483" lon="3.52095">
        <ele>24.4</ele>
        <time>2021-09-05T06:13:37.461Z</time>
      </trkpt>
      <trkpt lat="50.45489" lon="3.52112">
        <ele>24.6</ele>
        <time>2021-09-05T06:13:40.464Z</time>
      </trkpt>
      <trkpt lat="50.45496" lon="3.52133">
        <ele>24.9</ele>
        <time>2021-09-05T06:13:44.140Z</time>
      </trkpt>
      <trkpt lat="50.45502" lon="3.52155">
        <ele>25.1</ele>
        <time>2021-09-05T06:13:47.602Z</time>
      </trkpt>
      <trkpt lat="50.45508" lon="3.52174">
        <ele>25.3</ele>
        <time>2021-09-05T06:13:51.062Z</time>
      </trkpt>
      <trkpt lat="50.45513" lon="3.52189">
        <ele>25.5</ele>
        <time>2021-09-05T06:13:55.000Z</time>
      </trkpt>
      <trkpt lat="50.4552" lon="3.52208">
        <ele>25.2</ele>
        <time>2021-09-05T06:13:59.000Z</time>
      </trkpt>
      <trkpt lat="50.45527" lon="3.52226">
        <ele>25</ele>
        <time>2021-09-05T06:14:01.655Z</time>
      </trkpt>
      <trkpt lat="50.45533" lon="3.52243">
        <ele>25.2</ele>
        <time>2021-09-05T06:14:04.998Z</time>
      </trkpt>
      <trkpt lat="50.45541" lon="3.52259">
        <ele>25.3</ele>
        <time>2021-09-05T06:14:09.000Z</time>
      </trkpt>
      <trkpt lat="50.45549" lon="3.52272">
        <ele>25.2</ele>
        <time>2021-09-05T06:14:11.479Z</time>
      </trkpt>
      <trkpt lat="50.45559" lon="3.52285">
        <ele>25.1</ele>
        <time>2021-09-05T06:14:14.697Z</time>
      </trkpt>
      <trkpt lat="50.45571" lon="3.52298">
        <ele>25.2</ele>
        <time>2021-09-05T06:14:18.141Z</time>
      </trkpt>
      <trkpt lat="50.45584" lon="3.52311">
        <ele>25</ele>
        <time>2021-09-05T06:14:21.575Z</time>
      </trkpt>
      <trkpt lat="50.45595" lon="3.52324">
        <ele>25.1</ele>
        <time>2021-09-05T06:14:24.924Z</time>
      </trkpt>
      <trkpt lat="50.45605" lon="3.52332">
        <ele>25</ele>
        <time>2021-09-05T06:14:28.023Z</time>
      </trkpt>
      <trkpt lat="50.45615" lon="3.52345">
        <ele>25.1</ele>
        <time>2021-09-05T06:14:32.000Z</time>
      </trkpt>
      <trkpt lat="50.45627" lon="3.52369">
        <ele>25</ele>
        <time>2021-09-05T06:14:36.000Z</time>
      </trkpt>
      <trkpt lat="50.45635" lon="3.52385">
        <ele>25</ele>
        <time>2021-09-05T06:14:39.000Z</time>
      </trkpt>
      <trkpt lat="50.45644" lon="3.52403">
        <ele>24.7</ele>
        <time>2021-09-05T06:14:42.000Z</time>
      </trkpt>
      <trkpt lat="50.45651" lon="3.52427">
        <ele>24.3</ele>
        <time>2021-09-05T06:14:45.000Z</time>
      </trkpt>
      <trkpt lat="50.45668" lon="3.5245">
        <ele>24</ele>
        <time>2021-09-05T06:14:49.000Z</time>
      </trkpt>
      <trkpt lat="50.4568" lon="3.52464">
        <ele>24.1</ele>
        <time>2021-09-05T06:14:52.000Z</time>
      </trkpt>
      <trkpt lat="50.45693" lon="3.52486">
        <ele>24</ele>
        <time>2021-09-05T06:14:56.000Z</time>
      </trkpt>
      <trkpt lat="50.45707" lon="3.5251">
        <ele>23.6</ele>
        <time>2021-09-05T06:15:00.000Z</time>
      </trkpt>
      <trkpt lat="50.45717" lon="3.52528">
        <ele>23</ele>
        <time>2021-09-05T06:15:03.000Z</time>
      </trkpt>
      <trkpt lat="50.45733" lon="3.52548">
        <ele>23.1</ele>
        <time>2021-09-05T06:15:07.000Z</time>
      </trkpt>
      <trkpt lat="50.45745" lon="3.52561">
        <ele>23</ele>
        <time>2021-09-05T06:15:10.000Z</time>
      </trkpt>
      <trkpt lat="50.45762" lon="3.52577">
        <ele>23</ele>
        <time>2021-09-05T06:15:14.000Z</time>
      </trkpt>
      <trkpt lat="50.45776" lon="3.52588">
        <ele>23</ele>
        <time>2021-09-05T06:15:17.000Z</time>
      </trkpt>
      <trkpt lat="50.45788" lon="3.526">
        <ele>22.8</ele>
        <time>2021-09-05T06:15:20.000Z</time>
      </trkpt>
      <trkpt lat="50.45803" lon="3.52614">
        <ele>22.1</ele>
        <time>2021-09-05T06:15:24.000Z</time>
      </trkpt>
      <trkpt lat="50.45818" lon="3.52627">
        <ele>21.7</ele>
        <time>2021-09-05T06:15:28.000Z</time>
      </trkpt>
      <trkpt lat="50.45829" lon="3.52636">
        <ele>21.2</ele>
        <time>2021-09-05T06:15:31.000Z</time>
      </trkpt>
      <trkpt lat="50.45845" lon="3.5265">
        <ele>21</ele>
        <time>2021-09-05T06:15:35.000Z</time>
      </trkpt>
      <trkpt lat="50.45859" lon="3.52661">
        <ele>21</ele>
        <time>2021-09-05T06:15:38.000Z</time>
      </trkpt>
      <trkpt lat="50.45875" lon="3.52671">
        <ele>20.5</ele>
        <time>2021-09-05T06:15:41.000Z</time>
      </trkpt>
      <trkpt lat="50.45889" lon="3.52685">
        <ele>20</ele>
        <time>2021-09-05T06:15:44.000Z</time>
      </trkpt>
      <trkpt lat="50.45902" lon="3.52699">
        <ele>19.5</ele>
        <time>2021-09-05T06:15:47.000Z</time>
      </trkpt>
      <trkpt lat="50.45923" lon="3.52717">
        <ele>19</ele>
        <time>2021-09-05T06:15:51.000Z</time>
      </trkpt>
      <trkpt lat="50.45943" lon="3.52734">
        <ele>18.6</ele>
        <time>2021-09-05T06:15:55.000Z</time>
      </trkpt>
      <trkpt lat="50.45958" lon="3.52745">
        <ele>18.1</ele>
        <time>2021-09-05T06:15:58.000Z</time>
      </trkpt>
      <trkpt lat="50.45977" lon="3.52762">
        <ele>17.9</ele>
        <time>2021-09-05T06:16:02.000Z</time>
      </trkpt>
      <trkpt lat="50.45992" lon="3.52773">
        <ele>17.4</ele>
        <time>2021-09-05T06:16:05.000Z</time>
      </trkpt>
      <trkpt lat="50.4601" lon="3.52753">
        <ele>17.6</ele>
        <time>2021-09-05T06:16:09.000Z</time>
      </trkpt>
      <trkpt lat="50.4602" lon="3.52723">
        <ele>17.3</ele>
        <time>2021-09-05T06:16:13.000Z</time>
      </trkpt>
      <trkpt lat="50.46027" lon="3.52701">
        <ele>17.8</ele>
        <time>2021-09-05T06:16:16.000Z</time>
      </trkpt>
      <trkpt lat="50.46035" lon="3.52673">
        <ele>17.7</ele>
        <time>2021-09-05T06:16:20.000Z</time>
      </trkpt>
      <trkpt lat="50.46042" lon="3.52646">
        <ele>17.5</ele>
        <time>2021-09-05T06:16:24.000Z</time>
      </trkpt>
      <trkpt lat="50.46047" lon="3.52624">
        <ele>17.3</ele>
        <time>2021-09-05T06:16:27.000Z</time>
      </trkpt>
      <trkpt lat="50.46053" lon="3.52592">
        <ele>17.1</ele>
        <time>2021-09-05T06:16:31.000Z</time>
      </trkpt>
      <trkpt lat="50.46057" lon="3.52569">
        <ele>17</ele>
        <time>2021-09-05T06:16:34.000Z</time>
      </trkpt>
      <trkpt lat="50.46062" lon="3.52539">
        <ele>17.5</ele>
        <time>2021-09-05T06:16:38.000Z</time>
      </trkpt>
      <trkpt lat="50.46067" lon="3.5251">
        <ele>17.6</ele>
        <time>2021-09-05T06:16:42.000Z</time>
      </trkpt>
      <trkpt lat="50.46072" lon="3.52486">
        <ele>17.4</ele>
        <time>2021-09-05T06:16:45.000Z</time>
      </trkpt>
      <trkpt lat="50.46075" lon="3.52463">
        <ele>17.3</ele>
        <time>2021-09-05T06:16:48.000Z</time>
      </trkpt>
      <trkpt lat="50.46078" lon="3.5244">
        <ele>17.2</ele>
        <time>2021-09-05T06:16:51.000Z</time>
      </trkpt>
      <trkpt lat="50.46082" lon="3.5241">
        <ele>17</ele>
        <time>2021-09-05T06:16:55.000Z</time>
      </trkpt>
      <trkpt lat="50.46086" lon="3.52382">
        <ele>17.2</ele>
        <time>2021-09-05T06:16:59.000Z</time>
      </trkpt>
      <trkpt lat="50.4609" lon="3.52353">
        <ele>17.8</ele>
        <time>2021-09-05T06:17:03.000Z</time>
      </trkpt>
      <trkpt lat="50.46096" lon="3.52327">
        <ele>17.5</ele>
        <time>2021-09-05T06:17:07.000Z</time>
      </trkpt>
      <trkpt lat="50.461" lon="3.52307">
        <ele>17.4</ele>
        <time>2021-09-05T06:17:10.000Z</time>
      </trkpt>
      <trkpt lat="50.46105" lon="3.5229">
        <ele>17.7</ele>
        <time>2021-09-05T06:17:13.000Z</time>
      </trkpt>
      <trkpt lat="50.46112" lon="3.52262">
        <ele>18</ele>
        <time>2021-09-05T06:17:17.000Z</time>
      </trkpt>
      <trkpt lat="50.46118" lon="3.52247">
        <ele>18</ele>
        <time>2021-09-05T06:17:20.000Z</time>
      </trkpt>
      <trkpt lat="50.46124" lon="3.52228">
        <ele>18</ele>
        <time>2021-09-05T06:17:23.000Z</time>
      </trkpt>
      <trkpt lat="50.46131" lon="3.52207">
        <ele>18.2</ele>
        <time>2021-09-05T06:17:25.974Z</time>
      </trkpt>
      <trkpt lat="50.46144" lon="3.52187">
        <ele>18.2</ele>
        <time>2021-09-05T06:17:29.532Z</time>
      </trkpt>
      <trkpt lat="50.4615" lon="3.52175">
        <ele>18.4</ele>
        <time>2021-09-05T06:17:32.704Z</time>
      </trkpt>
      <trkpt lat="50.4616" lon="3.52151">
        <ele>18.2</ele>
        <time>2021-09-05T06:17:37.000Z</time>
      </trkpt>
      <trkpt lat="50.46169" lon="3.52131">
        <ele>18.3</ele>
        <time>2021-09-05T06:17:40.000Z</time>
      </trkpt>
      <trkpt lat="50.46178" lon="3.52114">
        <ele>18.5</ele>
        <time>2021-09-05T06:17:42.835Z</time>
      </trkpt>
      <trkpt lat="50.46188" lon="3.52096">
        <ele>18.2</ele>
        <time>2021-09-05T06:17:47.000Z</time>
      </trkpt>
      <trkpt lat="50.46196" lon="3.52082">
        <ele>18</ele>
        <time>2021-09-05T06:17:50.000Z</time>
      </trkpt>
      <trkpt lat="50.46208" lon="3.52059">
        <ele>17.6</ele>
        <time>2021-09-05T06:17:54.000Z</time>
      </trkpt>
      <trkpt lat="50.46216" lon="3.52041">
        <ele>17.6</ele>
        <time>2021-09-05T06:17:57.000Z</time>
      </trkpt>
      <trkpt lat="50.46226" lon="3.52015">
        <ele>17.9</ele>
        <time>2021-09-05T06:18:01.000Z</time>
      </trkpt>
      <trkpt lat="50.46233" lon="3.51996">
        <ele>17.6</ele>
        <time>2021-09-05T06:18:04.000Z</time>
      </trkpt>
      <trkpt lat="50.46242" lon="3.51968">
        <ele>17.4</ele>
        <time>2021-09-05T06:18:08.000Z</time>
      </trkpt>
      <trkpt lat="50.46249" lon="3.51949">
        <ele>17.8</ele>
        <time>2021-09-05T06:18:11.000Z</time>
      </trkpt>
      <trkpt lat="50.46255" lon="3.51922">
        <ele>17.8</ele>
        <time>2021-09-05T06:18:15.000Z</time>
      </trkpt>
      <trkpt lat="50.46261" lon="3.51902">
        <ele>17.8</ele>
        <time>2021-09-05T06:18:18.000Z</time>
      </trkpt>
      <trkpt lat="50.46267" lon="3.51882">
        <ele>18</ele>
        <time>2021-09-05T06:18:21.000Z</time>
      </trkpt>
      <trkpt lat="50.46274" lon="3.51859">
        <ele>18</ele>
        <time>2021-09-05T06:18:23.617Z</time>
      </trkpt>
      <trkpt lat="50.46281" lon="3.51836">
        <ele>17.9</ele>
        <time>2021-09-05T06:18:28.000Z</time>
      </trkpt>
      <trkpt lat="50.46288" lon="3.51822">
        <ele>17.6</ele>
        <time>2021-09-05T06:18:31.000Z</time>
      </trkpt>
      <trkpt lat="50.46293" lon="3.51802">
        <ele>17.6</ele>
        <time>2021-09-05T06:18:34.000Z</time>
      </trkpt>
      <trkpt lat="50.463" lon="3.51781">
        <ele>18.1</ele>
        <time>2021-09-05T06:18:37.000Z</time>
      </trkpt>
      <trkpt lat="50.4631" lon="3.51758">
        <ele>17.8</ele>
        <time>2021-09-05T06:18:41.000Z</time>
      </trkpt>
      <trkpt lat="50.46318" lon="3.51741">
        <ele>17.9</ele>
        <time>2021-09-05T06:18:44.000Z</time>
      </trkpt>
      <trkpt lat="50.46324" lon="3.51723">
        <ele>18.3</ele>
        <time>2021-09-05T06:18:46.776Z</time>
      </trkpt>
      <trkpt lat="50.46335" lon="3.51702">
        <ele>17.9</ele>
        <time>2021-09-05T06:18:49.807Z</time>
      </trkpt>
      <trkpt lat="50.46339" lon="3.51689">
        <ele>17.8</ele>
        <time>2021-09-05T06:18:52.815Z</time>
      </trkpt>
      <trkpt lat="50.46348" lon="3.51667">
        <ele>18</ele>
        <time>2021-09-05T06:18:55.948Z</time>
      </trkpt>
      <trkpt lat="50.46359" lon="3.5165">
        <ele>18</ele>
        <time>2021-09-05T06:19:00.000Z</time>
      </trkpt>
      <trkpt lat="50.46378" lon="3.51659">
        <ele>18</ele>
        <time>2021-09-05T06:19:04.000Z</time>
      </trkpt>
      <trkpt lat="50.46391" lon="3.51672">
        <ele>17.8</ele>
        <time>2021-09-05T06:19:07.000Z</time>
      </trkpt>
      <trkpt lat="50.46407" lon="3.51692">
        <ele>17.6</ele>
        <time>2021-09-05T06:19:11.000Z</time>
      </trkpt>
      <trkpt lat="50.46419" lon="3.51707">
        <ele>17.1</ele>
        <time>2021-09-05T06:19:14.000Z</time>
      </trkpt>
      <trkpt lat="50.46433" lon="3.51724">
        <ele>16.6</ele>
        <time>2021-09-05T06:19:18.000Z</time>
      </trkpt>
      <trkpt lat="50.46441" lon="3.51735">
        <ele>16.5</ele>
        <time>2021-09-05T06:19:21.000Z</time>
      </trkpt>
      <trkpt lat="50.46452" lon="3.51749">
        <ele>16.3</ele>
        <time>2021-09-05T06:19:24.000Z</time>
      </trkpt>
      <trkpt lat="50.46463" lon="3.51768">
        <ele>16.7</ele>
        <time>2021-09-05T06:19:28.000Z</time>
      </trkpt>
      <trkpt lat="50.46472" lon="3.51782">
        <ele>16.8</ele>
        <time>2021-09-05T06:19:31.000Z</time>
      </trkpt>
      <trkpt lat="50.4649" lon="3.51805">
        <ele>17.3</ele>
        <time>2021-09-05T06:19:35.000Z</time>
      </trkpt>
      <trkpt lat="50.46501" lon="3.51819">
        <ele>17</ele>
        <time>2021-09-05T06:19:38.000Z</time>
      </trkpt>
      <trkpt lat="50.46517" lon="3.51839">
        <ele>16.6</ele>
        <time>2021-09-05T06:19:42.000Z</time>
      </trkpt>
      <trkpt lat="50.46529" lon="3.51854">
        <ele>17</ele>
        <time>2021-09-05T06:19:45.000Z</time>
      </trkpt>
      <trkpt lat="50.46539" lon="3.51869">
        <ele>16.8</ele>
        <time>2021-09-05T06:19:48.000Z</time>
      </trkpt>
      <trkpt lat="50.46554" lon="3.5189">
        <ele>16.9</ele>
        <time>2021-09-05T06:19:52.000Z</time>
      </trkpt>
      <trkpt lat="50.46565" lon="3.51903">
        <ele>17</ele>
        <time>2021-09-05T06:19:55.000Z</time>
      </trkpt>
      <trkpt lat="50.46577" lon="3.51924">
        <ele>16.9</ele>
        <time>2021-09-05T06:19:59.000Z</time>
      </trkpt>
      <trkpt lat="50.46588" lon="3.51934">
        <ele>17</ele>
        <time>2021-09-05T06:20:02.000Z</time>
      </trkpt>
      <trkpt lat="50.466" lon="3.51943">
        <ele>17</ele>
        <time>2021-09-05T06:20:05.000Z</time>
      </trkpt>
      <trkpt lat="50.46617" lon="3.51956">
        <ele>16.7</ele>
        <time>2021-09-05T06:20:09.000Z</time>
      </trkpt>
      <trkpt lat="50.46633" lon="3.5197">
        <ele>16.8</ele>
        <time>2021-09-05T06:20:13.000Z</time>
      </trkpt>
      <trkpt lat="50.46645" lon="3.51981">
        <ele>17</ele>
        <time>2021-09-05T06:20:15.477Z</time>
      </trkpt>
      <trkpt lat="50.46662" lon="3.51991">
        <ele>17</ele>
        <time>2021-09-05T06:20:20.000Z</time>
      </trkpt>
      <trkpt lat="50.46678" lon="3.52">
        <ele>17</ele>
        <time>2021-09-05T06:20:23.000Z</time>
      </trkpt>
      <trkpt lat="50.46696" lon="3.52012">
        <ele>17</ele>
        <time>2021-09-05T06:20:27.000Z</time>
      </trkpt>
      <trkpt lat="50.46714" lon="3.52024">
        <ele>17</ele>
        <time>2021-09-05T06:20:31.000Z</time>
      </trkpt>
      <trkpt lat="50.46728" lon="3.52032">
        <ele>17</ele>
        <time>2021-09-05T06:20:34.000Z</time>
      </trkpt>
      <trkpt lat="50.46747" lon="3.52046">
        <ele>17</ele>
        <time>2021-09-05T06:20:38.000Z</time>
      </trkpt>
      <trkpt lat="50.4676" lon="3.52055">
        <ele>17</ele>
        <time>2021-09-05T06:20:41.000Z</time>
      </trkpt>
      <trkpt lat="50.46773" lon="3.52064">
        <ele>17.1</ele>
        <time>2021-09-05T06:20:44.000Z</time>
      </trkpt>
      <trkpt lat="50.46786" lon="3.52076">
        <ele>17</ele>
        <time>2021-09-05T06:20:47.000Z</time>
      </trkpt>
      <trkpt lat="50.46801" lon="3.52089">
        <ele>17.2</ele>
        <time>2021-09-05T06:20:51.000Z</time>
      </trkpt>
      <trkpt lat="50.46812" lon="3.52099">
        <ele>17.7</ele>
        <time>2021-09-05T06:20:54.000Z</time>
      </trkpt>
      <trkpt lat="50.46823" lon="3.5211">
        <ele>18.6</ele>
        <time>2021-09-05T06:20:58.000Z</time>
      </trkpt>
      <trkpt lat="50.46829" lon="3.52113">
        <ele>18.8</ele>
        <time>2021-09-05T06:21:01.000Z</time>
      </trkpt>
      <trkpt lat="50.46838" lon="3.5212">
        <ele>18.9</ele>
        <time>2021-09-05T06:21:04.000Z</time>
      </trkpt>
      <trkpt lat="50.46848" lon="3.52129">
        <ele>19.2</ele>
        <time>2021-09-05T06:21:07.144Z</time>
      </trkpt>
      <trkpt lat="50.46854" lon="3.52134">
        <ele>19.5</ele>
        <time>2021-09-05T06:21:11.000Z</time>
      </trkpt>
      <trkpt lat="50.46863" lon="3.52141">
        <ele>20</ele>
        <time>2021-09-05T06:21:15.000Z</time>
      </trkpt>
      <trkpt lat="50.46871" lon="3.52138">
        <ele>19.6</ele>
        <time>2021-09-05T06:21:17.783Z</time>
      </trkpt>
      <trkpt lat="50.46876" lon="3.52136">
        <ele>19.3</ele>
        <time>2021-09-05T06:21:20.946Z</time>
      </trkpt>
      <trkpt lat="50.46882" lon="3.52141">
        <ele>19.3</ele>
        <time>2021-09-05T06:21:34.781Z</time>
      </trkpt>
      <trkpt lat="50.46892" lon="3.52144">
        <ele>18.9</ele>
        <time>2021-09-05T06:21:38.047Z</time>
      </trkpt>
      <trkpt lat="50.46907" lon="3.52148">
        <ele>17.8</ele>
        <time>2021-09-05T06:21:42.000Z</time>
      </trkpt>
      <trkpt lat="50.46919" lon="3.52141">
        <ele>17</ele>
        <time>2021-09-05T06:21:45.000Z</time>
      </trkpt>
      <trkpt lat="50.46932" lon="3.5212">
        <ele>16.7</ele>
        <time>2021-09-05T06:21:48.142Z</time>
      </trkpt>
      <trkpt lat="50.46939" lon="3.52101">
        <ele>16.8</ele>
        <time>2021-09-05T06:21:51.675Z</time>
      </trkpt>
      <trkpt lat="50.46947" lon="3.52082">
        <ele>17</ele>
        <time>2021-09-05T06:21:54.908Z</time>
      </trkpt>
      <trkpt lat="50.46958" lon="3.52064">
        <ele>17</ele>
        <time>2021-09-05T06:21:59.000Z</time>
      </trkpt>
      <trkpt lat="50.46966" lon="3.52043">
        <ele>17</ele>
        <time>2021-09-05T06:22:01.616Z</time>
      </trkpt>
      <trkpt lat="50.46974" lon="3.52024">
        <ele>17</ele>
        <time>2021-09-05T06:22:04.883Z</time>
      </trkpt>
      <trkpt lat="50.4698" lon="3.52006">
        <ele>17</ele>
        <time>2021-09-05T06:22:09.000Z</time>
      </trkpt>
      <trkpt lat="50.46987" lon="3.51986">
        <ele>17</ele>
        <time>2021-09-05T06:22:11.575Z</time>
      </trkpt>
      <trkpt lat="50.46993" lon="3.51969">
        <ele>17</ele>
        <time>2021-09-05T06:22:14.736Z</time>
      </trkpt>
      <trkpt lat="50.47" lon="3.51954">
        <ele>17</ele>
        <time>2021-09-05T06:22:17.822Z</time>
      </trkpt>
      <trkpt lat="50.47006" lon="3.51942">
        <ele>17</ele>
        <time>2021-09-05T06:22:22.000Z</time>
      </trkpt>
      <trkpt lat="50.47009" lon="3.51933">
        <ele>17</ele>
        <time>2021-09-05T06:22:25.000Z</time>
      </trkpt>
      <trkpt lat="50.47014" lon="3.51925">
        <ele>17</ele>
        <time>2021-09-05T06:22:27.141Z</time>
      </trkpt>
      <trkpt lat="50.47021" lon="3.51914">
        <ele>17</ele>
        <time>2021-09-05T06:22:30.584Z</time>
      </trkpt>
      <trkpt lat="50.47027" lon="3.51905">
        <ele>17</ele>
        <time>2021-09-05T06:22:33.699Z</time>
      </trkpt>
      <trkpt lat="50.47034" lon="3.51894">
        <ele>17</ele>
        <time>2021-09-05T06:22:37.076Z</time>
      </trkpt>
      <trkpt lat="50.4704" lon="3.51883">
        <ele>17</ele>
        <time>2021-09-05T06:22:40.116Z</time>
      </trkpt>
      <trkpt lat="50.47046" lon="3.5187">
        <ele>17</ele>
        <time>2021-09-05T06:22:43.335Z</time>
      </trkpt>
      <trkpt lat="50.47053" lon="3.51853">
        <ele>17</ele>
        <time>2021-09-05T06:22:48.000Z</time>
      </trkpt>
      <trkpt lat="50.4706" lon="3.51839">
        <ele>17</ele>
        <time>2021-09-05T06:22:51.000Z</time>
      </trkpt>
      <trkpt lat="50.47067" lon="3.51824">
        <ele>17</ele>
        <time>2021-09-05T06:22:53.861Z</time>
      </trkpt>
      <trkpt lat="50.47074" lon="3.51809">
        <ele>17</ele>
        <time>2021-09-05T06:22:57.061Z</time>
      </trkpt>
      <trkpt lat="50.4708" lon="3.51794">
        <ele>17</ele>
        <time>2021-09-05T06:23:01.000Z</time>
      </trkpt>
      <trkpt lat="50.47086" lon="3.5178">
        <ele>17</ele>
        <time>2021-09-05T06:23:03.440Z</time>
      </trkpt>
      <trkpt lat="50.47094" lon="3.51765">
        <ele>17</ele>
        <time>2021-09-05T06:23:07.016Z</time>
      </trkpt>
      <trkpt lat="50.47101" lon="3.51752">
        <ele>17</ele>
        <time>2021-09-05T06:23:11.000Z</time>
      </trkpt>
      <trkpt lat="50.47109" lon="3.51739">
        <ele>17</ele>
        <time>2021-09-05T06:23:13.855Z</time>
      </trkpt>
      <trkpt lat="50.47115" lon="3.51727">
        <ele>17</ele>
        <time>2021-09-05T06:23:18.000Z</time>
      </trkpt>
      <trkpt lat="50.47121" lon="3.51717">
        <ele>17</ele>
        <time>2021-09-05T06:23:20.230Z</time>
      </trkpt>
      <trkpt lat="50.47128" lon="3.51705">
        <ele>17</ele>
        <time>2021-09-05T06:23:23.660Z</time>
      </trkpt>
      <trkpt lat="50.47136" lon="3.51691">
        <ele>17</ele>
        <time>2021-09-05T06:23:28.000Z</time>
      </trkpt>
      <trkpt lat="50.47141" lon="3.5168">
        <ele>17</ele>
        <time>2021-09-05T06:23:31.000Z</time>
      </trkpt>
      <trkpt lat="50.47147" lon="3.51665">
        <ele>17</ele>
        <time>2021-09-05T06:23:33.960Z</time>
      </trkpt>
      <trkpt lat="50.47151" lon="3.51654">
        <ele>17</ele>
        <time>2021-09-05T06:23:37.003Z</time>
      </trkpt>
      <trkpt lat="50.47157" lon="3.51642">
        <ele>17</ele>
        <time>2021-09-05T06:23:41.000Z</time>
      </trkpt>
      <trkpt lat="50.47163" lon="3.51628">
        <ele>17</ele>
        <time>2021-09-05T06:23:44.000Z</time>
      </trkpt>
      <trkpt lat="50.4717" lon="3.51614">
        <ele>17</ele>
        <time>2021-09-05T06:23:47.000Z</time>
      </trkpt>
      <trkpt lat="50.47179" lon="3.51594">
        <ele>17</ele>
        <time>2021-09-05T06:23:50.034Z</time>
      </trkpt>
      <trkpt lat="50.47185" lon="3.51582">
        <ele>17</ele>
        <time>2021-09-05T06:23:53.055Z</time>
      </trkpt>
      <trkpt lat="50.47191" lon="3.51569">
        <ele>17</ele>
        <time>2021-09-05T06:23:57.000Z</time>
      </trkpt>
      <trkpt lat="50.47197" lon="3.51557">
        <ele>17</ele>
        <time>2021-09-05T06:23:59.756Z</time>
      </trkpt>
      <trkpt lat="50.47202" lon="3.51548">
        <ele>17</ele>
        <time>2021-09-05T06:24:02.797Z</time>
      </trkpt>
      <trkpt lat="50.47207" lon="3.51538">
        <ele>17</ele>
        <time>2021-09-05T06:24:05.836Z</time>
      </trkpt>
      <trkpt lat="50.47213" lon="3.51528">
        <ele>17</ele>
        <time>2021-09-05T06:24:09.101Z</time>
      </trkpt>
      <trkpt lat="50.47218" lon="3.51521">
        <ele>17</ele>
        <time>2021-09-05T06:24:12.117Z</time>
      </trkpt>
      <trkpt lat="50.47223" lon="3.51512">
        <ele>17</ele>
        <time>2021-09-05T06:24:15.167Z</time>
      </trkpt>
      <trkpt lat="50.47228" lon="3.515">
        <ele>17</ele>
        <time>2021-09-05T06:24:18.813Z</time>
      </trkpt>
      <trkpt lat="50.47234" lon="3.51489">
        <ele>17</ele>
        <time>2021-09-05T06:24:23.000Z</time>
      </trkpt>
      <trkpt lat="50.4724" lon="3.51477">
        <ele>17</ele>
        <time>2021-09-05T06:24:25.700Z</time>
      </trkpt>
      <trkpt lat="50.47247" lon="3.51463">
        <ele>17</ele>
        <time>2021-09-05T06:24:32.095Z</time>
      </trkpt>
      <trkpt lat="50.47251" lon="3.51453">
        <ele>17</ele>
        <time>2021-09-05T06:24:36.000Z</time>
      </trkpt>
      <trkpt lat="50.47257" lon="3.51441">
        <ele>17</ele>
        <time>2021-09-05T06:24:38.835Z</time>
      </trkpt>
      <trkpt lat="50.47262" lon="3.51429">
        <ele>17</ele>
        <time>2021-09-05T06:24:42.138Z</time>
      </trkpt>
      <trkpt lat="50.47267" lon="3.51417">
        <ele>17</ele>
        <time>2021-09-05T06:24:45.777Z</time>
      </trkpt>
      <trkpt lat="50.47271" lon="3.51406">
        <ele>17</ele>
        <time>2021-09-05T06:24:49.100Z</time>
      </trkpt>
      <trkpt lat="50.47276" lon="3.51396">
        <ele>17</ele>
        <time>2021-09-05T06:24:52.138Z</time>
      </trkpt>
      <trkpt lat="50.47283" lon="3.51383">
        <ele>16.8</ele>
        <time>2021-09-05T06:24:55.657Z</time>
      </trkpt>
      <trkpt lat="50.47289" lon="3.5137">
        <ele>16.6</ele>
        <time>2021-09-05T06:25:00.000Z</time>
      </trkpt>
      <trkpt lat="50.47295" lon="3.51358">
        <ele>16.4</ele>
        <time>2021-09-05T06:25:03.000Z</time>
      </trkpt>
      <trkpt lat="50.47302" lon="3.51346">
        <ele>16.1</ele>
        <time>2021-09-05T06:25:05.640Z</time>
      </trkpt>
      <trkpt lat="50.47309" lon="3.51335">
        <ele>16</ele>
        <time>2021-09-05T06:25:08.742Z</time>
      </trkpt>
      <trkpt lat="50.47316" lon="3.51322">
        <ele>16</ele>
        <time>2021-09-05T06:25:13.000Z</time>
      </trkpt>
      <trkpt lat="50.47322" lon="3.51307">
        <ele>16</ele>
        <time>2021-09-05T06:25:15.882Z</time>
      </trkpt>
      <trkpt lat="50.47329" lon="3.51293">
        <ele>16</ele>
        <time>2021-09-05T06:25:19.216Z</time>
      </trkpt>
      <trkpt lat="50.47336" lon="3.51278">
        <ele>16</ele>
        <time>2021-09-05T06:25:22.977Z</time>
      </trkpt>
      <trkpt lat="50.47342" lon="3.51266">
        <ele>16</ele>
        <time>2021-09-05T06:25:27.000Z</time>
      </trkpt>
      <trkpt lat="50.47347" lon="3.51254">
        <ele>16</ele>
        <time>2021-09-05T06:25:29.280Z</time>
      </trkpt>
      <trkpt lat="50.47353" lon="3.51242">
        <ele>16</ele>
        <time>2021-09-05T06:25:32.997Z</time>
      </trkpt>
      <trkpt lat="50.47358" lon="3.51232">
        <ele>16</ele>
        <time>2021-09-05T06:25:37.000Z</time>
      </trkpt>
      <trkpt lat="50.47364" lon="3.51222">
        <ele>16</ele>
        <time>2021-09-05T06:25:40.000Z</time>
      </trkpt>
      <trkpt lat="50.4737" lon="3.5121">
        <ele>16</ele>
        <time>2021-09-05T06:25:42.362Z</time>
      </trkpt>
      <trkpt lat="50.47377" lon="3.51197">
        <ele>16</ele>
        <time>2021-09-05T06:25:47.000Z</time>
      </trkpt>
      <trkpt lat="50.47381" lon="3.51186">
        <ele>16</ele>
        <time>2021-09-05T06:25:50.000Z</time>
      </trkpt>
      <trkpt lat="50.47388" lon="3.51178">
        <ele>16</ele>
        <time>2021-09-05T06:25:53.000Z</time>
      </trkpt>
      <trkpt lat="50.47394" lon="3.5117">
        <ele>16</ele>
        <time>2021-09-05T06:25:55.374Z</time>
      </trkpt>
      <trkpt lat="50.47399" lon="3.51158">
        <ele>16</ele>
        <time>2021-09-05T06:25:58.953Z</time>
      </trkpt>
      <trkpt lat="50.47402" lon="3.51151">
        <ele>16</ele>
        <time>2021-09-05T06:26:03.000Z</time>
      </trkpt>
      <trkpt lat="50.47407" lon="3.51142">
        <ele>16</ele>
        <time>2021-09-05T06:26:06.000Z</time>
      </trkpt>
      <trkpt lat="50.47412" lon="3.51131">
        <ele>16</ele>
        <time>2021-09-05T06:26:09.000Z</time>
      </trkpt>
      <trkpt lat="50.47417" lon="3.5112">
        <ele>16</ele>
        <time>2021-09-05T06:26:12.000Z</time>
      </trkpt>
      <trkpt lat="50.47423" lon="3.51108">
        <ele>16</ele>
        <time>2021-09-05T06:26:15.000Z</time>
      </trkpt>
      <trkpt lat="50.47431" lon="3.51092">
        <ele>16</ele>
        <time>2021-09-05T06:26:17.698Z</time>
      </trkpt>
      <trkpt lat="50.47437" lon="3.5108">
        <ele>16</ele>
        <time>2021-09-05T06:26:21.075Z</time>
      </trkpt>
      <trkpt lat="50.47443" lon="3.51067">
        <ele>16</ele>
        <time>2021-09-05T06:26:24.256Z</time>
      </trkpt>
      <trkpt lat="50.47449" lon="3.51055">
        <ele>16</ele>
        <time>2021-09-05T06:26:27.521Z</time>
      </trkpt>
      <trkpt lat="50.47456" lon="3.51044">
        <ele>16</ele>
        <time>2021-09-05T06:26:30.666Z</time>
      </trkpt>
      <trkpt lat="50.47463" lon="3.51031">
        <ele>16</ele>
        <time>2021-09-05T06:26:33.761Z</time>
      </trkpt>
      <trkpt lat="50.4747" lon="3.51017">
        <ele>16</ele>
        <time>2021-09-05T06:26:37.017Z</time>
      </trkpt>
      <trkpt lat="50.47476" lon="3.51006">
        <ele>16</ele>
        <time>2021-09-05T06:26:40.097Z</time>
      </trkpt>
      <trkpt lat="50.47482" lon="3.50993">
        <ele>16.1</ele>
        <time>2021-09-05T06:26:44.000Z</time>
      </trkpt>
      <trkpt lat="50.47486" lon="3.50982">
        <ele>16.3</ele>
        <time>2021-09-05T06:26:47.000Z</time>
      </trkpt>
      <trkpt lat="50.47492" lon="3.50968">
        <ele>16.8</ele>
        <time>2021-09-05T06:26:49.395Z</time>
      </trkpt>
      <trkpt lat="50.47498" lon="3.50954">
        <ele>17</ele>
        <time>2021-09-05T06:26:52.736Z</time>
      </trkpt>
      <trkpt lat="50.47505" lon="3.50941">
        <ele>17</ele>
        <time>2021-09-05T06:26:56.114Z</time>
      </trkpt>
      <trkpt lat="50.47512" lon="3.50928">
        <ele>17</ele>
        <time>2021-09-05T06:26:59.582Z</time>
      </trkpt>
      <trkpt lat="50.47519" lon="3.50916">
        <ele>17</ele>
        <time>2021-09-05T06:27:02.982Z</time>
      </trkpt>
      <trkpt lat="50.47524" lon="3.50907">
        <ele>17</ele>
        <time>2021-09-05T06:27:07.000Z</time>
      </trkpt>
      <trkpt lat="50.47529" lon="3.50899">
        <ele>17</ele>
        <time>2021-09-05T06:27:09.355Z</time>
      </trkpt>
      <trkpt lat="50.47532" lon="3.50888">
        <ele>17</ele>
        <time>2021-09-05T06:27:51.677Z</time>
      </trkpt>
      <trkpt lat="50.47538" lon="3.50879">
        <ele>17</ele>
        <time>2021-09-05T06:27:54.781Z</time>
      </trkpt>
      <trkpt lat="50.47541" lon="3.5087">
        <ele>17</ele>
        <time>2021-09-05T06:27:59.000Z</time>
      </trkpt>
      <trkpt lat="50.47549" lon="3.50856">
        <ele>17</ele>
        <time>2021-09-05T06:28:01.498Z</time>
      </trkpt>
      <trkpt lat="50.47558" lon="3.50839">
        <ele>17</ele>
        <time>2021-09-05T06:28:06.000Z</time>
      </trkpt>
      <trkpt lat="50.47567" lon="3.50823">
        <ele>17</ele>
        <time>2021-09-05T06:28:08.796Z</time>
      </trkpt>
      <trkpt lat="50.47574" lon="3.50807">
        <ele>17</ele>
        <time>2021-09-05T06:28:13.000Z</time>
      </trkpt>
      <trkpt lat="50.47582" lon="3.5079">
        <ele>17</ele>
        <time>2021-09-05T06:28:15.457Z</time>
      </trkpt>
      <trkpt lat="50.47591" lon="3.50773">
        <ele>17</ele>
        <time>2021-09-05T06:28:18.996Z</time>
      </trkpt>
      <trkpt lat="50.47596" lon="3.50758">
        <ele>17</ele>
        <time>2021-09-05T06:28:23.000Z</time>
      </trkpt>
      <trkpt lat="50.47604" lon="3.50742">
        <ele>17</ele>
        <time>2021-09-05T06:28:25.375Z</time>
      </trkpt>
      <trkpt lat="50.47611" lon="3.50728">
        <ele>17</ele>
        <time>2021-09-05T06:28:28.519Z</time>
      </trkpt>
      <trkpt lat="50.4762" lon="3.50713">
        <ele>17</ele>
        <time>2021-09-05T06:28:31.895Z</time>
      </trkpt>
      <trkpt lat="50.47628" lon="3.50696">
        <ele>17</ele>
        <time>2021-09-05T06:28:36.000Z</time>
      </trkpt>
      <trkpt lat="50.47637" lon="3.5068">
        <ele>16.5</ele>
        <time>2021-09-05T06:28:38.979Z</time>
      </trkpt>
      <trkpt lat="50.47644" lon="3.50665">
        <ele>16</ele>
        <time>2021-09-05T06:28:42.461Z</time>
      </trkpt>
      <trkpt lat="50.47652" lon="3.50648">
        <ele>16</ele>
        <time>2021-09-05T06:28:46.043Z</time>
      </trkpt>
      <trkpt lat="50.47658" lon="3.50636">
        <ele>16</ele>
        <time>2021-09-05T06:28:50.000Z</time>
      </trkpt>
      <trkpt lat="50.47664" lon="3.50623">
        <ele>16</ele>
        <time>2021-09-05T06:28:52.396Z</time>
      </trkpt>
      <trkpt lat="50.47671" lon="3.50608">
        <ele>16</ele>
        <time>2021-09-05T06:28:55.642Z</time>
      </trkpt>
      <trkpt lat="50.47678" lon="3.50592">
        <ele>16</ele>
        <time>2021-09-05T06:28:59.130Z</time>
      </trkpt>
      <trkpt lat="50.47685" lon="3.50578">
        <ele>16</ele>
        <time>2021-09-05T06:29:03.000Z</time>
      </trkpt>
      <trkpt lat="50.47692" lon="3.50565">
        <ele>16</ele>
        <time>2021-09-05T06:29:05.140Z</time>
      </trkpt>
      <trkpt lat="50.47699" lon="3.50549">
        <ele>16</ele>
        <time>2021-09-05T06:29:08.282Z</time>
      </trkpt>
      <trkpt lat="50.47707" lon="3.50532">
        <ele>16</ele>
        <time>2021-09-05T06:29:11.500Z</time>
      </trkpt>
      <trkpt lat="50.47716" lon="3.50517">
        <ele>16</ele>
        <time>2021-09-05T06:29:16.000Z</time>
      </trkpt>
      <trkpt lat="50.47723" lon="3.50505">
        <ele>16</ele>
        <time>2021-09-05T06:29:19.000Z</time>
      </trkpt>
      <trkpt lat="50.47731" lon="3.5049">
        <ele>16</ele>
        <time>2021-09-05T06:29:21.678Z</time>
      </trkpt>
      <trkpt lat="50.47739" lon="3.50476">
        <ele>16</ele>
        <time>2021-09-05T06:29:24.917Z</time>
      </trkpt>
      <trkpt lat="50.47747" lon="3.50464">
        <ele>16</ele>
        <time>2021-09-05T06:29:27.938Z</time>
      </trkpt>
      <trkpt lat="50.47753" lon="3.50452">
        <ele>16</ele>
        <time>2021-09-05T06:29:32.000Z</time>
      </trkpt>
      <trkpt lat="50.47761" lon="3.50439">
        <ele>16.6</ele>
        <time>2021-09-05T06:29:34.635Z</time>
      </trkpt>
      <trkpt lat="50.47768" lon="3.50427">
        <ele>17.5</ele>
        <time>2021-09-05T06:29:37.940Z</time>
      </trkpt>
      <trkpt lat="50.47775" lon="3.50415">
        <ele>18.8</ele>
        <time>2021-09-05T06:29:41.144Z</time>
      </trkpt>
      <trkpt lat="50.47783" lon="3.50402">
        <ele>19</ele>
        <time>2021-09-05T06:29:44.778Z</time>
      </trkpt>
      <trkpt lat="50.47791" lon="3.5039">
        <ele>19</ele>
        <time>2021-09-05T06:29:49.000Z</time>
      </trkpt>
      <trkpt lat="50.478" lon="3.50377">
        <ele>19.1</ele>
        <time>2021-09-05T06:29:51.636Z</time>
      </trkpt>
      <trkpt lat="50.47809" lon="3.50364">
        <ele>19.3</ele>
        <time>2021-09-05T06:29:54.995Z</time>
      </trkpt>
      <trkpt lat="50.47815" lon="3.50351">
        <ele>19</ele>
        <time>2021-09-05T06:29:59.000Z</time>
      </trkpt>
      <trkpt lat="50.47824" lon="3.50338">
        <ele>19</ele>
        <time>2021-09-05T06:30:01.693Z</time>
      </trkpt>
      <trkpt lat="50.4783" lon="3.50328">
        <ele>19.3</ele>
        <time>2021-09-05T06:30:04.696Z</time>
      </trkpt>
      <trkpt lat="50.47837" lon="3.50316">
        <ele>19.2</ele>
        <time>2021-09-05T06:30:07.755Z</time>
      </trkpt>
      <trkpt lat="50.47846" lon="3.50304">
        <ele>18.7</ele>
        <time>2021-09-05T06:30:12.000Z</time>
      </trkpt>
      <trkpt lat="50.47852" lon="3.50295">
        <ele>18.8</ele>
        <time>2021-09-05T06:30:15.000Z</time>
      </trkpt>
      <trkpt lat="50.47859" lon="3.50285">
        <ele>19.3</ele>
        <time>2021-09-05T06:30:18.000Z</time>
      </trkpt>
      <trkpt lat="50.47863" lon="3.50277">
        <ele>19.7</ele>
        <time>2021-09-05T06:30:20.146Z</time>
      </trkpt>
      <trkpt lat="50.47869" lon="3.50266">
        <ele>18.8</ele>
        <time>2021-09-05T06:30:23.839Z</time>
      </trkpt>
      <trkpt lat="50.47876" lon="3.50256">
        <ele>18.3</ele>
        <time>2021-09-05T06:30:27.127Z</time>
      </trkpt>
      <trkpt lat="50.47883" lon="3.50245">
        <ele>18.3</ele>
        <time>2021-09-05T06:30:30.593Z</time>
      </trkpt>
      <trkpt lat="50.47888" lon="3.50237">
        <ele>18.5</ele>
        <time>2021-09-05T06:30:33.999Z</time>
      </trkpt>
      <trkpt lat="50.47894" lon="3.50228">
        <ele>18.3</ele>
        <time>2021-09-05T06:30:38.000Z</time>
      </trkpt>
      <trkpt lat="50.47902" lon="3.50216">
        <ele>17.8</ele>
        <time>2021-09-05T06:30:40.943Z</time>
      </trkpt>
      <trkpt lat="50.47909" lon="3.50205">
        <ele>18</ele>
        <time>2021-09-05T06:30:44.458Z</time>
      </trkpt>
      <trkpt lat="50.47915" lon="3.50195">
        <ele>18.9</ele>
        <time>2021-09-05T06:30:47.780Z</time>
      </trkpt>
      <trkpt lat="50.47921" lon="3.50183">
        <ele>18.5</ele>
        <time>2021-09-05T06:30:50.983Z</time>
      </trkpt>
      <trkpt lat="50.47927" lon="3.50172">
        <ele>17.6</ele>
        <time>2021-09-05T06:30:55.000Z</time>
      </trkpt>
      <trkpt lat="50.47934" lon="3.50159">
        <ele>17.4</ele>
        <time>2021-09-05T06:30:57.678Z</time>
      </trkpt>
      <trkpt lat="50.47941" lon="3.50147">
        <ele>18.6</ele>
        <time>2021-09-05T06:31:02.000Z</time>
      </trkpt>
      <trkpt lat="50.47948" lon="3.50137">
        <ele>19.5</ele>
        <time>2021-09-05T06:31:05.000Z</time>
      </trkpt>
      <trkpt lat="50.47954" lon="3.50127">
        <ele>18.8</ele>
        <time>2021-09-05T06:31:08.000Z</time>
      </trkpt>
      <trkpt lat="50.47962" lon="3.50112">
        <ele>19</ele>
        <time>2021-09-05T06:31:10.945Z</time>
      </trkpt>
      <trkpt lat="50.4797" lon="3.50099">
        <ele>19.4</ele>
        <time>2021-09-05T06:31:15.000Z</time>
      </trkpt>
      <trkpt lat="50.47978" lon="3.50085">
        <ele>19.3</ele>
        <time>2021-09-05T06:31:17.513Z</time>
      </trkpt>
      <trkpt lat="50.47988" lon="3.5007">
        <ele>18.6</ele>
        <time>2021-09-05T06:31:20.836Z</time>
      </trkpt>
      <trkpt lat="50.47997" lon="3.50057">
        <ele>18.9</ele>
        <time>2021-09-05T06:31:23.837Z</time>
      </trkpt>
      <trkpt lat="50.48005" lon="3.50045">
        <ele>18.8</ele>
        <time>2021-09-05T06:31:26.860Z</time>
      </trkpt>
      <trkpt lat="50.48014" lon="3.50031">
        <ele>17.9</ele>
        <time>2021-09-05T06:31:29.974Z</time>
      </trkpt>
      <trkpt lat="50.4802" lon="3.50018">
        <ele>17.7</ele>
        <time>2021-09-05T06:31:33.034Z</time>
      </trkpt>
      <trkpt lat="50.4803" lon="3.50001">
        <ele>18.7</ele>
        <time>2021-09-05T06:31:36.954Z</time>
      </trkpt>
      <trkpt lat="50.48039" lon="3.4999">
        <ele>17.9</ele>
        <time>2021-09-05T06:31:41.000Z</time>
      </trkpt>
      <trkpt lat="50.48048" lon="3.49978">
        <ele>17.8</ele>
        <time>2021-09-05T06:31:44.000Z</time>
      </trkpt>
      <trkpt lat="50.48059" lon="3.49963">
        <ele>18</ele>
        <time>2021-09-05T06:31:47.040Z</time>
      </trkpt>
      <trkpt lat="50.48068" lon="3.4995">
        <ele>17.5</ele>
        <time>2021-09-05T06:31:50.119Z</time>
      </trkpt>
      <trkpt lat="50.48076" lon="3.49937">
        <ele>17.2</ele>
        <time>2021-09-05T06:31:54.000Z</time>
      </trkpt>
      <trkpt lat="50.48086" lon="3.49922">
        <ele>18.2</ele>
        <time>2021-09-05T06:31:58.000Z</time>
      </trkpt>
      <trkpt lat="50.48096" lon="3.49906">
        <ele>17.8</ele>
        <time>2021-09-05T06:32:00.794Z</time>
      </trkpt>
      <trkpt lat="50.48104" lon="3.49891">
        <ele>17.9</ele>
        <time>2021-09-05T06:32:04.114Z</time>
      </trkpt>
      <trkpt lat="50.48112" lon="3.49877">
        <ele>18.3</ele>
        <time>2021-09-05T06:32:08.000Z</time>
      </trkpt>
      <trkpt lat="50.48121" lon="3.49861">
        <ele>17.9</ele>
        <time>2021-09-05T06:32:11.076Z</time>
      </trkpt>
      <trkpt lat="50.48128" lon="3.49847">
        <ele>18.3</ele>
        <time>2021-09-05T06:32:14.518Z</time>
      </trkpt>
      <trkpt lat="50.48136" lon="3.49832">
        <ele>19.1</ele>
        <time>2021-09-05T06:32:19.000Z</time>
      </trkpt>
      <trkpt lat="50.48144" lon="3.49818">
        <ele>18.8</ele>
        <time>2021-09-05T06:32:21.572Z</time>
      </trkpt>
      <trkpt lat="50.48151" lon="3.49804">
        <ele>17.9</ele>
        <time>2021-09-05T06:32:24.912Z</time>
      </trkpt>
      <trkpt lat="50.48159" lon="3.49791">
        <ele>17.6</ele>
        <time>2021-09-05T06:32:29.000Z</time>
      </trkpt>
      <trkpt lat="50.48167" lon="3.4978">
        <ele>18.6</ele>
        <time>2021-09-05T06:32:32.000Z</time>
      </trkpt>
      <trkpt lat="50.48175" lon="3.49768">
        <ele>18.1</ele>
        <time>2021-09-05T06:32:34.438Z</time>
      </trkpt>
      <trkpt lat="50.48185" lon="3.49754">
        <ele>18.1</ele>
        <time>2021-09-05T06:32:39.000Z</time>
      </trkpt>
      <trkpt lat="50.48194" lon="3.49743">
        <ele>18.5</ele>
        <time>2021-09-05T06:32:41.998Z</time>
      </trkpt>
      <trkpt lat="50.48201" lon="3.49732">
        <ele>18.5</ele>
        <time>2021-09-05T06:32:45.280Z</time>
      </trkpt>
      <trkpt lat="50.48209" lon="3.49719">
        <ele>18</ele>
        <time>2021-09-05T06:32:48.762Z</time>
      </trkpt>
      <trkpt lat="50.48216" lon="3.49706">
        <ele>18</ele>
        <time>2021-09-05T06:32:51.857Z</time>
      </trkpt>
      <trkpt lat="50.48225" lon="3.49694">
        <ele>18.7</ele>
        <time>2021-09-05T06:32:55.149Z</time>
      </trkpt>
      <trkpt lat="50.48233" lon="3.49683">
        <ele>18</ele>
        <time>2021-09-05T06:32:58.715Z</time>
      </trkpt>
      <trkpt lat="50.48238" lon="3.49669">
        <ele>17.8</ele>
        <time>2021-09-05T06:33:03.000Z</time>
      </trkpt>
      <trkpt lat="50.48243" lon="3.49657">
        <ele>17.9</ele>
        <time>2021-09-05T06:33:06.000Z</time>
      </trkpt>
      <trkpt lat="50.48249" lon="3.49648">
        <ele>18.3</ele>
        <time>2021-09-05T06:33:09.000Z</time>
      </trkpt>
      <trkpt lat="50.48256" lon="3.49637">
        <ele>18.3</ele>
        <time>2021-09-05T06:33:11.599Z</time>
      </trkpt>
      <trkpt lat="50.48263" lon="3.49627">
        <ele>17.8</ele>
        <time>2021-09-05T06:33:16.000Z</time>
      </trkpt>
      <trkpt lat="50.4827" lon="3.49615">
        <ele>17.8</ele>
        <time>2021-09-05T06:33:18.581Z</time>
      </trkpt>
      <trkpt lat="50.48276" lon="3.49604">
        <ele>18.5</ele>
        <time>2021-09-05T06:33:23.000Z</time>
      </trkpt>
      <trkpt lat="50.48283" lon="3.49592">
        <ele>18.9</ele>
        <time>2021-09-05T06:33:25.962Z</time>
      </trkpt>
      <trkpt lat="50.4829" lon="3.4958">
        <ele>18.7</ele>
        <time>2021-09-05T06:33:30.000Z</time>
      </trkpt>
      <trkpt lat="50.48299" lon="3.49566">
        <ele>18.4</ele>
        <time>2021-09-05T06:33:33.061Z</time>
      </trkpt>
      <trkpt lat="50.48305" lon="3.49554">
        <ele>19</ele>
        <time>2021-09-05T06:33:36.402Z</time>
      </trkpt>
      <trkpt lat="50.48313" lon="3.49539">
        <ele>18.5</ele>
        <time>2021-09-05T06:33:41.000Z</time>
      </trkpt>
      <trkpt lat="50.48321" lon="3.49525">
        <ele>18.4</ele>
        <time>2021-09-05T06:33:43.897Z</time>
      </trkpt>
      <trkpt lat="50.4833" lon="3.49512">
        <ele>18</ele>
        <time>2021-09-05T06:33:47.564Z</time>
      </trkpt>
      <trkpt lat="50.48338" lon="3.495">
        <ele>18</ele>
        <time>2021-09-05T06:33:52.000Z</time>
      </trkpt>
      <trkpt lat="50.48345" lon="3.49489">
        <ele>17.8</ele>
        <time>2021-09-05T06:33:55.000Z</time>
      </trkpt>
      <trkpt lat="50.48351" lon="3.49478">
        <ele>17.7</ele>
        <time>2021-09-05T06:33:57.696Z</time>
      </trkpt>
      <trkpt lat="50.48359" lon="3.49466">
        <ele>17.9</ele>
        <time>2021-09-05T06:34:01.139Z</time>
      </trkpt>
      <trkpt lat="50.48366" lon="3.49454">
        <ele>17.9</ele>
        <time>2021-09-05T06:34:04.516Z</time>
      </trkpt>
      <trkpt lat="50.48373" lon="3.49445">
        <ele>18</ele>
        <time>2021-09-05T06:34:07.733Z</time>
      </trkpt>
      <trkpt lat="50.48379" lon="3.49434">
        <ele>17.9</ele>
        <time>2021-09-05T06:34:11.038Z</time>
      </trkpt>
      <trkpt lat="50.48384" lon="3.49424">
        <ele>17.9</ele>
        <time>2021-09-05T06:34:15.000Z</time>
      </trkpt>
      <trkpt lat="50.48392" lon="3.4941">
        <ele>17.7</ele>
        <time>2021-09-05T06:34:19.000Z</time>
      </trkpt>
      <trkpt lat="50.48398" lon="3.49401">
        <ele>17.3</ele>
        <time>2021-09-05T06:34:21.795Z</time>
      </trkpt>
      <trkpt lat="50.48403" lon="3.49389">
        <ele>17</ele>
        <time>2021-09-05T06:34:26.000Z</time>
      </trkpt>
      <trkpt lat="50.48408" lon="3.49377">
        <ele>17</ele>
        <time>2021-09-05T06:34:28.401Z</time>
      </trkpt>
      <trkpt lat="50.48415" lon="3.49364">
        <ele>17</ele>
        <time>2021-09-05T06:34:32.022Z</time>
      </trkpt>
      <trkpt lat="50.48422" lon="3.49355">
        <ele>17</ele>
        <time>2021-09-05T06:34:36.000Z</time>
      </trkpt>
      <trkpt lat="50.4843" lon="3.49343">
        <ele>17</ele>
        <time>2021-09-05T06:34:38.616Z</time>
      </trkpt>
      <trkpt lat="50.48439" lon="3.4933">
        <ele>17</ele>
        <time>2021-09-05T06:34:42.078Z</time>
      </trkpt>
      <trkpt lat="50.48446" lon="3.4932">
        <ele>17</ele>
        <time>2021-09-05T06:34:46.000Z</time>
      </trkpt>
      <trkpt lat="50.48452" lon="3.49311">
        <ele>16.9</ele>
        <time>2021-09-05T06:34:49.000Z</time>
      </trkpt>
      <trkpt lat="50.48457" lon="3.49299">
        <ele>17</ele>
        <time>2021-09-05T06:34:51.875Z</time>
      </trkpt>
      <trkpt lat="50.48464" lon="3.49289">
        <ele>17</ele>
        <time>2021-09-05T06:34:56.000Z</time>
      </trkpt>
      <trkpt lat="50.48472" lon="3.49278">
        <ele>17</ele>
        <time>2021-09-05T06:34:58.678Z</time>
      </trkpt>
      <trkpt lat="50.48479" lon="3.49269">
        <ele>16.8</ele>
        <time>2021-09-05T06:35:01.788Z</time>
      </trkpt>
      <trkpt lat="50.48486" lon="3.49258">
        <ele>16.9</ele>
        <time>2021-09-05T06:35:05.078Z</time>
      </trkpt>
      <trkpt lat="50.48492" lon="3.49247">
        <ele>17</ele>
        <time>2021-09-05T06:35:09.000Z</time>
      </trkpt>
      <trkpt lat="50.48499" lon="3.49238">
        <ele>17</ele>
        <time>2021-09-05T06:35:12.000Z</time>
      </trkpt>
      <trkpt lat="50.48507" lon="3.49225">
        <ele>17</ele>
        <time>2021-09-05T06:35:15.097Z</time>
      </trkpt>
      <trkpt lat="50.48515" lon="3.49214">
        <ele>16.9</ele>
        <time>2021-09-05T06:35:19.000Z</time>
      </trkpt>
      <trkpt lat="50.48524" lon="3.49202">
        <ele>16.9</ele>
        <time>2021-09-05T06:35:21.654Z</time>
      </trkpt>
      <trkpt lat="50.48531" lon="3.49191">
        <ele>17</ele>
        <time>2021-09-05T06:35:24.658Z</time>
      </trkpt>
      <trkpt lat="50.4854" lon="3.49179">
        <ele>17</ele>
        <time>2021-09-05T06:35:27.980Z</time>
      </trkpt>
      <trkpt lat="50.48547" lon="3.49168">
        <ele>17</ele>
        <time>2021-09-05T06:35:32.000Z</time>
      </trkpt>
      <trkpt lat="50.48555" lon="3.49157">
        <ele>17</ele>
        <time>2021-09-05T06:35:34.518Z</time>
      </trkpt>
      <trkpt lat="50.48562" lon="3.49144">
        <ele>17</ele>
        <time>2021-09-05T06:35:37.656Z</time>
      </trkpt>
      <trkpt lat="50.4857" lon="3.49129">
        <ele>17</ele>
        <time>2021-09-05T06:35:42.000Z</time>
      </trkpt>
      <trkpt lat="50.48577" lon="3.49117">
        <ele>17</ele>
        <time>2021-09-05T06:35:45.000Z</time>
      </trkpt>
      <trkpt lat="50.48585" lon="3.49104">
        <ele>17</ele>
        <time>2021-09-05T06:35:47.299Z</time>
      </trkpt>
      <trkpt lat="50.48594" lon="3.4909">
        <ele>17</ele>
        <time>2021-09-05T06:35:52.000Z</time>
      </trkpt>
      <trkpt lat="50.486" lon="3.49079">
        <ele>17</ele>
        <time>2021-09-05T06:35:55.000Z</time>
      </trkpt>
      <trkpt lat="50.48609" lon="3.49066">
        <ele>17</ele>
        <time>2021-09-05T06:35:57.816Z</time>
      </trkpt>
      <trkpt lat="50.48616" lon="3.49054">
        <ele>17</ele>
        <time>2021-09-05T06:36:02.000Z</time>
      </trkpt>
      <trkpt lat="50.48623" lon="3.49043">
        <ele>17</ele>
        <time>2021-09-05T06:36:05.000Z</time>
      </trkpt>
      <trkpt lat="50.48631" lon="3.4903">
        <ele>17</ele>
        <time>2021-09-05T06:36:07.432Z</time>
      </trkpt>
      <trkpt lat="50.48639" lon="3.49016">
        <ele>17</ele>
        <time>2021-09-05T06:36:11.017Z</time>
      </trkpt>
      <trkpt lat="50.48648" lon="3.49002">
        <ele>16.7</ele>
        <time>2021-09-05T06:36:14.655Z</time>
      </trkpt>
      <trkpt lat="50.48654" lon="3.4899">
        <ele>16.7</ele>
        <time>2021-09-05T06:36:17.660Z</time>
      </trkpt>
      <trkpt lat="50.48662" lon="3.48977">
        <ele>16.9</ele>
        <time>2021-09-05T06:36:20.860Z</time>
      </trkpt>
      <trkpt lat="50.48668" lon="3.48966">
        <ele>17</ele>
        <time>2021-09-05T06:36:23.956Z</time>
      </trkpt>
      <trkpt lat="50.48675" lon="3.48955">
        <ele>16.9</ele>
        <time>2021-09-05T06:36:28.000Z</time>
      </trkpt>
      <trkpt lat="50.4868" lon="3.48944">
        <ele>17</ele>
        <time>2021-09-05T06:36:31.000Z</time>
      </trkpt>
      <trkpt lat="50.48688" lon="3.48931">
        <ele>17</ele>
        <time>2021-09-05T06:36:33.781Z</time>
      </trkpt>
      <trkpt lat="50.48696" lon="3.48921">
        <ele>16.9</ele>
        <time>2021-09-05T06:36:38.000Z</time>
      </trkpt>
      <trkpt lat="50.48704" lon="3.48908">
        <ele>16.8</ele>
        <time>2021-09-05T06:36:40.637Z</time>
      </trkpt>
      <trkpt lat="50.4871" lon="3.48895">
        <ele>16.9</ele>
        <time>2021-09-05T06:36:45.000Z</time>
      </trkpt>
      <trkpt lat="50.48717" lon="3.48884">
        <ele>17</ele>
        <time>2021-09-05T06:36:47.262Z</time>
      </trkpt>
      <trkpt lat="50.48724" lon="3.48871">
        <ele>17</ele>
        <time>2021-09-05T06:36:50.639Z</time>
      </trkpt>
      <trkpt lat="50.48732" lon="3.48858">
        <ele>17</ele>
        <time>2021-09-05T06:36:55.000Z</time>
      </trkpt>
      <trkpt lat="50.48741" lon="3.48845">
        <ele>17</ele>
        <time>2021-09-05T06:36:57.973Z</time>
      </trkpt>
      <trkpt lat="50.48749" lon="3.48835">
        <ele>17</ele>
        <time>2021-09-05T06:37:01.080Z</time>
      </trkpt>
      <trkpt lat="50.48757" lon="3.48824">
        <ele>16.8</ele>
        <time>2021-09-05T06:37:05.000Z</time>
      </trkpt>
      <trkpt lat="50.48764" lon="3.48813">
        <ele>16.9</ele>
        <time>2021-09-05T06:37:07.677Z</time>
      </trkpt>
      <trkpt lat="50.48771" lon="3.48801">
        <ele>17</ele>
        <time>2021-09-05T06:37:10.998Z</time>
      </trkpt>
      <trkpt lat="50.48777" lon="3.4879">
        <ele>17</ele>
        <time>2021-09-05T06:37:15.000Z</time>
      </trkpt>
      <trkpt lat="50.48783" lon="3.48781">
        <ele>17</ele>
        <time>2021-09-05T06:37:18.000Z</time>
      </trkpt>
      <trkpt lat="50.48791" lon="3.48768">
        <ele>17</ele>
        <time>2021-09-05T06:37:22.000Z</time>
      </trkpt>
      <trkpt lat="50.48797" lon="3.4876">
        <ele>17</ele>
        <time>2021-09-05T06:37:25.000Z</time>
      </trkpt>
      <trkpt lat="50.48804" lon="3.48749">
        <ele>17</ele>
        <time>2021-09-05T06:37:27.734Z</time>
      </trkpt>
      <trkpt lat="50.48811" lon="3.48738">
        <ele>17.3</ele>
        <time>2021-09-05T06:37:32.000Z</time>
      </trkpt>
      <trkpt lat="50.4882" lon="3.48724">
        <ele>17.4</ele>
        <time>2021-09-05T06:37:35.081Z</time>
      </trkpt>
      <trkpt lat="50.48827" lon="3.48712">
        <ele>17.1</ele>
        <time>2021-09-05T06:37:38.120Z</time>
      </trkpt>
      <trkpt lat="50.48834" lon="3.48701">
        <ele>17</ele>
        <time>2021-09-05T06:37:42.000Z</time>
      </trkpt>
      <trkpt lat="50.48842" lon="3.48689">
        <ele>16.7</ele>
        <time>2021-09-05T06:37:44.855Z</time>
      </trkpt>
      <trkpt lat="50.48849" lon="3.48675">
        <ele>16.8</ele>
        <time>2021-09-05T06:37:49.000Z</time>
      </trkpt>
      <trkpt lat="50.48857" lon="3.4866">
        <ele>17</ele>
        <time>2021-09-05T06:37:51.640Z</time>
      </trkpt>
      <trkpt lat="50.48866" lon="3.48644">
        <ele>17</ele>
        <time>2021-09-05T06:37:55.035Z</time>
      </trkpt>
      <trkpt lat="50.48875" lon="3.48629">
        <ele>17</ele>
        <time>2021-09-05T06:37:58.478Z</time>
      </trkpt>
      <trkpt lat="50.48884" lon="3.48615">
        <ele>17</ele>
        <time>2021-09-05T06:38:02.016Z</time>
      </trkpt>
      <trkpt lat="50.48893" lon="3.48597">
        <ele>17.4</ele>
        <time>2021-09-05T06:38:06.075Z</time>
      </trkpt>
      <trkpt lat="50.48903" lon="3.48585">
        <ele>17.5</ele>
        <time>2021-09-05T06:38:09.593Z</time>
      </trkpt>
      <trkpt lat="50.4891" lon="3.48573">
        <ele>17.4</ele>
        <time>2021-09-05T06:38:12.916Z</time>
      </trkpt>
      <trkpt lat="50.48916" lon="3.48562">
        <ele>17.8</ele>
        <time>2021-09-05T06:38:17.000Z</time>
      </trkpt>
      <trkpt lat="50.48924" lon="3.4855">
        <ele>18</ele>
        <time>2021-09-05T06:38:19.454Z</time>
      </trkpt>
      <trkpt lat="50.48932" lon="3.48537">
        <ele>18</ele>
        <time>2021-09-05T06:38:22.699Z</time>
      </trkpt>
      <trkpt lat="50.4894" lon="3.48526">
        <ele>17.6</ele>
        <time>2021-09-05T06:38:25.920Z</time>
      </trkpt>
      <trkpt lat="50.48948" lon="3.48513">
        <ele>17.8</ele>
        <time>2021-09-05T06:38:29.083Z</time>
      </trkpt>
      <trkpt lat="50.48957" lon="3.48502">
        <ele>17.6</ele>
        <time>2021-09-05T06:38:33.000Z</time>
      </trkpt>
      <trkpt lat="50.48966" lon="3.48485">
        <ele>17.2</ele>
        <time>2021-09-05T06:38:35.848Z</time>
      </trkpt>
      <trkpt lat="50.48974" lon="3.4847">
        <ele>17</ele>
        <time>2021-09-05T06:38:39.461Z</time>
      </trkpt>
      <trkpt lat="50.48982" lon="3.48457">
        <ele>17</ele>
        <time>2021-09-05T06:38:42.975Z</time>
      </trkpt>
      <trkpt lat="50.4899" lon="3.48444">
        <ele>16.7</ele>
        <time>2021-09-05T06:38:46.569Z</time>
      </trkpt>
      <trkpt lat="50.48996" lon="3.48435">
        <ele>16.6</ele>
        <time>2021-09-05T06:38:49.637Z</time>
      </trkpt>
      <trkpt lat="50.49003" lon="3.48424">
        <ele>16.7</ele>
        <time>2021-09-05T06:38:54.000Z</time>
      </trkpt>
      <trkpt lat="50.4901" lon="3.48414">
        <ele>16.7</ele>
        <time>2021-09-05T06:38:56.775Z</time>
      </trkpt>
      <trkpt lat="50.49016" lon="3.48403">
        <ele>16.9</ele>
        <time>2021-09-05T06:39:01.000Z</time>
      </trkpt>
      <trkpt lat="50.49023" lon="3.48393">
        <ele>17</ele>
        <time>2021-09-05T06:39:03.697Z</time>
      </trkpt>
      <trkpt lat="50.49028" lon="3.48384">
        <ele>17.2</ele>
        <time>2021-09-05T06:39:07.564Z</time>
      </trkpt>
      <trkpt lat="50.49033" lon="3.48377">
        <ele>17.1</ele>
        <time>2021-09-05T06:39:10.995Z</time>
      </trkpt>
      <trkpt lat="50.49038" lon="3.48368">
        <ele>17</ele>
        <time>2021-09-05T06:39:14.382Z</time>
      </trkpt>
      <trkpt lat="50.49044" lon="3.48359">
        <ele>16.9</ele>
        <time>2021-09-05T06:39:17.956Z</time>
      </trkpt>
      <trkpt lat="50.4905" lon="3.48351">
        <ele>16.8</ele>
        <time>2021-09-05T06:39:20.959Z</time>
      </trkpt>
      <trkpt lat="50.49054" lon="3.48343">
        <ele>16.8</ele>
        <time>2021-09-05T06:39:23.979Z</time>
      </trkpt>
      <trkpt lat="50.49059" lon="3.48334">
        <ele>16.7</ele>
        <time>2021-09-05T06:39:27.182Z</time>
      </trkpt>
      <trkpt lat="50.49065" lon="3.48326">
        <ele>16.6</ele>
        <time>2021-09-05T06:39:30.679Z</time>
      </trkpt>
      <trkpt lat="50.4907" lon="3.4832">
        <ele>16.4</ele>
        <time>2021-09-05T06:39:33.756Z</time>
      </trkpt>
      <trkpt lat="50.49074" lon="3.48312">
        <ele>16.4</ele>
        <time>2021-09-05T06:39:38.000Z</time>
      </trkpt>
      <trkpt lat="50.49078" lon="3.48303">
        <ele>16.6</ele>
        <time>2021-09-05T06:39:41.016Z</time>
      </trkpt>
      <trkpt lat="50.49084" lon="3.48294">
        <ele>16.8</ele>
        <time>2021-09-05T06:39:45.040Z</time>
      </trkpt>
      <trkpt lat="50.49089" lon="3.48287">
        <ele>16.8</ele>
        <time>2021-09-05T06:39:48.473Z</time>
      </trkpt>
      <trkpt lat="50.49094" lon="3.48277">
        <ele>16.9</ele>
        <time>2021-09-05T06:39:53.000Z</time>
      </trkpt>
      <trkpt lat="50.49099" lon="3.48268">
        <ele>17.2</ele>
        <time>2021-09-05T06:39:56.000Z</time>
      </trkpt>
      <trkpt lat="50.49104" lon="3.48261">
        <ele>17.1</ele>
        <time>2021-09-05T06:39:59.000Z</time>
      </trkpt>
      <trkpt lat="50.49107" lon="3.48253">
        <ele>17.4</ele>
        <time>2021-09-05T06:40:01.497Z</time>
      </trkpt>
      <trkpt lat="50.49111" lon="3.48245">
        <ele>17.6</ele>
        <time>2021-09-05T06:40:04.901Z</time>
      </trkpt>
      <trkpt lat="50.49116" lon="3.48238">
        <ele>17.8</ele>
        <time>2021-09-05T06:40:09.000Z</time>
      </trkpt>
      <trkpt lat="50.49119" lon="3.48233">
        <ele>17.9</ele>
        <time>2021-09-05T06:40:13.000Z</time>
      </trkpt>
      <trkpt lat="50.49126" lon="3.48224">
        <ele>17.7</ele>
        <time>2021-09-05T06:40:23.000Z</time>
      </trkpt>
      <trkpt lat="50.49129" lon="3.48212">
        <ele>18</ele>
        <time>2021-09-05T06:40:30.000Z</time>
      </trkpt>
      <trkpt lat="50.49135" lon="3.48206">
        <ele>17.6</ele>
        <time>2021-09-05T06:40:37.000Z</time>
      </trkpt>
      <trkpt lat="50.49139" lon="3.48201">
        <ele>17.5</ele>
        <time>2021-09-05T06:40:39.735Z</time>
      </trkpt>
      <trkpt lat="50.49145" lon="3.48193">
        <ele>17.4</ele>
        <time>2021-09-05T06:40:42.841Z</time>
      </trkpt>
      <trkpt lat="50.49151" lon="3.48185">
        <ele>17.4</ele>
        <time>2021-09-05T06:40:46.117Z</time>
      </trkpt>
      <trkpt lat="50.49157" lon="3.48175">
        <ele>17.4</ele>
        <time>2021-09-05T06:40:49.875Z</time>
      </trkpt>
      <trkpt lat="50.49163" lon="3.48164">
        <ele>17.5</ele>
        <time>2021-09-05T06:40:53.439Z</time>
      </trkpt>
      <trkpt lat="50.49168" lon="3.48155">
        <ele>17.3</ele>
        <time>2021-09-05T06:40:56.907Z</time>
      </trkpt>
      <trkpt lat="50.49173" lon="3.48147">
        <ele>17.3</ele>
        <time>2021-09-05T06:40:59.915Z</time>
      </trkpt>
      <trkpt lat="50.49179" lon="3.48135">
        <ele>17.3</ele>
        <time>2021-09-05T06:41:03.696Z</time>
      </trkpt>
      <trkpt lat="50.49184" lon="3.48126">
        <ele>17.4</ele>
        <time>2021-09-05T06:41:06.837Z</time>
      </trkpt>
      <trkpt lat="50.49188" lon="3.48119">
        <ele>17.3</ele>
        <time>2021-09-05T06:41:11.000Z</time>
      </trkpt>
      <trkpt lat="50.49193" lon="3.48112">
        <ele>17.1</ele>
        <time>2021-09-05T06:41:14.000Z</time>
      </trkpt>
      <trkpt lat="50.49198" lon="3.48103">
        <ele>17.3</ele>
        <time>2021-09-05T06:41:18.000Z</time>
      </trkpt>
      <trkpt lat="50.49204" lon="3.48095">
        <ele>17.3</ele>
        <time>2021-09-05T06:41:20.900Z</time>
      </trkpt>
      <trkpt lat="50.49208" lon="3.48088">
        <ele>17.3</ele>
        <time>2021-09-05T06:41:25.000Z</time>
      </trkpt>
      <trkpt lat="50.49213" lon="3.4808">
        <ele>17.1</ele>
        <time>2021-09-05T06:41:27.720Z</time>
      </trkpt>
      <trkpt lat="50.49216" lon="3.48075">
        <ele>16.9</ele>
        <time>2021-09-05T06:41:30.994Z</time>
      </trkpt>
      <trkpt lat="50.49221" lon="3.48068">
        <ele>16.7</ele>
        <time>2021-09-05T06:41:34.100Z</time>
      </trkpt>
      <trkpt lat="50.49226" lon="3.4806">
        <ele>16.7</ele>
        <time>2021-09-05T06:41:38.000Z</time>
      </trkpt>
      <trkpt lat="50.49231" lon="3.48053">
        <ele>16.7</ele>
        <time>2021-09-05T06:41:41.000Z</time>
      </trkpt>
      <trkpt lat="50.49237" lon="3.48044">
        <ele>16.5</ele>
        <time>2021-09-05T06:41:44.000Z</time>
      </trkpt>
      <trkpt lat="50.49242" lon="3.48035">
        <ele>16.6</ele>
        <time>2021-09-05T06:41:46.497Z</time>
      </trkpt>
      <trkpt lat="50.49247" lon="3.48025">
        <ele>16.8</ele>
        <time>2021-09-05T06:41:49.556Z</time>
      </trkpt>
      <trkpt lat="50.49254" lon="3.48014">
        <ele>16.4</ele>
        <time>2021-09-05T06:41:54.000Z</time>
      </trkpt>
      <trkpt lat="50.4926" lon="3.48002">
        <ele>16</ele>
        <time>2021-09-05T06:41:56.665Z</time>
      </trkpt>
      <trkpt lat="50.49265" lon="3.47993">
        <ele>16.1</ele>
        <time>2021-09-05T06:41:59.961Z</time>
      </trkpt>
      <trkpt lat="50.49269" lon="3.47984">
        <ele>16.4</ele>
        <time>2021-09-05T06:42:04.000Z</time>
      </trkpt>
      <trkpt lat="50.49275" lon="3.47976">
        <ele>16.8</ele>
        <time>2021-09-05T06:42:06.695Z</time>
      </trkpt>
      <trkpt lat="50.4928" lon="3.47969">
        <ele>16.8</ele>
        <time>2021-09-05T06:42:09.933Z</time>
      </trkpt>
      <trkpt lat="50.49286" lon="3.47962">
        <ele>16.4</ele>
        <time>2021-09-05T06:42:14.000Z</time>
      </trkpt>
      <trkpt lat="50.4929" lon="3.47956">
        <ele>16.2</ele>
        <time>2021-09-05T06:42:16.519Z</time>
      </trkpt>
      <trkpt lat="50.49295" lon="3.47948">
        <ele>16</ele>
        <time>2021-09-05T06:42:19.936Z</time>
      </trkpt>
      <trkpt lat="50.493" lon="3.47937">
        <ele>15.9</ele>
        <time>2021-09-05T06:42:24.000Z</time>
      </trkpt>
      <trkpt lat="50.49308" lon="3.47923">
        <ele>16</ele>
        <time>2021-09-05T06:42:26.820Z</time>
      </trkpt>
      <trkpt lat="50.49314" lon="3.47911">
        <ele>15.9</ele>
        <time>2021-09-05T06:42:29.918Z</time>
      </trkpt>
      <trkpt lat="50.4932" lon="3.479">
        <ele>15.7</ele>
        <time>2021-09-05T06:42:33.101Z</time>
      </trkpt>
      <trkpt lat="50.49325" lon="3.47891">
        <ele>15.7</ele>
        <time>2021-09-05T06:42:36.618Z</time>
      </trkpt>
      <trkpt lat="50.49331" lon="3.47881">
        <ele>15.7</ele>
        <time>2021-09-05T06:42:40.107Z</time>
      </trkpt>
      <trkpt lat="50.49335" lon="3.47874">
        <ele>15.5</ele>
        <time>2021-09-05T06:42:44.000Z</time>
      </trkpt>
      <trkpt lat="50.4934" lon="3.47868">
        <ele>15.5</ele>
        <time>2021-09-05T06:42:48.000Z</time>
      </trkpt>
      <trkpt lat="50.49346" lon="3.47867">
        <ele>15.7</ele>
        <time>2021-09-05T06:43:41.000Z</time>
      </trkpt>
      <trkpt lat="50.4935" lon="3.47862">
        <ele>15.6</ele>
        <time>2021-09-05T06:43:43.798Z</time>
      </trkpt>
      <trkpt lat="50.49356" lon="3.47852">
        <ele>15.8</ele>
        <time>2021-09-05T06:43:46.641Z</time>
      </trkpt>
      <trkpt lat="50.4936" lon="3.47844">
        <ele>16</ele>
        <time>2021-09-05T06:43:50.000Z</time>
      </trkpt>
      <trkpt lat="50.49366" lon="3.47834">
        <ele>16.2</ele>
        <time>2021-09-05T06:43:52.138Z</time>
      </trkpt>
      <trkpt lat="50.49369" lon="3.4783">
        <ele>16.2</ele>
        <time>2021-09-05T06:43:53.760Z</time>
      </trkpt>
      <trkpt lat="50.49375" lon="3.47823">
        <ele>16.3</ele>
        <time>2021-09-05T06:43:55.997Z</time>
      </trkpt>
      <trkpt lat="50.49379" lon="3.47817">
        <ele>16.3</ele>
        <time>2021-09-05T06:43:58.382Z</time>
      </trkpt>
      <trkpt lat="50.49383" lon="3.47809">
        <ele>16.1</ele>
        <time>2021-09-05T06:44:00.860Z</time>
      </trkpt>
      <trkpt lat="50.49391" lon="3.47795">
        <ele>16</ele>
        <time>2021-09-05T06:44:06.000Z</time>
      </trkpt>
      <trkpt lat="50.49395" lon="3.47783">
        <ele>16</ele>
        <time>2021-09-05T06:44:09.000Z</time>
      </trkpt>
      <trkpt lat="50.49402" lon="3.47774">
        <ele>16</ele>
        <time>2021-09-05T06:44:11.255Z</time>
      </trkpt>
      <trkpt lat="50.4941" lon="3.47761">
        <ele>16</ele>
        <time>2021-09-05T06:44:15.084Z</time>
      </trkpt>
      <trkpt lat="50.49415" lon="3.47753">
        <ele>16</ele>
        <time>2021-09-05T06:44:19.000Z</time>
      </trkpt>
      <trkpt lat="50.49423" lon="3.47741">
        <ele>16.3</ele>
        <time>2021-09-05T06:44:23.000Z</time>
      </trkpt>
      <trkpt lat="50.4943" lon="3.4773">
        <ele>16.4</ele>
        <time>2021-09-05T06:44:26.000Z</time>
      </trkpt>
      <trkpt lat="50.49438" lon="3.47717">
        <ele>16.4</ele>
        <time>2021-09-05T06:44:28.797Z</time>
      </trkpt>
      <trkpt lat="50.49445" lon="3.47705">
        <ele>16.6</ele>
        <time>2021-09-05T06:44:31.921Z</time>
      </trkpt>
      <trkpt lat="50.49453" lon="3.47692">
        <ele>16.7</ele>
        <time>2021-09-05T06:44:36.000Z</time>
      </trkpt>
      <trkpt lat="50.4946" lon="3.47678">
        <ele>16.4</ele>
        <time>2021-09-05T06:44:38.480Z</time>
      </trkpt>
      <trkpt lat="50.49467" lon="3.47662">
        <ele>16.3</ele>
        <time>2021-09-05T06:44:43.000Z</time>
      </trkpt>
      <trkpt lat="50.49475" lon="3.4765">
        <ele>16.5</ele>
        <time>2021-09-05T06:44:46.000Z</time>
      </trkpt>
      <trkpt lat="50.49483" lon="3.47637">
        <ele>16.6</ele>
        <time>2021-09-05T06:44:48.463Z</time>
      </trkpt>
      <trkpt lat="50.49491" lon="3.47622">
        <ele>16.3</ele>
        <time>2021-09-05T06:44:52.103Z</time>
      </trkpt>
      <trkpt lat="50.49498" lon="3.47608">
        <ele>16.2</ele>
        <time>2021-09-05T06:44:56.000Z</time>
      </trkpt>
      <trkpt lat="50.49508" lon="3.4759">
        <ele>16.5</ele>
        <time>2021-09-05T06:44:59.062Z</time>
      </trkpt>
      <trkpt lat="50.49515" lon="3.47574">
        <ele>16.5</ele>
        <time>2021-09-05T06:45:03.000Z</time>
      </trkpt>
      <trkpt lat="50.49523" lon="3.47558">
        <ele>16.2</ele>
        <time>2021-09-05T06:45:06.000Z</time>
      </trkpt>
      <trkpt lat="50.49532" lon="3.47541">
        <ele>16.4</ele>
        <time>2021-09-05T06:45:08.380Z</time>
      </trkpt>
      <trkpt lat="50.4954" lon="3.47526">
        <ele>16.6</ele>
        <time>2021-09-05T06:45:11.514Z</time>
      </trkpt>
      <trkpt lat="50.49548" lon="3.47511">
        <ele>16.7</ele>
        <time>2021-09-05T06:45:14.697Z</time>
      </trkpt>
      <trkpt lat="50.49554" lon="3.47496">
        <ele>17</ele>
        <time>2021-09-05T06:45:19.000Z</time>
      </trkpt>
      <trkpt lat="50.49562" lon="3.4748">
        <ele>16.8</ele>
        <time>2021-09-05T06:45:21.919Z</time>
      </trkpt>
      <trkpt lat="50.49568" lon="3.47468">
        <ele>16.6</ele>
        <time>2021-09-05T06:45:26.000Z</time>
      </trkpt>
      <trkpt lat="50.49575" lon="3.47455">
        <ele>16.7</ele>
        <time>2021-09-05T06:45:28.617Z</time>
      </trkpt>
      <trkpt lat="50.49582" lon="3.47441">
        <ele>17</ele>
        <time>2021-09-05T06:45:33.000Z</time>
      </trkpt>
      <trkpt lat="50.49587" lon="3.47431">
        <ele>16.9</ele>
        <time>2021-09-05T06:45:36.000Z</time>
      </trkpt>
      <trkpt lat="50.49594" lon="3.47417">
        <ele>16.6</ele>
        <time>2021-09-05T06:45:38.693Z</time>
      </trkpt>
      <trkpt lat="50.49601" lon="3.47403">
        <ele>16.7</ele>
        <time>2021-09-05T06:45:42.097Z</time>
      </trkpt>
      <trkpt lat="50.49607" lon="3.4739">
        <ele>17</ele>
        <time>2021-09-05T06:45:46.000Z</time>
      </trkpt>
      <trkpt lat="50.49613" lon="3.47377">
        <ele>16.9</ele>
        <time>2021-09-05T06:45:48.619Z</time>
      </trkpt>
      <trkpt lat="50.49619" lon="3.47363">
        <ele>16.7</ele>
        <time>2021-09-05T06:45:52.100Z</time>
      </trkpt>
      <trkpt lat="50.49624" lon="3.47351">
        <ele>16.7</ele>
        <time>2021-09-05T06:45:56.000Z</time>
      </trkpt>
      <trkpt lat="50.49631" lon="3.47337">
        <ele>16.9</ele>
        <time>2021-09-05T06:45:58.619Z</time>
      </trkpt>
      <trkpt lat="50.49637" lon="3.47322">
        <ele>17</ele>
        <time>2021-09-05T06:46:02.055Z</time>
      </trkpt>
      <trkpt lat="50.49643" lon="3.47309">
        <ele>16.9</ele>
        <time>2021-09-05T06:46:06.000Z</time>
      </trkpt>
      <trkpt lat="50.49649" lon="3.47296">
        <ele>16.8</ele>
        <time>2021-09-05T06:46:09.000Z</time>
      </trkpt>
      <trkpt lat="50.49656" lon="3.47282">
        <ele>16.9</ele>
        <time>2021-09-05T06:46:11.567Z</time>
      </trkpt>
      <trkpt lat="50.49662" lon="3.47268">
        <ele>17</ele>
        <time>2021-09-05T06:46:14.638Z</time>
      </trkpt>
      <trkpt lat="50.49669" lon="3.47252">
        <ele>16.9</ele>
        <time>2021-09-05T06:46:19.000Z</time>
      </trkpt>
      <trkpt lat="50.49674" lon="3.47239">
        <ele>16.8</ele>
        <time>2021-09-05T06:46:22.000Z</time>
      </trkpt>
      <trkpt lat="50.49677" lon="3.47221">
        <ele>17</ele>
        <time>2021-09-05T06:46:24.570Z</time>
      </trkpt>
      <trkpt lat="50.49683" lon="3.47204">
        <ele>17</ele>
        <time>2021-09-05T06:46:27.679Z</time>
      </trkpt>
      <trkpt lat="50.49688" lon="3.47189">
        <ele>17</ele>
        <time>2021-09-05T06:46:30.737Z</time>
      </trkpt>
      <trkpt lat="50.49693" lon="3.47174">
        <ele>17</ele>
        <time>2021-09-05T06:46:33.918Z</time>
      </trkpt>
      <trkpt lat="50.49698" lon="3.4716">
        <ele>16.9</ele>
        <time>2021-09-05T06:46:36.942Z</time>
      </trkpt>
      <trkpt lat="50.49703" lon="3.47145">
        <ele>16.7</ele>
        <time>2021-09-05T06:46:40.112Z</time>
      </trkpt>
      <trkpt lat="50.4971" lon="3.47128">
        <ele>16.4</ele>
        <time>2021-09-05T06:46:43.763Z</time>
      </trkpt>
      <trkpt lat="50.49715" lon="3.47112">
        <ele>16.3</ele>
        <time>2021-09-05T06:46:46.876Z</time>
      </trkpt>
      <trkpt lat="50.49718" lon="3.47097">
        <ele>16.2</ele>
        <time>2021-09-05T06:46:51.000Z</time>
      </trkpt>
      <trkpt lat="50.49722" lon="3.47082">
        <ele>16.1</ele>
        <time>2021-09-05T06:46:53.593Z</time>
      </trkpt>
      <trkpt lat="50.49725" lon="3.47068">
        <ele>16.5</ele>
        <time>2021-09-05T06:46:56.935Z</time>
      </trkpt>
      <trkpt lat="50.49728" lon="3.47055">
        <ele>16.8</ele>
        <time>2021-09-05T06:47:00.414Z</time>
      </trkpt>
      <trkpt lat="50.4973" lon="3.47043">
        <ele>16.7</ele>
        <time>2021-09-05T06:47:03.962Z</time>
      </trkpt>
      <trkpt lat="50.49732" lon="3.4703">
        <ele>16.6</ele>
        <time>2021-09-05T06:47:07.114Z</time>
      </trkpt>
      <trkpt lat="50.49734" lon="3.47017">
        <ele>16.6</ele>
        <time>2021-09-05T06:47:10.519Z</time>
      </trkpt>
      <trkpt lat="50.49736" lon="3.47004">
        <ele>16.5</ele>
        <time>2021-09-05T06:47:13.897Z</time>
      </trkpt>
      <trkpt lat="50.4974" lon="3.46991">
        <ele>16.4</ele>
        <time>2021-09-05T06:47:18.000Z</time>
      </trkpt>
      <trkpt lat="50.49742" lon="3.46979">
        <ele>16.3</ele>
        <time>2021-09-05T06:47:20.135Z</time>
      </trkpt>
      <trkpt lat="50.49745" lon="3.46964">
        <ele>16.4</ele>
        <time>2021-09-05T06:47:23.400Z</time>
      </trkpt>
      <trkpt lat="50.49748" lon="3.46949">
        <ele>16.8</ele>
        <time>2021-09-05T06:47:26.581Z</time>
      </trkpt>
      <trkpt lat="50.4975" lon="3.46933">
        <ele>17</ele>
        <time>2021-09-05T06:47:29.941Z</time>
      </trkpt>
      <trkpt lat="50.49755" lon="3.46913">
        <ele>16.8</ele>
        <time>2021-09-05T06:47:33.816Z</time>
      </trkpt>
      <trkpt lat="50.49759" lon="3.46894">
        <ele>16.7</ele>
        <time>2021-09-05T06:47:38.000Z</time>
      </trkpt>
      <trkpt lat="50.49762" lon="3.46874">
        <ele>16.6</ele>
        <time>2021-09-05T06:47:40.652Z</time>
      </trkpt>
      <trkpt lat="50.49766" lon="3.46852">
        <ele>16.4</ele>
        <time>2021-09-05T06:47:44.058Z</time>
      </trkpt>
      <trkpt lat="50.49771" lon="3.46833">
        <ele>16.2</ele>
        <time>2021-09-05T06:47:48.000Z</time>
      </trkpt>
      <trkpt lat="50.49774" lon="3.4681">
        <ele>16.1</ele>
        <time>2021-09-05T06:47:50.353Z</time>
      </trkpt>
      <trkpt lat="50.49778" lon="3.46786">
        <ele>16</ele>
        <time>2021-09-05T06:47:53.975Z</time>
      </trkpt>
      <trkpt lat="50.49782" lon="3.46766">
        <ele>16</ele>
        <time>2021-09-05T06:47:58.000Z</time>
      </trkpt>
      <trkpt lat="50.49785" lon="3.46747">
        <ele>16.1</ele>
        <time>2021-09-05T06:48:00.530Z</time>
      </trkpt>
      <trkpt lat="50.49788" lon="3.46733">
        <ele>16.4</ele>
        <time>2021-09-05T06:48:03.075Z</time>
      </trkpt>
      <trkpt lat="50.49791" lon="3.46721">
        <ele>16.5</ele>
        <time>2021-09-05T06:48:05.209Z</time>
      </trkpt>
      <trkpt lat="50.49794" lon="3.4671">
        <ele>16.4</ele>
        <time>2021-09-05T06:48:07.475Z</time>
      </trkpt>
      <trkpt lat="50.49796" lon="3.46699">
        <ele>16.3</ele>
        <time>2021-09-05T06:48:09.830Z</time>
      </trkpt>
      <trkpt lat="50.49797" lon="3.46686">
        <ele>16.5</ele>
        <time>2021-09-05T06:48:12.836Z</time>
      </trkpt>
      <trkpt lat="50.498" lon="3.46676">
        <ele>16.5</ele>
        <time>2021-09-05T06:48:17.000Z</time>
      </trkpt>
      <trkpt lat="50.49803" lon="3.46659">
        <ele>16.8</ele>
        <time>2021-09-05T06:48:40.312Z</time>
      </trkpt>
      <trkpt lat="50.49806" lon="3.46652">
        <ele>17</ele>
        <time>2021-09-05T06:49:03.000Z</time>
      </trkpt>
      <trkpt lat="50.49808" lon="3.46641">
        <ele>17.7</ele>
        <time>2021-09-05T06:49:04.916Z</time>
      </trkpt>
      <trkpt lat="50.49811" lon="3.4663">
        <ele>17.9</ele>
        <time>2021-09-05T06:49:07.114Z</time>
      </trkpt>
      <trkpt lat="50.49813" lon="3.46622">
        <ele>17.9</ele>
        <time>2021-09-05T06:49:08.471Z</time>
      </trkpt>
      <trkpt lat="50.49814" lon="3.46614">
        <ele>18</ele>
        <time>2021-09-05T06:49:09.696Z</time>
      </trkpt>
      <trkpt lat="50.49816" lon="3.46606">
        <ele>18</ele>
        <time>2021-09-05T06:49:12.000Z</time>
      </trkpt>
      <trkpt lat="50.49818" lon="3.46597">
        <ele>17.9</ele>
        <time>2021-09-05T06:49:12.695Z</time>
      </trkpt>
      <trkpt lat="50.4982" lon="3.46585">
        <ele>17.9</ele>
        <time>2021-09-05T06:49:14.750Z</time>
      </trkpt>
      <trkpt lat="50.49822" lon="3.46578">
        <ele>17.6</ele>
        <time>2021-09-05T06:49:15.974Z</time>
      </trkpt>
      <trkpt lat="50.49824" lon="3.46566">
        <ele>17.3</ele>
        <time>2021-09-05T06:49:19.000Z</time>
      </trkpt>
      <trkpt lat="50.49825" lon="3.46556">
        <ele>17.2</ele>
        <time>2021-09-05T06:49:19.688Z</time>
      </trkpt>
      <trkpt lat="50.49827" lon="3.46543">
        <ele>17.3</ele>
        <time>2021-09-05T06:49:21.775Z</time>
      </trkpt>
      <trkpt lat="50.49829" lon="3.46533">
        <ele>17.3</ele>
        <time>2021-09-05T06:49:24.000Z</time>
      </trkpt>
      <trkpt lat="50.49831" lon="3.46525">
        <ele>17.4</ele>
        <time>2021-09-05T06:49:24.498Z</time>
      </trkpt>
      <trkpt lat="50.49832" lon="3.46516">
        <ele>17.6</ele>
        <time>2021-09-05T06:49:25.873Z</time>
      </trkpt>
      <trkpt lat="50.49834" lon="3.46508">
        <ele>17.7</ele>
        <time>2021-09-05T06:49:28.000Z</time>
      </trkpt>
      <trkpt lat="50.49836" lon="3.46495">
        <ele>17.8</ele>
        <time>2021-09-05T06:49:30.000Z</time>
      </trkpt>
      <trkpt lat="50.49839" lon="3.46478">
        <ele>17.6</ele>
        <time>2021-09-05T06:49:33.000Z</time>
      </trkpt>
      <trkpt lat="50.49842" lon="3.46459">
        <ele>18</ele>
        <time>2021-09-05T06:49:35.370Z</time>
      </trkpt>
      <trkpt lat="50.49845" lon="3.4644">
        <ele>18.3</ele>
        <time>2021-09-05T06:49:38.895Z</time>
      </trkpt>
      <trkpt lat="50.49848" lon="3.46422">
        <ele>17.9</ele>
        <time>2021-09-05T06:49:43.000Z</time>
      </trkpt>
      <trkpt lat="50.4985" lon="3.46404">
        <ele>17.6</ele>
        <time>2021-09-05T06:49:45.693Z</time>
      </trkpt>
      <trkpt lat="50.4985" lon="3.46386">
        <ele>17.6</ele>
        <time>2021-09-05T06:49:50.000Z</time>
      </trkpt>
      <trkpt lat="50.49852" lon="3.46372">
        <ele>17.5</ele>
        <time>2021-09-05T06:49:53.000Z</time>
      </trkpt>
      <trkpt lat="50.49853" lon="3.46356">
        <ele>17.6</ele>
        <time>2021-09-05T06:49:56.000Z</time>
      </trkpt>
      <trkpt lat="50.49857" lon="3.46336">
        <ele>17.5</ele>
        <time>2021-09-05T06:50:00.000Z</time>
      </trkpt>
      <trkpt lat="50.49859" lon="3.46316">
        <ele>17.9</ele>
        <time>2021-09-05T06:50:02.736Z</time>
      </trkpt>
      <trkpt lat="50.49863" lon="3.46298">
        <ele>18.4</ele>
        <time>2021-09-05T06:50:05.830Z</time>
      </trkpt>
      <trkpt lat="50.49867" lon="3.4628">
        <ele>19</ele>
        <time>2021-09-05T06:50:08.975Z</time>
      </trkpt>
      <trkpt lat="50.49871" lon="3.4626">
        <ele>18.6</ele>
        <time>2021-09-05T06:50:12.594Z</time>
      </trkpt>
      <trkpt lat="50.49874" lon="3.46239">
        <ele>17.7</ele>
        <time>2021-09-05T06:50:17.000Z</time>
      </trkpt>
      <trkpt lat="50.49875" lon="3.46219">
        <ele>17</ele>
        <time>2021-09-05T06:50:19.139Z</time>
      </trkpt>
      <trkpt lat="50.49877" lon="3.46195">
        <ele>16.9</ele>
        <time>2021-09-05T06:50:22.948Z</time>
      </trkpt>
      <trkpt lat="50.49879" lon="3.46172">
        <ele>16.7</ele>
        <time>2021-09-05T06:50:27.000Z</time>
      </trkpt>
      <trkpt lat="50.49883" lon="3.46149">
        <ele>16.4</ele>
        <time>2021-09-05T06:50:30.000Z</time>
      </trkpt>
      <trkpt lat="50.49889" lon="3.46123">
        <ele>17.1</ele>
        <time>2021-09-05T06:50:34.000Z</time>
      </trkpt>
      <trkpt lat="50.49892" lon="3.46102">
        <ele>17.8</ele>
        <time>2021-09-05T06:50:37.000Z</time>
      </trkpt>
      <trkpt lat="50.49894" lon="3.46082">
        <ele>17.6</ele>
        <time>2021-09-05T06:50:40.000Z</time>
      </trkpt>
      <trkpt lat="50.49897" lon="3.4606">
        <ele>17.4</ele>
        <time>2021-09-05T06:50:42.480Z</time>
      </trkpt>
      <trkpt lat="50.49901" lon="3.46037">
        <ele>16.8</ele>
        <time>2021-09-05T06:50:47.000Z</time>
      </trkpt>
      <trkpt lat="50.49905" lon="3.46011">
        <ele>16.4</ele>
        <time>2021-09-05T06:50:50.130Z</time>
      </trkpt>
      <trkpt lat="50.4991" lon="3.45987">
        <ele>16.6</ele>
        <time>2021-09-05T06:50:53.887Z</time>
      </trkpt>
      <trkpt lat="50.49914" lon="3.45967">
        <ele>17.2</ele>
        <time>2021-09-05T06:50:58.000Z</time>
      </trkpt>
      <trkpt lat="50.49918" lon="3.45947">
        <ele>17.8</ele>
        <time>2021-09-05T06:51:01.000Z</time>
      </trkpt>
      <trkpt lat="50.49924" lon="3.45926">
        <ele>17.5</ele>
        <time>2021-09-05T06:51:03.699Z</time>
      </trkpt>
      <trkpt lat="50.49928" lon="3.45906">
        <ele>17.2</ele>
        <time>2021-09-05T06:51:06.881Z</time>
      </trkpt>
      <trkpt lat="50.49932" lon="3.45886">
        <ele>16.9</ele>
        <time>2021-09-05T06:51:11.000Z</time>
      </trkpt>
      <trkpt lat="50.49934" lon="3.45866">
        <ele>16.8</ele>
        <time>2021-09-05T06:51:13.523Z</time>
      </trkpt>
      <trkpt lat="50.49937" lon="3.45844">
        <ele>16.4</ele>
        <time>2021-09-05T06:51:17.125Z</time>
      </trkpt>
      <trkpt lat="50.4994" lon="3.45821">
        <ele>16.9</ele>
        <time>2021-09-05T06:51:21.008Z</time>
      </trkpt>
      <trkpt lat="50.49942" lon="3.45798">
        <ele>17.9</ele>
        <time>2021-09-05T06:51:26.000Z</time>
      </trkpt>
      <trkpt lat="50.49945" lon="3.45781">
        <ele>17.9</ele>
        <time>2021-09-05T06:51:28.604Z</time>
      </trkpt>
      <trkpt lat="50.49948" lon="3.45764">
        <ele>17.6</ele>
        <time>2021-09-05T06:51:31.697Z</time>
      </trkpt>
      <trkpt lat="50.49951" lon="3.45748">
        <ele>17.3</ele>
        <time>2021-09-05T06:51:35.005Z</time>
      </trkpt>
      <trkpt lat="50.49955" lon="3.45735">
        <ele>17.2</ele>
        <time>2021-09-05T06:51:38.542Z</time>
      </trkpt>
      <trkpt lat="50.49955" lon="3.45727">
        <ele>17.4</ele>
        <time>2021-09-05T06:51:41.964Z</time>
      </trkpt>
      <trkpt lat="50.49959" lon="3.45709">
        <ele>17.2</ele>
        <time>2021-09-05T06:51:47.000Z</time>
      </trkpt>
      <trkpt lat="50.49963" lon="3.45695">
        <ele>17</ele>
        <time>2021-09-05T06:51:50.000Z</time>
      </trkpt>
      <trkpt lat="50.49967" lon="3.45676">
        <ele>16.4</ele>
        <time>2021-09-05T06:51:52.844Z</time>
      </trkpt>
      <trkpt lat="50.4997" lon="3.45659">
        <ele>16.4</ele>
        <time>2021-09-05T06:51:55.981Z</time>
      </trkpt>
      <trkpt lat="50.49972" lon="3.45641">
        <ele>16.9</ele>
        <time>2021-09-05T06:51:59.163Z</time>
      </trkpt>
      <trkpt lat="50.49973" lon="3.45618">
        <ele>17.7</ele>
        <time>2021-09-05T06:52:02.747Z</time>
      </trkpt>
      <trkpt lat="50.49977" lon="3.45592">
        <ele>18.2</ele>
        <time>2021-09-05T06:52:07.000Z</time>
      </trkpt>
      <trkpt lat="50.49982" lon="3.45568">
        <ele>17.9</ele>
        <time>2021-09-05T06:52:09.992Z</time>
      </trkpt>
      <trkpt lat="50.49986" lon="3.45547">
        <ele>17.4</ele>
        <time>2021-09-05T06:52:14.000Z</time>
      </trkpt>
      <trkpt lat="50.49989" lon="3.45526">
        <ele>16.8</ele>
        <time>2021-09-05T06:52:16.408Z</time>
      </trkpt>
      <trkpt lat="50.49993" lon="3.45505">
        <ele>16.7</ele>
        <time>2021-09-05T06:52:19.868Z</time>
      </trkpt>
      <trkpt lat="50.49995" lon="3.45487">
        <ele>16.9</ele>
        <time>2021-09-05T06:52:24.000Z</time>
      </trkpt>
      <trkpt lat="50.49997" lon="3.45466">
        <ele>17.4</ele>
        <time>2021-09-05T06:52:27.075Z</time>
      </trkpt>
      <trkpt lat="50.5" lon="3.4545">
        <ele>17.8</ele>
        <time>2021-09-05T06:52:31.000Z</time>
      </trkpt>
      <trkpt lat="50.50003" lon="3.4543">
        <ele>18.4</ele>
        <time>2021-09-05T06:52:33.668Z</time>
      </trkpt>
      <trkpt lat="50.50006" lon="3.45413">
        <ele>18.6</ele>
        <time>2021-09-05T06:52:36.711Z</time>
      </trkpt>
      <trkpt lat="50.50007" lon="3.45396">
        <ele>18.5</ele>
        <time>2021-09-05T06:52:40.136Z</time>
      </trkpt>
      <trkpt lat="50.5001" lon="3.45381">
        <ele>18.3</ele>
        <time>2021-09-05T06:52:43.494Z</time>
      </trkpt>
      <trkpt lat="50.50014" lon="3.4537">
        <ele>18</ele>
        <time>2021-09-05T06:52:46.831Z</time>
      </trkpt>
      <trkpt lat="50.50022" lon="3.45366">
        <ele>17.4</ele>
        <time>2021-09-05T06:52:53.465Z</time>
      </trkpt>
      <trkpt lat="50.5003" lon="3.45345">
        <ele>17.6</ele>
        <time>2021-09-05T06:52:57.032Z</time>
      </trkpt>
      <trkpt lat="50.50032" lon="3.45317">
        <ele>18.4</ele>
        <time>2021-09-05T06:53:01.000Z</time>
      </trkpt>
      <trkpt lat="50.50037" lon="3.45285">
        <ele>18.4</ele>
        <time>2021-09-05T06:53:05.000Z</time>
      </trkpt>
      <trkpt lat="50.50042" lon="3.45254">
        <ele>18.4</ele>
        <time>2021-09-05T06:53:09.000Z</time>
      </trkpt>
      <trkpt lat="50.50046" lon="3.4523">
        <ele>19.3</ele>
        <time>2021-09-05T06:53:13.000Z</time>
      </trkpt>
      <trkpt lat="50.50045" lon="3.45204">
        <ele>20.3</ele>
        <time>2021-09-05T06:53:17.000Z</time>
      </trkpt>
      <trkpt lat="50.50032" lon="3.45193">
        <ele>20.1</ele>
        <time>2021-09-05T06:53:19.874Z</time>
      </trkpt>
      <trkpt lat="50.50016" lon="3.45196">
        <ele>19.5</ele>
        <time>2021-09-05T06:53:22.953Z</time>
      </trkpt>
      <trkpt lat="50.50004" lon="3.45196">
        <ele>19.1</ele>
        <time>2021-09-05T06:53:27.000Z</time>
      </trkpt>
      <trkpt lat="50.50017" lon="3.45196">
        <ele>19.6</ele>
        <time>2021-09-05T06:53:32.887Z</time>
      </trkpt>
      <trkpt lat="50.5003" lon="3.452">
        <ele>19.9</ele>
        <time>2021-09-05T06:53:37.000Z</time>
      </trkpt>
      <trkpt lat="50.50045" lon="3.45202">
        <ele>20.3</ele>
        <time>2021-09-05T06:53:41.000Z</time>
      </trkpt>
      <trkpt lat="50.50056" lon="3.45205">
        <ele>20.6</ele>
        <time>2021-09-05T06:53:45.000Z</time>
      </trkpt>
      <trkpt lat="50.50063" lon="3.45211">
        <ele>20.5</ele>
        <time>2021-09-05T06:53:49.000Z</time>
      </trkpt>
      <trkpt lat="50.50071" lon="3.45216">
        <ele>20.5</ele>
        <time>2021-09-05T06:53:52.000Z</time>
      </trkpt>
      <trkpt lat="50.50084" lon="3.45225">
        <ele>20.9</ele>
        <time>2021-09-05T06:53:56.000Z</time>
      </trkpt>
      <trkpt lat="50.50095" lon="3.45217">
        <ele>20.1</ele>
        <time>2021-09-05T06:53:59.000Z</time>
      </trkpt>
      <trkpt lat="50.50097" lon="3.45185">
        <ele>19.3</ele>
        <time>2021-09-05T06:54:02.000Z</time>
      </trkpt>
      <trkpt lat="50.50101" lon="3.45134">
        <ele>18</ele>
        <time>2021-09-05T06:54:06.000Z</time>
      </trkpt>
      <trkpt lat="50.50104" lon="3.45097">
        <ele>18</ele>
        <time>2021-09-05T06:54:09.000Z</time>
      </trkpt>
      <trkpt lat="50.50108" lon="3.45054">
        <ele>18</ele>
        <time>2021-09-05T06:54:13.000Z</time>
      </trkpt>
      <trkpt lat="50.50112" lon="3.45027">
        <ele>18</ele>
        <time>2021-09-05T06:54:16.000Z</time>
      </trkpt>
      <trkpt lat="50.50119" lon="3.44991">
        <ele>18</ele>
        <time>2021-09-05T06:54:20.000Z</time>
      </trkpt>
      <trkpt lat="50.50124" lon="3.44955">
        <ele>18.3</ele>
        <time>2021-09-05T06:54:24.000Z</time>
      </trkpt>
      <trkpt lat="50.50127" lon="3.44927">
        <ele>18.6</ele>
        <time>2021-09-05T06:54:27.000Z</time>
      </trkpt>
      <trkpt lat="50.50131" lon="3.44902">
        <ele>18.7</ele>
        <time>2021-09-05T06:54:30.000Z</time>
      </trkpt>
      <trkpt lat="50.50134" lon="3.44879">
        <ele>18.8</ele>
        <time>2021-09-05T06:54:33.000Z</time>
      </trkpt>
      <trkpt lat="50.50144" lon="3.44854">
        <ele>18.8</ele>
        <time>2021-09-05T06:54:37.000Z</time>
      </trkpt>
      <trkpt lat="50.50155" lon="3.44829">
        <ele>18.4</ele>
        <time>2021-09-05T06:54:41.000Z</time>
      </trkpt>
      <trkpt lat="50.50162" lon="3.4481">
        <ele>17.9</ele>
        <time>2021-09-05T06:54:44.000Z</time>
      </trkpt>
      <trkpt lat="50.50161" lon="3.44782">
        <ele>17.6</ele>
        <time>2021-09-05T06:54:47.000Z</time>
      </trkpt>
      <trkpt lat="50.50167" lon="3.44752">
        <ele>17.1</ele>
        <time>2021-09-05T06:54:50.000Z</time>
      </trkpt>
      <trkpt lat="50.50173" lon="3.44718">
        <ele>17.2</ele>
        <time>2021-09-05T06:54:54.000Z</time>
      </trkpt>
      <trkpt lat="50.5018" lon="3.44684">
        <ele>17.5</ele>
        <time>2021-09-05T06:54:58.000Z</time>
      </trkpt>
      <trkpt lat="50.50185" lon="3.44661">
        <ele>17.5</ele>
        <time>2021-09-05T06:55:01.000Z</time>
      </trkpt>
      <trkpt lat="50.50191" lon="3.44632">
        <ele>17</ele>
        <time>2021-09-05T06:55:05.000Z</time>
      </trkpt>
      <trkpt lat="50.50196" lon="3.44604">
        <ele>17.1</ele>
        <time>2021-09-05T06:55:09.000Z</time>
      </trkpt>
      <trkpt lat="50.50201" lon="3.44586">
        <ele>17.2</ele>
        <time>2021-09-05T06:55:12.000Z</time>
      </trkpt>
      <trkpt lat="50.50207" lon="3.44557">
        <ele>16.9</ele>
        <time>2021-09-05T06:55:16.000Z</time>
      </trkpt>
      <trkpt lat="50.50212" lon="3.44541">
        <ele>16.9</ele>
        <time>2021-09-05T06:55:19.000Z</time>
      </trkpt>
      <trkpt lat="50.50217" lon="3.4452">
        <ele>16.8</ele>
        <time>2021-09-05T06:55:21.501Z</time>
      </trkpt>
      <trkpt lat="50.50224" lon="3.445">
        <ele>17.1</ele>
        <time>2021-09-05T06:55:24.963Z</time>
      </trkpt>
      <trkpt lat="50.50233" lon="3.44487">
        <ele>17.4</ele>
        <time>2021-09-05T06:55:29.000Z</time>
      </trkpt>
      <trkpt lat="50.50245" lon="3.44487">
        <ele>17.8</ele>
        <time>2021-09-05T06:55:31.903Z</time>
      </trkpt>
      <trkpt lat="50.50253" lon="3.44488">
        <ele>18.1</ele>
        <time>2021-09-05T06:55:35.039Z</time>
      </trkpt>
      <trkpt lat="50.50259" lon="3.4448">
        <ele>18.3</ele>
        <time>2021-09-05T06:55:38.059Z</time>
      </trkpt>
      <trkpt lat="50.50263" lon="3.44466">
        <ele>18.2</ele>
        <time>2021-09-05T06:55:41.381Z</time>
      </trkpt>
      <trkpt lat="50.50268" lon="3.44447">
        <ele>18</ele>
        <time>2021-09-05T06:55:46.000Z</time>
      </trkpt>
      <trkpt lat="50.50274" lon="3.44428">
        <ele>18.6</ele>
        <time>2021-09-05T06:55:50.000Z</time>
      </trkpt>
      <trkpt lat="50.5028" lon="3.44409">
        <ele>19</ele>
        <time>2021-09-05T06:55:52.985Z</time>
      </trkpt>
      <trkpt lat="50.50285" lon="3.44394">
        <ele>19.2</ele>
        <time>2021-09-05T06:55:57.000Z</time>
      </trkpt>
      <trkpt lat="50.50289" lon="3.44378">
        <ele>19.4</ele>
        <time>2021-09-05T06:55:59.438Z</time>
      </trkpt>
      <trkpt lat="50.50293" lon="3.44363">
        <ele>19.8</ele>
        <time>2021-09-05T06:56:02.544Z</time>
      </trkpt>
      <trkpt lat="50.50297" lon="3.44347">
        <ele>19.1</ele>
        <time>2021-09-05T06:56:05.838Z</time>
      </trkpt>
      <trkpt lat="50.50302" lon="3.44332">
        <ele>18.4</ele>
        <time>2021-09-05T06:56:10.000Z</time>
      </trkpt>
      <trkpt lat="50.50308" lon="3.44316">
        <ele>18.7</ele>
        <time>2021-09-05T06:56:12.339Z</time>
      </trkpt>
      <trkpt lat="50.50316" lon="3.44298">
        <ele>19.1</ele>
        <time>2021-09-05T06:56:16.026Z</time>
      </trkpt>
      <trkpt lat="50.50324" lon="3.4428">
        <ele>19.4</ele>
        <time>2021-09-05T06:56:19.506Z</time>
      </trkpt>
      <trkpt lat="50.50331" lon="3.44262">
        <ele>19</ele>
        <time>2021-09-05T06:56:23.064Z</time>
      </trkpt>
      <trkpt lat="50.50337" lon="3.44246">
        <ele>18.4</ele>
        <time>2021-09-05T06:56:27.000Z</time>
      </trkpt>
      <trkpt lat="50.50345" lon="3.44225">
        <ele>19.5</ele>
        <time>2021-09-05T06:56:31.000Z</time>
      </trkpt>
      <trkpt lat="50.50352" lon="3.44209">
        <ele>19.8</ele>
        <time>2021-09-05T06:56:33.306Z</time>
      </trkpt>
      <trkpt lat="50.50359" lon="3.44193">
        <ele>19.5</ele>
        <time>2021-09-05T06:56:36.862Z</time>
      </trkpt>
      <trkpt lat="50.50366" lon="3.44177">
        <ele>19.1</ele>
        <time>2021-09-05T06:56:41.000Z</time>
      </trkpt>
      <trkpt lat="50.50374" lon="3.4416">
        <ele>18.6</ele>
        <time>2021-09-05T06:56:43.344Z</time>
      </trkpt>
      <trkpt lat="50.50383" lon="3.44141">
        <ele>18.5</ele>
        <time>2021-09-05T06:56:46.861Z</time>
      </trkpt>
      <trkpt lat="50.50389" lon="3.44125">
        <ele>18.5</ele>
        <time>2021-09-05T06:56:49.924Z</time>
      </trkpt>
      <trkpt lat="50.50397" lon="3.4411">
        <ele>18.8</ele>
        <time>2021-09-05T06:56:53.142Z</time>
      </trkpt>
      <trkpt lat="50.50405" lon="3.4409">
        <ele>17.8</ele>
        <time>2021-09-05T06:56:57.080Z</time>
      </trkpt>
      <trkpt lat="50.50412" lon="3.44074">
        <ele>17.6</ele>
        <time>2021-09-05T06:57:01.000Z</time>
      </trkpt>
      <trkpt lat="50.50421" lon="3.44055">
        <ele>17.7</ele>
        <time>2021-09-05T06:57:03.665Z</time>
      </trkpt>
      <trkpt lat="50.50429" lon="3.44037">
        <ele>17</ele>
        <time>2021-09-05T06:57:06.920Z</time>
      </trkpt>
      <trkpt lat="50.50436" lon="3.4402">
        <ele>17.3</ele>
        <time>2021-09-05T06:57:10.019Z</time>
      </trkpt>
      <trkpt lat="50.50445" lon="3.44005">
        <ele>18</ele>
        <time>2021-09-05T06:57:13.125Z</time>
      </trkpt>
      <trkpt lat="50.50455" lon="3.43988">
        <ele>17.8</ele>
        <time>2021-09-05T06:57:16.837Z</time>
      </trkpt>
      <trkpt lat="50.50463" lon="3.43974">
        <ele>18</ele>
        <time>2021-09-05T06:57:21.000Z</time>
      </trkpt>
      <trkpt lat="50.50471" lon="3.4396">
        <ele>18.4</ele>
        <time>2021-09-05T06:57:23.638Z</time>
      </trkpt>
      <trkpt lat="50.50479" lon="3.43946">
        <ele>18.8</ele>
        <time>2021-09-05T06:57:26.765Z</time>
      </trkpt>
      <trkpt lat="50.50487" lon="3.43931">
        <ele>18.6</ele>
        <time>2021-09-05T06:57:31.000Z</time>
      </trkpt>
      <trkpt lat="50.50495" lon="3.43918">
        <ele>18.6</ele>
        <time>2021-09-05T06:57:33.507Z</time>
      </trkpt>
      <trkpt lat="50.50503" lon="3.43903">
        <ele>18.9</ele>
        <time>2021-09-05T06:57:36.841Z</time>
      </trkpt>
      <trkpt lat="50.50511" lon="3.4389">
        <ele>19.6</ele>
        <time>2021-09-05T06:57:40.060Z</time>
      </trkpt>
      <trkpt lat="50.50521" lon="3.43876">
        <ele>20</ele>
        <time>2021-09-05T06:57:44.000Z</time>
      </trkpt>
      <trkpt lat="50.50525" lon="3.43858">
        <ele>19.3</ele>
        <time>2021-09-05T06:57:46.555Z</time>
      </trkpt>
      <trkpt lat="50.50532" lon="3.43839">
        <ele>19</ele>
        <time>2021-09-05T06:57:49.755Z</time>
      </trkpt>
      <trkpt lat="50.50541" lon="3.4382">
        <ele>18.9</ele>
        <time>2021-09-05T06:57:54.000Z</time>
      </trkpt>
      <trkpt lat="50.5055" lon="3.43807">
        <ele>19.3</ele>
        <time>2021-09-05T06:57:57.000Z</time>
      </trkpt>
      <trkpt lat="50.50558" lon="3.43793">
        <ele>19.3</ele>
        <time>2021-09-05T06:58:00.000Z</time>
      </trkpt>
      <trkpt lat="50.50568" lon="3.43777">
        <ele>19.3</ele>
        <time>2021-09-05T06:58:02.611Z</time>
      </trkpt>
      <trkpt lat="50.50577" lon="3.43764">
        <ele>18.8</ele>
        <time>2021-09-05T06:58:05.677Z</time>
      </trkpt>
      <trkpt lat="50.50586" lon="3.4375">
        <ele>18.3</ele>
        <time>2021-09-05T06:58:08.712Z</time>
      </trkpt>
      <trkpt lat="50.50597" lon="3.43735">
        <ele>18.7</ele>
        <time>2021-09-05T06:58:12.099Z</time>
      </trkpt>
      <trkpt lat="50.50606" lon="3.43721">
        <ele>18.6</ele>
        <time>2021-09-05T06:58:16.000Z</time>
      </trkpt>
      <trkpt lat="50.50616" lon="3.43707">
        <ele>18.7</ele>
        <time>2021-09-05T06:58:18.573Z</time>
      </trkpt>
      <trkpt lat="50.50627" lon="3.43693">
        <ele>18.5</ele>
        <time>2021-09-05T06:58:23.000Z</time>
      </trkpt>
      <trkpt lat="50.50636" lon="3.43679">
        <ele>18.3</ele>
        <time>2021-09-05T06:58:25.374Z</time>
      </trkpt>
      <trkpt lat="50.50646" lon="3.43665">
        <ele>18.7</ele>
        <time>2021-09-05T06:58:28.558Z</time>
      </trkpt>
      <trkpt lat="50.50655" lon="3.4365">
        <ele>18.4</ele>
        <time>2021-09-05T06:58:31.857Z</time>
      </trkpt>
      <trkpt lat="50.50664" lon="3.43636">
        <ele>17.9</ele>
        <time>2021-09-05T06:58:34.974Z</time>
      </trkpt>
      <trkpt lat="50.50674" lon="3.43622">
        <ele>18.5</ele>
        <time>2021-09-05T06:58:39.000Z</time>
      </trkpt>
      <trkpt lat="50.50683" lon="3.43609">
        <ele>19.1</ele>
        <time>2021-09-05T06:58:42.000Z</time>
      </trkpt>
      <trkpt lat="50.50693" lon="3.43593">
        <ele>19.2</ele>
        <time>2021-09-05T06:58:45.097Z</time>
      </trkpt>
      <trkpt lat="50.50701" lon="3.4358">
        <ele>19</ele>
        <time>2021-09-05T06:58:49.000Z</time>
      </trkpt>
      <trkpt lat="50.50711" lon="3.43565">
        <ele>18.3</ele>
        <time>2021-09-05T06:58:51.832Z</time>
      </trkpt>
      <trkpt lat="50.5072" lon="3.43549">
        <ele>17.9</ele>
        <time>2021-09-05T06:58:56.000Z</time>
      </trkpt>
      <trkpt lat="50.50728" lon="3.43535">
        <ele>18.3</ele>
        <time>2021-09-05T06:58:59.000Z</time>
      </trkpt>
      <trkpt lat="50.50735" lon="3.43521">
        <ele>18.1</ele>
        <time>2021-09-05T06:59:02.000Z</time>
      </trkpt>
      <trkpt lat="50.50743" lon="3.43508">
        <ele>17.9</ele>
        <time>2021-09-05T06:59:05.000Z</time>
      </trkpt>
      <trkpt lat="50.50753" lon="3.43493">
        <ele>18</ele>
        <time>2021-09-05T06:59:07.550Z</time>
      </trkpt>
      <trkpt lat="50.50762" lon="3.43478">
        <ele>18.4</ele>
        <time>2021-09-05T06:59:10.796Z</time>
      </trkpt>
      <trkpt lat="50.5077" lon="3.43465">
        <ele>18.6</ele>
        <time>2021-09-05T06:59:13.819Z</time>
      </trkpt>
      <trkpt lat="50.50778" lon="3.43452">
        <ele>18.6</ele>
        <time>2021-09-05T06:59:17.038Z</time>
      </trkpt>
      <trkpt lat="50.50788" lon="3.43436">
        <ele>18.1</ele>
        <time>2021-09-05T06:59:20.713Z</time>
      </trkpt>
      <trkpt lat="50.50797" lon="3.4342">
        <ele>17.6</ele>
        <time>2021-09-05T06:59:25.000Z</time>
      </trkpt>
      <trkpt lat="50.50805" lon="3.43406">
        <ele>18</ele>
        <time>2021-09-05T06:59:28.000Z</time>
      </trkpt>
      <trkpt lat="50.50814" lon="3.4339">
        <ele>18.6</ele>
        <time>2021-09-05T06:59:30.696Z</time>
      </trkpt>
      <trkpt lat="50.50824" lon="3.43377">
        <ele>18.3</ele>
        <time>2021-09-05T06:59:35.000Z</time>
      </trkpt>
      <trkpt lat="50.50833" lon="3.43365">
        <ele>18.2</ele>
        <time>2021-09-05T06:59:38.000Z</time>
      </trkpt>
      <trkpt lat="50.50842" lon="3.4335">
        <ele>18.2</ele>
        <time>2021-09-05T06:59:42.000Z</time>
      </trkpt>
      <trkpt lat="50.50847" lon="3.43342">
        <ele>18.3</ele>
        <time>2021-09-05T06:59:45.000Z</time>
      </trkpt>
      <trkpt lat="50.50854" lon="3.43342">
        <ele>18.8</ele>
        <time>2021-09-05T06:59:56.000Z</time>
      </trkpt>
      <trkpt lat="50.50859" lon="3.43333">
        <ele>18.8</ele>
        <time>2021-09-05T06:59:58.671Z</time>
      </trkpt>
      <trkpt lat="50.50866" lon="3.43324">
        <ele>18.8</ele>
        <time>2021-09-05T07:00:03.000Z</time>
      </trkpt>
      <trkpt lat="50.50871" lon="3.43315">
        <ele>18.7</ele>
        <time>2021-09-05T07:00:06.000Z</time>
      </trkpt>
      <trkpt lat="50.50875" lon="3.43306">
        <ele>18.5</ele>
        <time>2021-09-05T07:00:09.000Z</time>
      </trkpt>
      <trkpt lat="50.50881" lon="3.43293">
        <ele>18.1</ele>
        <time>2021-09-05T07:00:11.618Z</time>
      </trkpt>
      <trkpt lat="50.50889" lon="3.43278">
        <ele>18</ele>
        <time>2021-09-05T07:00:15.036Z</time>
      </trkpt>
      <trkpt lat="50.50896" lon="3.43265">
        <ele>18.1</ele>
        <time>2021-09-05T07:00:19.000Z</time>
      </trkpt>
      <trkpt lat="50.50903" lon="3.43253">
        <ele>18.1</ele>
        <time>2021-09-05T07:00:21.137Z</time>
      </trkpt>
      <trkpt lat="50.50913" lon="3.43236">
        <ele>18.2</ele>
        <time>2021-09-05T07:00:26.000Z</time>
      </trkpt>
      <trkpt lat="50.5092" lon="3.43225">
        <ele>18.3</ele>
        <time>2021-09-05T07:00:29.000Z</time>
      </trkpt>
      <trkpt lat="50.50929" lon="3.4321">
        <ele>18.2</ele>
        <time>2021-09-05T07:00:33.000Z</time>
      </trkpt>
      <trkpt lat="50.50938" lon="3.43197">
        <ele>18.4</ele>
        <time>2021-09-05T07:00:35.233Z</time>
      </trkpt>
      <trkpt lat="50.50948" lon="3.43181">
        <ele>18.7</ele>
        <time>2021-09-05T07:00:40.000Z</time>
      </trkpt>
      <trkpt lat="50.50958" lon="3.43163">
        <ele>18.6</ele>
        <time>2021-09-05T07:00:44.000Z</time>
      </trkpt>
      <trkpt lat="50.50967" lon="3.43149">
        <ele>18.2</ele>
        <time>2021-09-05T07:00:46.479Z</time>
      </trkpt>
      <trkpt lat="50.50978" lon="3.43134">
        <ele>18.1</ele>
        <time>2021-09-05T07:00:51.000Z</time>
      </trkpt>
      <trkpt lat="50.50987" lon="3.43119">
        <ele>18</ele>
        <time>2021-09-05T07:00:53.537Z</time>
      </trkpt>
      <trkpt lat="50.50995" lon="3.43106">
        <ele>18.3</ele>
        <time>2021-09-05T07:00:56.733Z</time>
      </trkpt>
      <trkpt lat="50.51005" lon="3.43091">
        <ele>18.5</ele>
        <time>2021-09-05T07:01:01.000Z</time>
      </trkpt>
      <trkpt lat="50.51013" lon="3.43078">
        <ele>18.1</ele>
        <time>2021-09-05T07:01:04.000Z</time>
      </trkpt>
      <trkpt lat="50.51023" lon="3.43063">
        <ele>17.8</ele>
        <time>2021-09-05T07:01:06.771Z</time>
      </trkpt>
      <trkpt lat="50.51034" lon="3.43048">
        <ele>17.8</ele>
        <time>2021-09-05T07:01:11.000Z</time>
      </trkpt>
      <trkpt lat="50.51043" lon="3.43034">
        <ele>17.8</ele>
        <time>2021-09-05T07:01:13.498Z</time>
      </trkpt>
      <trkpt lat="50.51052" lon="3.43022">
        <ele>18.4</ele>
        <time>2021-09-05T07:01:16.757Z</time>
      </trkpt>
      <trkpt lat="50.51062" lon="3.43009">
        <ele>18.6</ele>
        <time>2021-09-05T07:01:19.955Z</time>
      </trkpt>
      <trkpt lat="50.51071" lon="3.42996">
        <ele>18.8</ele>
        <time>2021-09-05T07:01:23.014Z</time>
      </trkpt>
      <trkpt lat="50.51081" lon="3.42982">
        <ele>19.1</ele>
        <time>2021-09-05T07:01:27.000Z</time>
      </trkpt>
      <trkpt lat="50.51092" lon="3.42963">
        <ele>18.9</ele>
        <time>2021-09-05T07:01:29.817Z</time>
      </trkpt>
      <trkpt lat="50.51102" lon="3.42947">
        <ele>19.1</ele>
        <time>2021-09-05T07:01:33.137Z</time>
      </trkpt>
      <trkpt lat="50.5111" lon="3.42931">
        <ele>18.9</ele>
        <time>2021-09-05T07:01:36.299Z</time>
      </trkpt>
      <trkpt lat="50.51121" lon="3.42914">
        <ele>18.6</ele>
        <time>2021-09-05T07:01:41.000Z</time>
      </trkpt>
      <trkpt lat="50.51131" lon="3.42899">
        <ele>18.6</ele>
        <time>2021-09-05T07:01:43.878Z</time>
      </trkpt>
      <trkpt lat="50.51141" lon="3.42887">
        <ele>19</ele>
        <time>2021-09-05T07:01:48.000Z</time>
      </trkpt>
      <trkpt lat="50.51148" lon="3.42872">
        <ele>18.5</ele>
        <time>2021-09-05T07:01:51.000Z</time>
      </trkpt>
      <trkpt lat="50.51156" lon="3.42857">
        <ele>18.6</ele>
        <time>2021-09-05T07:01:53.375Z</time>
      </trkpt>
      <trkpt lat="50.51165" lon="3.42841">
        <ele>18.4</ele>
        <time>2021-09-05T07:01:58.000Z</time>
      </trkpt>
      <trkpt lat="50.51176" lon="3.42825">
        <ele>17.9</ele>
        <time>2021-09-05T07:02:02.000Z</time>
      </trkpt>
      <trkpt lat="50.51184" lon="3.42813">
        <ele>18.1</ele>
        <time>2021-09-05T07:02:05.000Z</time>
      </trkpt>
      <trkpt lat="50.51193" lon="3.42796">
        <ele>18.5</ele>
        <time>2021-09-05T07:02:09.000Z</time>
      </trkpt>
      <trkpt lat="50.51201" lon="3.42786">
        <ele>18.3</ele>
        <time>2021-09-05T07:02:12.000Z</time>
      </trkpt>
      <trkpt lat="50.51212" lon="3.42771">
        <ele>18.2</ele>
        <time>2021-09-05T07:02:16.000Z</time>
      </trkpt>
      <trkpt lat="50.51219" lon="3.4276">
        <ele>18.1</ele>
        <time>2021-09-05T07:02:19.000Z</time>
      </trkpt>
      <trkpt lat="50.51229" lon="3.42744">
        <ele>17.7</ele>
        <time>2021-09-05T07:02:21.955Z</time>
      </trkpt>
      <trkpt lat="50.51237" lon="3.42731">
        <ele>17.9</ele>
        <time>2021-09-05T07:02:26.000Z</time>
      </trkpt>
      <trkpt lat="50.51247" lon="3.42713">
        <ele>18.4</ele>
        <time>2021-09-05T07:02:29.097Z</time>
      </trkpt>
      <trkpt lat="50.51257" lon="3.42698">
        <ele>18.3</ele>
        <time>2021-09-05T07:02:32.399Z</time>
      </trkpt>
      <trkpt lat="50.51267" lon="3.42682">
        <ele>17.8</ele>
        <time>2021-09-05T07:02:35.736Z</time>
      </trkpt>
      <trkpt lat="50.51274" lon="3.42665">
        <ele>17.5</ele>
        <time>2021-09-05T07:02:40.000Z</time>
      </trkpt>
      <trkpt lat="50.5129" lon="3.42651">
        <ele>17.8</ele>
        <time>2021-09-05T07:02:43.105Z</time>
      </trkpt>
      <trkpt lat="50.51301" lon="3.42641">
        <ele>18.5</ele>
        <time>2021-09-05T07:02:47.000Z</time>
      </trkpt>
      <trkpt lat="50.51311" lon="3.42619">
        <ele>17.8</ele>
        <time>2021-09-05T07:02:49.581Z</time>
      </trkpt>
      <trkpt lat="50.5132" lon="3.42604">
        <ele>17.7</ele>
        <time>2021-09-05T07:02:52.595Z</time>
      </trkpt>
      <trkpt lat="50.51332" lon="3.4259">
        <ele>18.1</ele>
        <time>2021-09-05T07:02:57.000Z</time>
      </trkpt>
      <trkpt lat="50.51346" lon="3.42576">
        <ele>18.2</ele>
        <time>2021-09-05T07:02:59.676Z</time>
      </trkpt>
      <trkpt lat="50.51356" lon="3.42565">
        <ele>18.2</ele>
        <time>2021-09-05T07:03:02.859Z</time>
      </trkpt>
      <trkpt lat="50.51366" lon="3.42554">
        <ele>18.2</ele>
        <time>2021-09-05T07:03:07.000Z</time>
      </trkpt>
      <trkpt lat="50.51377" lon="3.42544">
        <ele>18.1</ele>
        <time>2021-09-05T07:03:10.000Z</time>
      </trkpt>
      <trkpt lat="50.51389" lon="3.42531">
        <ele>18.2</ele>
        <time>2021-09-05T07:03:13.000Z</time>
      </trkpt>
      <trkpt lat="50.51401" lon="3.42517">
        <ele>18.1</ele>
        <time>2021-09-05T07:03:15.599Z</time>
      </trkpt>
      <trkpt lat="50.51409" lon="3.42506">
        <ele>17.9</ele>
        <time>2021-09-05T07:03:20.000Z</time>
      </trkpt>
      <trkpt lat="50.51424" lon="3.42495">
        <ele>18.1</ele>
        <time>2021-09-05T07:03:22.542Z</time>
      </trkpt>
      <trkpt lat="50.51439" lon="3.42482">
        <ele>18.7</ele>
        <time>2021-09-05T07:03:27.000Z</time>
      </trkpt>
      <trkpt lat="50.51457" lon="3.42467">
        <ele>18.6</ele>
        <time>2021-09-05T07:03:31.000Z</time>
      </trkpt>
      <trkpt lat="50.51474" lon="3.4245">
        <ele>18.1</ele>
        <time>2021-09-05T07:03:35.000Z</time>
      </trkpt>
      <trkpt lat="50.51487" lon="3.4244">
        <ele>17.3</ele>
        <time>2021-09-05T07:03:38.000Z</time>
      </trkpt>
      <trkpt lat="50.51506" lon="3.42421">
        <ele>17.8</ele>
        <time>2021-09-05T07:03:42.000Z</time>
      </trkpt>
      <trkpt lat="50.5152" lon="3.42412">
        <ele>17.7</ele>
        <time>2021-09-05T07:03:45.000Z</time>
      </trkpt>
      <trkpt lat="50.51533" lon="3.42403">
        <ele>17.5</ele>
        <time>2021-09-05T07:03:48.000Z</time>
      </trkpt>
      <trkpt lat="50.51545" lon="3.4239">
        <ele>17.6</ele>
        <time>2021-09-05T07:03:51.000Z</time>
      </trkpt>
      <trkpt lat="50.5156" lon="3.42375">
        <ele>17.9</ele>
        <time>2021-09-05T07:03:55.000Z</time>
      </trkpt>
      <trkpt lat="50.51569" lon="3.42369">
        <ele>18.8</ele>
        <time>2021-09-05T07:03:58.000Z</time>
      </trkpt>
      <trkpt lat="50.51577" lon="3.42362">
        <ele>20</ele>
        <time>2021-09-05T07:04:02.000Z</time>
      </trkpt>
      <trkpt lat="50.51584" lon="3.42358">
        <ele>20.7</ele>
        <time>2021-09-05T07:04:06.000Z</time>
      </trkpt>
      <trkpt lat="50.51589" lon="3.42353">
        <ele>20.2</ele>
        <time>2021-09-05T07:04:09.000Z</time>
      </trkpt>
      <trkpt lat="50.51593" lon="3.42347">
        <ele>19.8</ele>
        <time>2021-09-05T07:04:12.000Z</time>
      </trkpt>
      <trkpt lat="50.51599" lon="3.4235">
        <ele>19.7</ele>
        <time>2021-09-05T07:04:15.000Z</time>
      </trkpt>
      <trkpt lat="50.51585" lon="3.42354">
        <ele>20.4</ele>
        <time>2021-09-05T07:04:28.000Z</time>
      </trkpt>
      <trkpt lat="50.5157" lon="3.4237">
        <ele>18.9</ele>
        <time>2021-09-05T07:04:31.000Z</time>
      </trkpt>
      <trkpt lat="50.51562" lon="3.42379">
        <ele>18.1</ele>
        <time>2021-09-05T07:04:35.000Z</time>
      </trkpt>
      <trkpt lat="50.51557" lon="3.4237">
        <ele>17.5</ele>
        <time>2021-09-05T07:04:38.000Z</time>
      </trkpt>
      <trkpt lat="50.51565" lon="3.42357">
        <ele>18.1</ele>
        <time>2021-09-05T07:04:42.000Z</time>
      </trkpt>
      <trkpt lat="50.51576" lon="3.42339">
        <ele>18.4</ele>
        <time>2021-09-05T07:04:46.000Z</time>
      </trkpt>
      <trkpt lat="50.51584" lon="3.42328">
        <ele>18.8</ele>
        <time>2021-09-05T07:04:49.000Z</time>
      </trkpt>
      <trkpt lat="50.51598" lon="3.42317">
        <ele>18.3</ele>
        <time>2021-09-05T07:04:51.758Z</time>
      </trkpt>
      <trkpt lat="50.5161" lon="3.42309">
        <ele>17.4</ele>
        <time>2021-09-05T07:04:56.000Z</time>
      </trkpt>
      <trkpt lat="50.51626" lon="3.42304">
        <ele>16.9</ele>
        <time>2021-09-05T07:05:00.000Z</time>
      </trkpt>
      <trkpt lat="50.51639" lon="3.42305">
        <ele>17</ele>
        <time>2021-09-05T07:05:02.545Z</time>
      </trkpt>
      <trkpt lat="50.51653" lon="3.42304">
        <ele>17.4</ele>
        <time>2021-09-05T07:05:05.859Z</time>
      </trkpt>
      <trkpt lat="50.51667" lon="3.42302">
        <ele>17.6</ele>
        <time>2021-09-05T07:05:09.142Z</time>
      </trkpt>
      <trkpt lat="50.51681" lon="3.42295">
        <ele>17.4</ele>
        <time>2021-09-05T07:05:12.658Z</time>
      </trkpt>
      <trkpt lat="50.51695" lon="3.42289">
        <ele>18</ele>
        <time>2021-09-05T07:05:15.841Z</time>
      </trkpt>
      <trkpt lat="50.51708" lon="3.42283">
        <ele>18</ele>
        <time>2021-09-05T07:05:19.042Z</time>
      </trkpt>
      <trkpt lat="50.5172" lon="3.42278">
        <ele>18</ele>
        <time>2021-09-05T07:05:23.000Z</time>
      </trkpt>
      <trkpt lat="50.51736" lon="3.42272">
        <ele>17.8</ele>
        <time>2021-09-05T07:05:27.000Z</time>
      </trkpt>
      <trkpt lat="50.51747" lon="3.42269">
        <ele>17.7</ele>
        <time>2021-09-05T07:05:30.000Z</time>
      </trkpt>
      <trkpt lat="50.51763" lon="3.42264">
        <ele>17.5</ele>
        <time>2021-09-05T07:05:34.000Z</time>
      </trkpt>
      <trkpt lat="50.51778" lon="3.42262">
        <ele>17.4</ele>
        <time>2021-09-05T07:05:36.657Z</time>
      </trkpt>
      <trkpt lat="50.51792" lon="3.42259">
        <ele>17.5</ele>
        <time>2021-09-05T07:05:40.100Z</time>
      </trkpt>
      <trkpt lat="50.51804" lon="3.42255">
        <ele>17.8</ele>
        <time>2021-09-05T07:05:44.000Z</time>
      </trkpt>
      <trkpt lat="50.51819" lon="3.42252">
        <ele>17.9</ele>
        <time>2021-09-05T07:05:46.903Z</time>
      </trkpt>
      <trkpt lat="50.51831" lon="3.4225">
        <ele>18</ele>
        <time>2021-09-05T07:05:51.000Z</time>
      </trkpt>
      <trkpt lat="50.51846" lon="3.42249">
        <ele>18</ele>
        <time>2021-09-05T07:05:54.098Z</time>
      </trkpt>
      <trkpt lat="50.51856" lon="3.42247">
        <ele>17.9</ele>
        <time>2021-09-05T07:05:58.000Z</time>
      </trkpt>
      <trkpt lat="50.51868" lon="3.42245">
        <ele>17.8</ele>
        <time>2021-09-05T07:06:01.000Z</time>
      </trkpt>
      <trkpt lat="50.51884" lon="3.42245">
        <ele>17.8</ele>
        <time>2021-09-05T07:06:04.532Z</time>
      </trkpt>
      <trkpt lat="50.51894" lon="3.42247">
        <ele>17.9</ele>
        <time>2021-09-05T07:06:08.000Z</time>
      </trkpt>
      <trkpt lat="50.51905" lon="3.42249">
        <ele>17.9</ele>
        <time>2021-09-05T07:06:11.000Z</time>
      </trkpt>
      <trkpt lat="50.51915" lon="3.42251">
        <ele>18</ele>
        <time>2021-09-05T07:06:14.000Z</time>
      </trkpt>
      <trkpt lat="50.51926" lon="3.42252">
        <ele>17.6</ele>
        <time>2021-09-05T07:06:17.000Z</time>
      </trkpt>
      <trkpt lat="50.51942" lon="3.42252">
        <ele>17.1</ele>
        <time>2021-09-05T07:06:20.303Z</time>
      </trkpt>
      <trkpt lat="50.51953" lon="3.42252">
        <ele>17</ele>
        <time>2021-09-05T07:06:23.370Z</time>
      </trkpt>
      <trkpt lat="50.51967" lon="3.42262">
        <ele>17.4</ele>
        <time>2021-09-05T07:06:27.000Z</time>
      </trkpt>
      <trkpt lat="50.51992" lon="3.42263">
        <ele>17.1</ele>
        <time>2021-09-05T07:06:31.000Z</time>
      </trkpt>
      <trkpt lat="50.52008" lon="3.4227">
        <ele>17.4</ele>
        <time>2021-09-05T07:06:34.000Z</time>
      </trkpt>
      <trkpt lat="50.52025" lon="3.42276">
        <ele>17.8</ele>
        <time>2021-09-05T07:06:37.378Z</time>
      </trkpt>
      <trkpt lat="50.52038" lon="3.4228">
        <ele>17.6</ele>
        <time>2021-09-05T07:06:40.742Z</time>
      </trkpt>
      <trkpt lat="50.5205" lon="3.42284">
        <ele>17.2</ele>
        <time>2021-09-05T07:06:44.337Z</time>
      </trkpt>
      <trkpt lat="50.52061" lon="3.42291">
        <ele>17</ele>
        <time>2021-09-05T07:06:48.000Z</time>
      </trkpt>
      <trkpt lat="50.52072" lon="3.42295">
        <ele>17.1</ele>
        <time>2021-09-05T07:06:50.800Z</time>
      </trkpt>
      <trkpt lat="50.52085" lon="3.42301">
        <ele>17.6</ele>
        <time>2021-09-05T07:06:55.000Z</time>
      </trkpt>
      <trkpt lat="50.52095" lon="3.42306">
        <ele>17.6</ele>
        <time>2021-09-05T07:06:58.000Z</time>
      </trkpt>
      <trkpt lat="50.52107" lon="3.42312">
        <ele>17.1</ele>
        <time>2021-09-05T07:07:01.000Z</time>
      </trkpt>
      <trkpt lat="50.52118" lon="3.42319">
        <ele>17</ele>
        <time>2021-09-05T07:07:04.000Z</time>
      </trkpt>
      <trkpt lat="50.52133" lon="3.42328">
        <ele>17.5</ele>
        <time>2021-09-05T07:07:08.000Z</time>
      </trkpt>
      <trkpt lat="50.52146" lon="3.42337">
        <ele>17.5</ele>
        <time>2021-09-05T07:07:12.000Z</time>
      </trkpt>
      <trkpt lat="50.52159" lon="3.42347">
        <ele>17.1</ele>
        <time>2021-09-05T07:07:15.276Z</time>
      </trkpt>
      <trkpt lat="50.52172" lon="3.42355">
        <ele>17.4</ele>
        <time>2021-09-05T07:07:19.000Z</time>
      </trkpt>
      <trkpt lat="50.52187" lon="3.42365">
        <ele>17.4</ele>
        <time>2021-09-05T07:07:22.379Z</time>
      </trkpt>
      <trkpt lat="50.522" lon="3.42375">
        <ele>17.3</ele>
        <time>2021-09-05T07:07:26.000Z</time>
      </trkpt>
      <trkpt lat="50.52214" lon="3.42375">
        <ele>16.8</ele>
        <time>2021-09-05T07:07:30.000Z</time>
      </trkpt>
      <trkpt lat="50.52229" lon="3.42396">
        <ele>17.5</ele>
        <time>2021-09-05T07:07:33.000Z</time>
      </trkpt>
      <trkpt lat="50.52245" lon="3.42411">
        <ele>17.5</ele>
        <time>2021-09-05T07:07:37.000Z</time>
      </trkpt>
      <trkpt lat="50.52257" lon="3.42423">
        <ele>17.4</ele>
        <time>2021-09-05T07:07:40.000Z</time>
      </trkpt>
      <trkpt lat="50.5227" lon="3.42437">
        <ele>17.4</ele>
        <time>2021-09-05T07:07:43.623Z</time>
      </trkpt>
      <trkpt lat="50.52281" lon="3.42447">
        <ele>17.7</ele>
        <time>2021-09-05T07:07:47.000Z</time>
      </trkpt>
      <trkpt lat="50.52293" lon="3.42462">
        <ele>17</ele>
        <time>2021-09-05T07:07:50.250Z</time>
      </trkpt>
      <trkpt lat="50.52304" lon="3.42473">
        <ele>17.1</ele>
        <time>2021-09-05T07:07:54.000Z</time>
      </trkpt>
      <trkpt lat="50.52315" lon="3.42485">
        <ele>16.8</ele>
        <time>2021-09-05T07:07:56.844Z</time>
      </trkpt>
      <trkpt lat="50.52326" lon="3.42497">
        <ele>16.4</ele>
        <time>2021-09-05T07:08:00.082Z</time>
      </trkpt>
      <trkpt lat="50.52336" lon="3.4251">
        <ele>16.6</ele>
        <time>2021-09-05T07:08:04.000Z</time>
      </trkpt>
      <trkpt lat="50.52345" lon="3.42522">
        <ele>16.8</ele>
        <time>2021-09-05T07:08:07.000Z</time>
      </trkpt>
      <trkpt lat="50.52359" lon="3.42539">
        <ele>16.9</ele>
        <time>2021-09-05T07:08:11.000Z</time>
      </trkpt>
      <trkpt lat="50.52367" lon="3.42551">
        <ele>17.1</ele>
        <time>2021-09-05T07:08:14.239Z</time>
      </trkpt>
      <trkpt lat="50.52378" lon="3.42566">
        <ele>16.9</ele>
        <time>2021-09-05T07:08:18.000Z</time>
      </trkpt>
      <trkpt lat="50.52391" lon="3.42585">
        <ele>17.7</ele>
        <time>2021-09-05T07:08:22.000Z</time>
      </trkpt>
      <trkpt lat="50.52404" lon="3.42602">
        <ele>16.8</ele>
        <time>2021-09-05T07:08:26.000Z</time>
      </trkpt>
      <trkpt lat="50.52416" lon="3.4262">
        <ele>17.3</ele>
        <time>2021-09-05T07:08:29.201Z</time>
      </trkpt>
      <trkpt lat="50.52426" lon="3.42633">
        <ele>17.1</ele>
        <time>2021-09-05T07:08:33.000Z</time>
      </trkpt>
      <trkpt lat="50.52439" lon="3.42649">
        <ele>16.9</ele>
        <time>2021-09-05T07:08:37.000Z</time>
      </trkpt>
      <trkpt lat="50.52452" lon="3.42666">
        <ele>17.4</ele>
        <time>2021-09-05T07:08:41.000Z</time>
      </trkpt>
      <trkpt lat="50.52463" lon="3.42677">
        <ele>17</ele>
        <time>2021-09-05T07:08:44.000Z</time>
      </trkpt>
      <trkpt lat="50.52473" lon="3.4269">
        <ele>17.6</ele>
        <time>2021-09-05T07:08:47.000Z</time>
      </trkpt>
      <trkpt lat="50.52486" lon="3.42705">
        <ele>16.7</ele>
        <time>2021-09-05T07:08:51.000Z</time>
      </trkpt>
      <trkpt lat="50.52495" lon="3.42717">
        <ele>16.7</ele>
        <time>2021-09-05T07:08:54.000Z</time>
      </trkpt>
      <trkpt lat="50.52507" lon="3.42733">
        <ele>16.7</ele>
        <time>2021-09-05T07:08:58.000Z</time>
      </trkpt>
      <trkpt lat="50.52519" lon="3.42748">
        <ele>16.9</ele>
        <time>2021-09-05T07:09:02.000Z</time>
      </trkpt>
      <trkpt lat="50.52529" lon="3.42761">
        <ele>16.9</ele>
        <time>2021-09-05T07:09:05.000Z</time>
      </trkpt>
      <trkpt lat="50.5254" lon="3.42778">
        <ele>16.6</ele>
        <time>2021-09-05T07:09:07.905Z</time>
      </trkpt>
      <trkpt lat="50.52551" lon="3.42792">
        <ele>16.9</ele>
        <time>2021-09-05T07:09:11.456Z</time>
      </trkpt>
      <trkpt lat="50.52562" lon="3.42804">
        <ele>17.4</ele>
        <time>2021-09-05T07:09:15.000Z</time>
      </trkpt>
      <trkpt lat="50.52575" lon="3.42818">
        <ele>17.4</ele>
        <time>2021-09-05T07:09:18.000Z</time>
      </trkpt>
      <trkpt lat="50.5259" lon="3.42838">
        <ele>17.5</ele>
        <time>2021-09-05T07:09:22.000Z</time>
      </trkpt>
      <trkpt lat="50.52602" lon="3.42852">
        <ele>17.6</ele>
        <time>2021-09-05T07:09:25.000Z</time>
      </trkpt>
      <trkpt lat="50.52617" lon="3.42866">
        <ele>17.6</ele>
        <time>2021-09-05T07:09:28.000Z</time>
      </trkpt>
      <trkpt lat="50.52635" lon="3.42883">
        <ele>17.6</ele>
        <time>2021-09-05T07:09:32.000Z</time>
      </trkpt>
      <trkpt lat="50.52646" lon="3.42896">
        <ele>17.8</ele>
        <time>2021-09-05T07:09:35.000Z</time>
      </trkpt>
      <trkpt lat="50.52664" lon="3.42913">
        <ele>17.8</ele>
        <time>2021-09-05T07:09:39.000Z</time>
      </trkpt>
      <trkpt lat="50.52674" lon="3.42924">
        <ele>17.8</ele>
        <time>2021-09-05T07:09:42.000Z</time>
      </trkpt>
      <trkpt lat="50.52689" lon="3.42933">
        <ele>17.5</ele>
        <time>2021-09-05T07:09:45.000Z</time>
      </trkpt>
      <trkpt lat="50.52706" lon="3.42947">
        <ele>17.7</ele>
        <time>2021-09-05T07:09:49.000Z</time>
      </trkpt>
      <trkpt lat="50.5272" lon="3.42959">
        <ele>17.6</ele>
        <time>2021-09-05T07:09:53.000Z</time>
      </trkpt>
      <trkpt lat="50.5274" lon="3.42973">
        <ele>18</ele>
        <time>2021-09-05T07:09:57.000Z</time>
      </trkpt>
      <trkpt lat="50.52756" lon="3.42981">
        <ele>18</ele>
        <time>2021-09-05T07:10:00.000Z</time>
      </trkpt>
      <trkpt lat="50.52775" lon="3.42992">
        <ele>17.6</ele>
        <time>2021-09-05T07:10:04.000Z</time>
      </trkpt>
      <trkpt lat="50.5279" lon="3.42996">
        <ele>17.3</ele>
        <time>2021-09-05T07:10:07.000Z</time>
      </trkpt>
      <trkpt lat="50.52809" lon="3.43005">
        <ele>17.2</ele>
        <time>2021-09-05T07:10:11.000Z</time>
      </trkpt>
      <trkpt lat="50.5282" lon="3.43012">
        <ele>17.3</ele>
        <time>2021-09-05T07:10:14.000Z</time>
      </trkpt>
      <trkpt lat="50.52837" lon="3.43018">
        <ele>17.2</ele>
        <time>2021-09-05T07:10:18.000Z</time>
      </trkpt>
      <trkpt lat="50.52853" lon="3.43022">
        <ele>17.4</ele>
        <time>2021-09-05T07:10:22.000Z</time>
      </trkpt>
      <trkpt lat="50.52868" lon="3.43027">
        <ele>17.7</ele>
        <time>2021-09-05T07:10:25.000Z</time>
      </trkpt>
      <trkpt lat="50.52884" lon="3.43036">
        <ele>17.8</ele>
        <time>2021-09-05T07:10:29.000Z</time>
      </trkpt>
      <trkpt lat="50.52895" lon="3.43035">
        <ele>17.5</ele>
        <time>2021-09-05T07:10:32.527Z</time>
      </trkpt>
      <trkpt lat="50.52914" lon="3.43043">
        <ele>17.6</ele>
        <time>2021-09-05T07:10:36.000Z</time>
      </trkpt>
      <trkpt lat="50.52925" lon="3.4305">
        <ele>17.7</ele>
        <time>2021-09-05T07:10:39.000Z</time>
      </trkpt>
      <trkpt lat="50.52938" lon="3.43051">
        <ele>17.6</ele>
        <time>2021-09-05T07:10:41.924Z</time>
      </trkpt>
      <trkpt lat="50.52951" lon="3.43051">
        <ele>17.5</ele>
        <time>2021-09-05T07:10:45.064Z</time>
      </trkpt>
      <trkpt lat="50.52962" lon="3.43054">
        <ele>17.8</ele>
        <time>2021-09-05T07:10:48.064Z</time>
      </trkpt>
      <trkpt lat="50.52974" lon="3.43053">
        <ele>17.7</ele>
        <time>2021-09-05T07:10:52.000Z</time>
      </trkpt>
      <trkpt lat="50.52986" lon="3.43053">
        <ele>17.7</ele>
        <time>2021-09-05T07:10:55.000Z</time>
      </trkpt>
      <trkpt lat="50.53002" lon="3.43053">
        <ele>17.7</ele>
        <time>2021-09-05T07:10:59.000Z</time>
      </trkpt>
      <trkpt lat="50.53014" lon="3.43054">
        <ele>17.8</ele>
        <time>2021-09-05T07:11:02.000Z</time>
      </trkpt>
      <trkpt lat="50.53027" lon="3.43055">
        <ele>17.9</ele>
        <time>2021-09-05T07:11:04.700Z</time>
      </trkpt>
      <trkpt lat="50.53038" lon="3.43055">
        <ele>17.9</ele>
        <time>2021-09-05T07:11:07.805Z</time>
      </trkpt>
      <trkpt lat="50.53051" lon="3.43056">
        <ele>18</ele>
        <time>2021-09-05T07:11:12.000Z</time>
      </trkpt>
      <trkpt lat="50.53065" lon="3.43056">
        <ele>18</ele>
        <time>2021-09-05T07:11:14.721Z</time>
      </trkpt>
      <trkpt lat="50.53077" lon="3.43056">
        <ele>18</ele>
        <time>2021-09-05T07:11:19.000Z</time>
      </trkpt>
      <trkpt lat="50.53088" lon="3.43054">
        <ele>17.8</ele>
        <time>2021-09-05T07:11:22.000Z</time>
      </trkpt>
      <trkpt lat="50.531" lon="3.43052">
        <ele>17.6</ele>
        <time>2021-09-05T07:11:25.000Z</time>
      </trkpt>
      <trkpt lat="50.53112" lon="3.43051">
        <ele>17.5</ele>
        <time>2021-09-05T07:11:27.200Z</time>
      </trkpt>
      <trkpt lat="50.53124" lon="3.43049">
        <ele>17</ele>
        <time>2021-09-05T07:11:30.783Z</time>
      </trkpt>
      <trkpt lat="50.53135" lon="3.43047">
        <ele>16.7</ele>
        <time>2021-09-05T07:11:35.000Z</time>
      </trkpt>
      <trkpt lat="50.5315" lon="3.43046">
        <ele>16.7</ele>
        <time>2021-09-05T07:11:39.000Z</time>
      </trkpt>
      <trkpt lat="50.53164" lon="3.43044">
        <ele>16.6</ele>
        <time>2021-09-05T07:11:42.000Z</time>
      </trkpt>
      <trkpt lat="50.53179" lon="3.43044">
        <ele>17</ele>
        <time>2021-09-05T07:11:45.005Z</time>
      </trkpt>
      <trkpt lat="50.53191" lon="3.43039">
        <ele>17.3</ele>
        <time>2021-09-05T07:11:48.104Z</time>
      </trkpt>
      <trkpt lat="50.53206" lon="3.43037">
        <ele>17.5</ele>
        <time>2021-09-05T07:11:51.721Z</time>
      </trkpt>
      <trkpt lat="50.5322" lon="3.43034">
        <ele>17.7</ele>
        <time>2021-09-05T07:11:56.000Z</time>
      </trkpt>
      <trkpt lat="50.53234" lon="3.43032">
        <ele>17.8</ele>
        <time>2021-09-05T07:11:58.824Z</time>
      </trkpt>
      <trkpt lat="50.53248" lon="3.43031">
        <ele>17.9</ele>
        <time>2021-09-05T07:12:02.081Z</time>
      </trkpt>
      <trkpt lat="50.53259" lon="3.4303">
        <ele>17.9</ele>
        <time>2021-09-05T07:12:06.000Z</time>
      </trkpt>
      <trkpt lat="50.53275" lon="3.4303">
        <ele>17.9</ele>
        <time>2021-09-05T07:12:10.000Z</time>
      </trkpt>
      <trkpt lat="50.5329" lon="3.43029">
        <ele>17.5</ele>
        <time>2021-09-05T07:12:14.000Z</time>
      </trkpt>
      <trkpt lat="50.53302" lon="3.43029">
        <ele>17.1</ele>
        <time>2021-09-05T07:12:17.000Z</time>
      </trkpt>
      <trkpt lat="50.53322" lon="3.43027">
        <ele>17</ele>
        <time>2021-09-05T07:12:21.000Z</time>
      </trkpt>
      <trkpt lat="50.53339" lon="3.43023">
        <ele>16.8</ele>
        <time>2021-09-05T07:12:23.915Z</time>
      </trkpt>
      <trkpt lat="50.53351" lon="3.43022">
        <ele>16.7</ele>
        <time>2021-09-05T07:12:26.977Z</time>
      </trkpt>
      <trkpt lat="50.53366" lon="3.43031">
        <ele>17.2</ele>
        <time>2021-09-05T07:12:31.000Z</time>
      </trkpt>
      <trkpt lat="50.53384" lon="3.43031">
        <ele>17.7</ele>
        <time>2021-09-05T07:12:35.000Z</time>
      </trkpt>
      <trkpt lat="50.53396" lon="3.43032">
        <ele>17.8</ele>
        <time>2021-09-05T07:12:38.000Z</time>
      </trkpt>
      <trkpt lat="50.53411" lon="3.43031">
        <ele>17.9</ele>
        <time>2021-09-05T07:12:40.355Z</time>
      </trkpt>
      <trkpt lat="50.53424" lon="3.43034">
        <ele>17.6</ele>
        <time>2021-09-05T07:12:43.770Z</time>
      </trkpt>
      <trkpt lat="50.53436" lon="3.43036">
        <ele>17.2</ele>
        <time>2021-09-05T07:12:48.000Z</time>
      </trkpt>
      <trkpt lat="50.53449" lon="3.4304">
        <ele>17</ele>
        <time>2021-09-05T07:12:52.000Z</time>
      </trkpt>
      <trkpt lat="50.53458" lon="3.43043">
        <ele>17</ele>
        <time>2021-09-05T07:12:54.351Z</time>
      </trkpt>
      <trkpt lat="50.53469" lon="3.43045">
        <ele>17.2</ele>
        <time>2021-09-05T07:12:57.765Z</time>
      </trkpt>
      <trkpt lat="50.5348" lon="3.43049">
        <ele>17.3</ele>
        <time>2021-09-05T07:13:02.000Z</time>
      </trkpt>
      <trkpt lat="50.5349" lon="3.4305">
        <ele>17.1</ele>
        <time>2021-09-05T07:13:05.000Z</time>
      </trkpt>
      <trkpt lat="50.53503" lon="3.43054">
        <ele>16.9</ele>
        <time>2021-09-05T07:13:09.000Z</time>
      </trkpt>
      <trkpt lat="50.53514" lon="3.43059">
        <ele>17</ele>
        <time>2021-09-05T07:13:11.285Z</time>
      </trkpt>
      <trkpt lat="50.53529" lon="3.43064">
        <ele>17</ele>
        <time>2021-09-05T07:13:16.000Z</time>
      </trkpt>
      <trkpt lat="50.53543" lon="3.43068">
        <ele>17</ele>
        <time>2021-09-05T07:13:20.000Z</time>
      </trkpt>
      <trkpt lat="50.53552" lon="3.43071">
        <ele>17</ele>
        <time>2021-09-05T07:13:22.410Z</time>
      </trkpt>
      <trkpt lat="50.53566" lon="3.43078">
        <ele>17.2</ele>
        <time>2021-09-05T07:13:27.000Z</time>
      </trkpt>
      <trkpt lat="50.53579" lon="3.43084">
        <ele>17.8</ele>
        <time>2021-09-05T07:13:30.000Z</time>
      </trkpt>
      <trkpt lat="50.53591" lon="3.43089">
        <ele>17.6</ele>
        <time>2021-09-05T07:13:33.000Z</time>
      </trkpt>
      <trkpt lat="50.53603" lon="3.43093">
        <ele>17.2</ele>
        <time>2021-09-05T07:13:36.000Z</time>
      </trkpt>
      <trkpt lat="50.5362" lon="3.431">
        <ele>16.9</ele>
        <time>2021-09-05T07:13:38.825Z</time>
      </trkpt>
      <trkpt lat="50.53634" lon="3.43109">
        <ele>17.6</ele>
        <time>2021-09-05T07:13:43.000Z</time>
      </trkpt>
      <trkpt lat="50.53646" lon="3.43116">
        <ele>17.3</ele>
        <time>2021-09-05T07:13:46.000Z</time>
      </trkpt>
      <trkpt lat="50.53659" lon="3.43122">
        <ele>16.6</ele>
        <time>2021-09-05T07:13:48.299Z</time>
      </trkpt>
      <trkpt lat="50.53672" lon="3.43131">
        <ele>16.7</ele>
        <time>2021-09-05T07:13:51.726Z</time>
      </trkpt>
      <trkpt lat="50.53682" lon="3.43139">
        <ele>17</ele>
        <time>2021-09-05T07:13:56.000Z</time>
      </trkpt>
      <trkpt lat="50.537" lon="3.43152">
        <ele>16.8</ele>
        <time>2021-09-05T07:14:00.000Z</time>
      </trkpt>
      <trkpt lat="50.53714" lon="3.4316">
        <ele>16.7</ele>
        <time>2021-09-05T07:14:02.375Z</time>
      </trkpt>
      <trkpt lat="50.53728" lon="3.43169">
        <ele>16.6</ele>
        <time>2021-09-05T07:14:05.957Z</time>
      </trkpt>
      <trkpt lat="50.53738" lon="3.43179">
        <ele>16.4</ele>
        <time>2021-09-05T07:14:10.000Z</time>
      </trkpt>
      <trkpt lat="50.53751" lon="3.43189">
        <ele>17.3</ele>
        <time>2021-09-05T07:14:12.497Z</time>
      </trkpt>
      <trkpt lat="50.53761" lon="3.43197">
        <ele>16.8</ele>
        <time>2021-09-05T07:14:15.895Z</time>
      </trkpt>
      <trkpt lat="50.5377" lon="3.43206">
        <ele>16.2</ele>
        <time>2021-09-05T07:14:20.000Z</time>
      </trkpt>
      <trkpt lat="50.5378" lon="3.43215">
        <ele>16.5</ele>
        <time>2021-09-05T07:14:22.275Z</time>
      </trkpt>
      <trkpt lat="50.53791" lon="3.43223">
        <ele>17</ele>
        <time>2021-09-05T07:14:25.895Z</time>
      </trkpt>
      <trkpt lat="50.538" lon="3.4323">
        <ele>16.9</ele>
        <time>2021-09-05T07:14:30.000Z</time>
      </trkpt>
      <trkpt lat="50.53812" lon="3.4324">
        <ele>16.8</ele>
        <time>2021-09-05T07:14:32.658Z</time>
      </trkpt>
      <trkpt lat="50.53822" lon="3.43246">
        <ele>16.8</ele>
        <time>2021-09-05T07:14:35.814Z</time>
      </trkpt>
      <trkpt lat="50.53834" lon="3.43255">
        <ele>17</ele>
        <time>2021-09-05T07:14:38.816Z</time>
      </trkpt>
      <trkpt lat="50.53846" lon="3.43266">
        <ele>16.6</ele>
        <time>2021-09-05T07:14:41.940Z</time>
      </trkpt>
      <trkpt lat="50.53858" lon="3.43276">
        <ele>16.9</ele>
        <time>2021-09-05T07:14:44.980Z</time>
      </trkpt>
      <trkpt lat="50.53871" lon="3.43285">
        <ele>16.3</ele>
        <time>2021-09-05T07:14:49.000Z</time>
      </trkpt>
      <trkpt lat="50.53883" lon="3.43294">
        <ele>16.2</ele>
        <time>2021-09-05T07:14:52.000Z</time>
      </trkpt>
      <trkpt lat="50.53898" lon="3.43307">
        <ele>16.7</ele>
        <time>2021-09-05T07:14:56.000Z</time>
      </trkpt>
      <trkpt lat="50.53911" lon="3.43318">
        <ele>16.5</ele>
        <time>2021-09-05T07:14:58.472Z</time>
      </trkpt>
      <trkpt lat="50.53924" lon="3.43329">
        <ele>16.6</ele>
        <time>2021-09-05T07:15:02.020Z</time>
      </trkpt>
      <trkpt lat="50.53935" lon="3.43338">
        <ele>16.4</ele>
        <time>2021-09-05T07:15:06.000Z</time>
      </trkpt>
      <trkpt lat="50.53946" lon="3.43348">
        <ele>16.5</ele>
        <time>2021-09-05T07:15:08.333Z</time>
      </trkpt>
      <trkpt lat="50.53958" lon="3.43359">
        <ele>16.9</ele>
        <time>2021-09-05T07:15:11.897Z</time>
      </trkpt>
      <trkpt lat="50.53969" lon="3.43369">
        <ele>17</ele>
        <time>2021-09-05T07:15:15.079Z</time>
      </trkpt>
      <trkpt lat="50.53986" lon="3.43381">
        <ele>16.7</ele>
        <time>2021-09-05T07:15:18.921Z</time>
      </trkpt>
      <trkpt lat="50.54" lon="3.43392">
        <ele>17</ele>
        <time>2021-09-05T07:15:23.000Z</time>
      </trkpt>
      <trkpt lat="50.54013" lon="3.43397">
        <ele>16.5</ele>
        <time>2021-09-05T07:15:25.593Z</time>
      </trkpt>
      <trkpt lat="50.54027" lon="3.43411">
        <ele>17.4</ele>
        <time>2021-09-05T07:15:30.000Z</time>
      </trkpt>
      <trkpt lat="50.54041" lon="3.43423">
        <ele>16.9</ele>
        <time>2021-09-05T07:15:32.517Z</time>
      </trkpt>
      <trkpt lat="50.54054" lon="3.43434">
        <ele>16.6</ele>
        <time>2021-09-05T07:15:35.912Z</time>
      </trkpt>
      <trkpt lat="50.54066" lon="3.43444">
        <ele>16.6</ele>
        <time>2021-09-05T07:15:40.000Z</time>
      </trkpt>
      <trkpt lat="50.54079" lon="3.43454">
        <ele>16.7</ele>
        <time>2021-09-05T07:15:42.753Z</time>
      </trkpt>
      <trkpt lat="50.5409" lon="3.43462">
        <ele>17</ele>
        <time>2021-09-05T07:15:45.820Z</time>
      </trkpt>
      <trkpt lat="50.54102" lon="3.4347">
        <ele>17.2</ele>
        <time>2021-09-05T07:15:50.000Z</time>
      </trkpt>
      <trkpt lat="50.54115" lon="3.43482">
        <ele>16.8</ele>
        <time>2021-09-05T07:15:52.922Z</time>
      </trkpt>
      <trkpt lat="50.54124" lon="3.43491">
        <ele>16.7</ele>
        <time>2021-09-05T07:15:57.000Z</time>
      </trkpt>
      <trkpt lat="50.54136" lon="3.43501">
        <ele>17</ele>
        <time>2021-09-05T07:15:59.558Z</time>
      </trkpt>
      <trkpt lat="50.54148" lon="3.43509">
        <ele>16.6</ele>
        <time>2021-09-05T07:16:02.879Z</time>
      </trkpt>
      <trkpt lat="50.54158" lon="3.43517">
        <ele>16.5</ele>
        <time>2021-09-05T07:16:07.000Z</time>
      </trkpt>
      <trkpt lat="50.54173" lon="3.4353">
        <ele>16.5</ele>
        <time>2021-09-05T07:16:11.000Z</time>
      </trkpt>
      <trkpt lat="50.54191" lon="3.43544">
        <ele>16.2</ele>
        <time>2021-09-05T07:16:14.000Z</time>
      </trkpt>
      <trkpt lat="50.54211" lon="3.43557">
        <ele>16.4</ele>
        <time>2021-09-05T07:16:18.000Z</time>
      </trkpt>
      <trkpt lat="50.54222" lon="3.43569">
        <ele>16.5</ele>
        <time>2021-09-05T07:16:21.000Z</time>
      </trkpt>
      <trkpt lat="50.54241" lon="3.43584">
        <ele>17</ele>
        <time>2021-09-05T07:16:25.000Z</time>
      </trkpt>
      <trkpt lat="50.54253" lon="3.43593">
        <ele>17.2</ele>
        <time>2021-09-05T07:16:28.000Z</time>
      </trkpt>
      <trkpt lat="50.54265" lon="3.43608">
        <ele>18.2</ele>
        <time>2021-09-05T07:16:30.945Z</time>
      </trkpt>
      <trkpt lat="50.54267" lon="3.43625">
        <ele>19.9</ele>
        <time>2021-09-05T07:16:35.000Z</time>
      </trkpt>
      <trkpt lat="50.54264" lon="3.43643">
        <ele>20.5</ele>
        <time>2021-09-05T07:16:38.000Z</time>
      </trkpt>
      <trkpt lat="50.54259" lon="3.43667">
        <ele>19.6</ele>
        <time>2021-09-05T07:16:42.000Z</time>
      </trkpt>
      <trkpt lat="50.54257" lon="3.43689">
        <ele>19.3</ele>
        <time>2021-09-05T07:16:44.822Z</time>
      </trkpt>
      <trkpt lat="50.54257" lon="3.43709">
        <ele>19.1</ele>
        <time>2021-09-05T07:16:49.000Z</time>
      </trkpt>
      <trkpt lat="50.54255" lon="3.43726">
        <ele>18.8</ele>
        <time>2021-09-05T07:16:51.227Z</time>
      </trkpt>
      <trkpt lat="50.54251" lon="3.43747">
        <ele>18.9</ele>
        <time>2021-09-05T07:16:56.000Z</time>
      </trkpt>
      <trkpt lat="50.54249" lon="3.43765">
        <ele>20</ele>
        <time>2021-09-05T07:16:58.105Z</time>
      </trkpt>
      <trkpt lat="50.54245" lon="3.43786">
        <ele>20.8</ele>
        <time>2021-09-05T07:17:03.000Z</time>
      </trkpt>
      <trkpt lat="50.54243" lon="3.43803">
        <ele>21.2</ele>
        <time>2021-09-05T07:17:06.000Z</time>
      </trkpt>
      <trkpt lat="50.5424" lon="3.43822">
        <ele>20.3</ele>
        <time>2021-09-05T07:17:10.000Z</time>
      </trkpt>
      <trkpt lat="50.5424" lon="3.43838">
        <ele>19.9</ele>
        <time>2021-09-05T07:17:13.000Z</time>
      </trkpt>
      <trkpt lat="50.54237" lon="3.43854">
        <ele>19.6</ele>
        <time>2021-09-05T07:17:16.000Z</time>
      </trkpt>
      <trkpt lat="50.54234" lon="3.43868">
        <ele>19.3</ele>
        <time>2021-09-05T07:17:19.000Z</time>
      </trkpt>
      <trkpt lat="50.54231" lon="3.43883">
        <ele>19.2</ele>
        <time>2021-09-05T07:17:20.974Z</time>
      </trkpt>
      <trkpt lat="50.54229" lon="3.43893">
        <ele>19.2</ele>
        <time>2021-09-05T07:17:24.000Z</time>
      </trkpt>
      <trkpt lat="50.54227" lon="3.43903">
        <ele>19</ele>
        <time>2021-09-05T07:17:26.000Z</time>
      </trkpt>
      <trkpt lat="50.54225" lon="3.43918">
        <ele>18.9</ele>
        <time>2021-09-05T07:17:29.000Z</time>
      </trkpt>
      <trkpt lat="50.54223" lon="3.43925">
        <ele>19.3</ele>
        <time>2021-09-05T07:17:29.571Z</time>
      </trkpt>
      <trkpt lat="50.54221" lon="3.43938">
        <ele>19.6</ele>
        <time>2021-09-05T07:17:32.314Z</time>
      </trkpt>
      <trkpt lat="50.54219" lon="3.43945">
        <ele>19.7</ele>
        <time>2021-09-05T07:17:33.827Z</time>
      </trkpt>
      <trkpt lat="50.54218" lon="3.43955">
        <ele>19.5</ele>
        <time>2021-09-05T07:17:37.000Z</time>
      </trkpt>
      <trkpt lat="50.54217" lon="3.43964">
        <ele>19.4</ele>
        <time>2021-09-05T07:17:39.000Z</time>
      </trkpt>
      <trkpt lat="50.54217" lon="3.43973">
        <ele>19.4</ele>
        <time>2021-09-05T07:17:39.910Z</time>
      </trkpt>
      <trkpt lat="50.54221" lon="3.43983">
        <ele>19.9</ele>
        <time>2021-09-05T07:17:42.707Z</time>
      </trkpt>
      <trkpt lat="50.54226" lon="3.4399">
        <ele>19.6</ele>
        <time>2021-09-05T07:17:46.000Z</time>
      </trkpt>
      <trkpt lat="50.54229" lon="3.43997">
        <ele>19.3</ele>
        <time>2021-09-05T07:17:48.000Z</time>
      </trkpt>
      <trkpt lat="50.54229" lon="3.44008">
        <ele>19.1</ele>
        <time>2021-09-05T07:17:49.527Z</time>
      </trkpt>
      <trkpt lat="50.54228" lon="3.44015">
        <ele>19.1</ele>
        <time>2021-09-05T07:17:51.597Z</time>
      </trkpt>
      <trkpt lat="50.54222" lon="3.44031">
        <ele>18.9</ele>
        <time>2021-09-05T07:18:12.654Z</time>
      </trkpt>
      <trkpt lat="50.54219" lon="3.44053">
        <ele>17.8</ele>
        <time>2021-09-05T07:18:15.751Z</time>
      </trkpt>
      <trkpt lat="50.54215" lon="3.44079">
        <ele>17.7</ele>
        <time>2021-09-05T07:18:20.000Z</time>
      </trkpt>
      <trkpt lat="50.5421" lon="3.44109">
        <ele>17.6</ele>
        <time>2021-09-05T07:18:24.000Z</time>
      </trkpt>
      <trkpt lat="50.54207" lon="3.44141">
        <ele>17.5</ele>
        <time>2021-09-05T07:18:28.000Z</time>
      </trkpt>
      <trkpt lat="50.54201" lon="3.44173">
        <ele>18</ele>
        <time>2021-09-05T07:18:32.000Z</time>
      </trkpt>
      <trkpt lat="50.54199" lon="3.44196">
        <ele>18</ele>
        <time>2021-09-05T07:18:35.000Z</time>
      </trkpt>
      <trkpt lat="50.54194" lon="3.44225">
        <ele>18</ele>
        <time>2021-09-05T07:18:39.000Z</time>
      </trkpt>
      <trkpt lat="50.54187" lon="3.44254">
        <ele>18</ele>
        <time>2021-09-05T07:18:43.000Z</time>
      </trkpt>
      <trkpt lat="50.54184" lon="3.44275">
        <ele>18</ele>
        <time>2021-09-05T07:18:46.000Z</time>
      </trkpt>
      <trkpt lat="50.54183" lon="3.44295">
        <ele>18</ele>
        <time>2021-09-05T07:18:49.000Z</time>
      </trkpt>
      <trkpt lat="50.54193" lon="3.44312">
        <ele>17.6</ele>
        <time>2021-09-05T07:18:53.000Z</time>
      </trkpt>
      <trkpt lat="50.54192" lon="3.4433">
        <ele>16.4</ele>
        <time>2021-09-05T07:18:55.720Z</time>
      </trkpt>
      <trkpt lat="50.54185" lon="3.44352">
        <ele>16.7</ele>
        <time>2021-09-05T07:18:58.798Z</time>
      </trkpt>
      <trkpt lat="50.5418" lon="3.44373">
        <ele>17</ele>
        <time>2021-09-05T07:19:03.000Z</time>
      </trkpt>
      <trkpt lat="50.54176" lon="3.44391">
        <ele>17.3</ele>
        <time>2021-09-05T07:19:05.159Z</time>
      </trkpt>
      <trkpt lat="50.54171" lon="3.44413">
        <ele>17.7</ele>
        <time>2021-09-05T07:19:08.724Z</time>
      </trkpt>
      <trkpt lat="50.54167" lon="3.44434">
        <ele>18</ele>
        <time>2021-09-05T07:19:11.961Z</time>
      </trkpt>
      <trkpt lat="50.54163" lon="3.44456">
        <ele>17.1</ele>
        <time>2021-09-05T07:19:15.546Z</time>
      </trkpt>
      <trkpt lat="50.54159" lon="3.44484">
        <ele>16.7</ele>
        <time>2021-09-05T07:19:20.000Z</time>
      </trkpt>
      <trkpt lat="50.54155" lon="3.44516">
        <ele>17.3</ele>
        <time>2021-09-05T07:19:24.000Z</time>
      </trkpt>
      <trkpt lat="50.54153" lon="3.44539">
        <ele>17.5</ele>
        <time>2021-09-05T07:19:27.000Z</time>
      </trkpt>
      <trkpt lat="50.54149" lon="3.44568">
        <ele>17.9</ele>
        <time>2021-09-05T07:19:31.000Z</time>
      </trkpt>
      <trkpt lat="50.54145" lon="3.4459">
        <ele>18.4</ele>
        <time>2021-09-05T07:19:34.000Z</time>
      </trkpt>
      <trkpt lat="50.54143" lon="3.4461">
        <ele>18.7</ele>
        <time>2021-09-05T07:19:37.000Z</time>
      </trkpt>
      <trkpt lat="50.54141" lon="3.44624">
        <ele>18.9</ele>
        <time>2021-09-05T07:19:40.000Z</time>
      </trkpt>
      <trkpt lat="50.54137" lon="3.44641">
        <ele>19.1</ele>
        <time>2021-09-05T07:19:44.000Z</time>
      </trkpt>
      <trkpt lat="50.54135" lon="3.4465">
        <ele>19.3</ele>
        <time>2021-09-05T07:19:47.000Z</time>
      </trkpt>
      <trkpt lat="50.54134" lon="3.44662">
        <ele>19.5</ele>
        <time>2021-09-05T07:19:50.000Z</time>
      </trkpt>
      <trkpt lat="50.54131" lon="3.44675">
        <ele>20.5</ele>
        <time>2021-09-05T07:19:54.000Z</time>
      </trkpt>
      <trkpt lat="50.5413" lon="3.44688">
        <ele>21.5</ele>
        <time>2021-09-05T07:19:58.000Z</time>
      </trkpt>
      <trkpt lat="50.54126" lon="3.44698">
        <ele>22</ele>
        <time>2021-09-05T07:20:01.000Z</time>
      </trkpt>
      <trkpt lat="50.54124" lon="3.44711">
        <ele>22</ele>
        <time>2021-09-05T07:20:04.000Z</time>
      </trkpt>
      <trkpt lat="50.54122" lon="3.44728">
        <ele>22</ele>
        <time>2021-09-05T07:20:06.492Z</time>
      </trkpt>
      <trkpt lat="50.5412" lon="3.44746">
        <ele>22</ele>
        <time>2021-09-05T07:20:11.000Z</time>
      </trkpt>
      <trkpt lat="50.54117" lon="3.44763">
        <ele>22</ele>
        <time>2021-09-05T07:20:14.000Z</time>
      </trkpt>
      <trkpt lat="50.54114" lon="3.44784">
        <ele>22</ele>
        <time>2021-09-05T07:20:16.935Z</time>
      </trkpt>
      <trkpt lat="50.54112" lon="3.44802">
        <ele>22</ele>
        <time>2021-09-05T07:20:21.000Z</time>
      </trkpt>
      <trkpt lat="50.5411" lon="3.44822">
        <ele>22</ele>
        <time>2021-09-05T07:20:23.351Z</time>
      </trkpt>
      <trkpt lat="50.54108" lon="3.4484">
        <ele>22</ele>
        <time>2021-09-05T07:20:26.477Z</time>
      </trkpt>
      <trkpt lat="50.54106" lon="3.44859">
        <ele>22</ele>
        <time>2021-09-05T07:20:29.994Z</time>
      </trkpt>
      <trkpt lat="50.54104" lon="3.44882">
        <ele>22</ele>
        <time>2021-09-05T07:20:33.850Z</time>
      </trkpt>
      <trkpt lat="50.54101" lon="3.449">
        <ele>22</ele>
        <time>2021-09-05T07:20:38.000Z</time>
      </trkpt>
      <trkpt lat="50.54099" lon="3.44916">
        <ele>22</ele>
        <time>2021-09-05T07:20:41.000Z</time>
      </trkpt>
      <trkpt lat="50.54096" lon="3.44936">
        <ele>22</ele>
        <time>2021-09-05T07:20:43.465Z</time>
      </trkpt>
      <trkpt lat="50.54092" lon="3.44957">
        <ele>21.9</ele>
        <time>2021-09-05T07:20:46.893Z</time>
      </trkpt>
      <trkpt lat="50.54089" lon="3.44978">
        <ele>21.8</ele>
        <time>2021-09-05T07:20:51.000Z</time>
      </trkpt>
      <trkpt lat="50.54087" lon="3.44999">
        <ele>21.9</ele>
        <time>2021-09-05T07:20:53.186Z</time>
      </trkpt>
      <trkpt lat="50.54082" lon="3.45023">
        <ele>21.3</ele>
        <time>2021-09-05T07:20:56.856Z</time>
      </trkpt>
      <trkpt lat="50.5408" lon="3.45043">
        <ele>21.2</ele>
        <time>2021-09-05T07:21:01.000Z</time>
      </trkpt>
      <trkpt lat="50.54076" lon="3.4506">
        <ele>21.3</ele>
        <time>2021-09-05T07:21:04.000Z</time>
      </trkpt>
      <trkpt lat="50.54074" lon="3.45083">
        <ele>21.3</ele>
        <time>2021-09-05T07:21:08.000Z</time>
      </trkpt>
      <trkpt lat="50.54071" lon="3.451">
        <ele>21.4</ele>
        <time>2021-09-05T07:21:11.000Z</time>
      </trkpt>
      <trkpt lat="50.54067" lon="3.45119">
        <ele>21.6</ele>
        <time>2021-09-05T07:21:15.000Z</time>
      </trkpt>
      <trkpt lat="50.54062" lon="3.45147">
        <ele>21.8</ele>
        <time>2021-09-05T07:21:19.000Z</time>
      </trkpt>
      <trkpt lat="50.54059" lon="3.4517">
        <ele>21.9</ele>
        <time>2021-09-05T07:21:21.578Z</time>
      </trkpt>
      <trkpt lat="50.54056" lon="3.45185">
        <ele>22</ele>
        <time>2021-09-05T07:21:26.000Z</time>
      </trkpt>
      <trkpt lat="50.54053" lon="3.45199">
        <ele>21.9</ele>
        <time>2021-09-05T07:21:29.000Z</time>
      </trkpt>
      <trkpt lat="50.54051" lon="3.45215">
        <ele>21.5</ele>
        <time>2021-09-05T07:21:32.000Z</time>
      </trkpt>
      <trkpt lat="50.54048" lon="3.45236">
        <ele>21.5</ele>
        <time>2021-09-05T07:21:36.000Z</time>
      </trkpt>
      <trkpt lat="50.54046" lon="3.45254">
        <ele>21.7</ele>
        <time>2021-09-05T07:21:39.000Z</time>
      </trkpt>
      <trkpt lat="50.54042" lon="3.45275">
        <ele>22</ele>
        <time>2021-09-05T07:21:41.669Z</time>
      </trkpt>
      <trkpt lat="50.54039" lon="3.45294">
        <ele>21.8</ele>
        <time>2021-09-05T07:21:46.000Z</time>
      </trkpt>
      <trkpt lat="50.54036" lon="3.45314">
        <ele>21.7</ele>
        <time>2021-09-05T07:21:48.601Z</time>
      </trkpt>
      <trkpt lat="50.54032" lon="3.45335">
        <ele>21.8</ele>
        <time>2021-09-05T07:21:53.000Z</time>
      </trkpt>
      <trkpt lat="50.54029" lon="3.45358">
        <ele>21.1</ele>
        <time>2021-09-05T07:21:55.928Z</time>
      </trkpt>
      <trkpt lat="50.54025" lon="3.45383">
        <ele>21.2</ele>
        <time>2021-09-05T07:22:01.000Z</time>
      </trkpt>
      <trkpt lat="50.54022" lon="3.45407">
        <ele>21.4</ele>
        <time>2021-09-05T07:22:03.740Z</time>
      </trkpt>
      <trkpt lat="50.54018" lon="3.45425">
        <ele>21.6</ele>
        <time>2021-09-05T07:22:06.744Z</time>
      </trkpt>
      <trkpt lat="50.54016" lon="3.45443">
        <ele>21.4</ele>
        <time>2021-09-05T07:22:09.945Z</time>
      </trkpt>
      <trkpt lat="50.54012" lon="3.45462">
        <ele>21.6</ele>
        <time>2021-09-05T07:22:14.000Z</time>
      </trkpt>
      <trkpt lat="50.54008" lon="3.45484">
        <ele>21.7</ele>
        <time>2021-09-05T07:22:16.571Z</time>
      </trkpt>
      <trkpt lat="50.54005" lon="3.45503">
        <ele>21.8</ele>
        <time>2021-09-05T07:22:19.808Z</time>
      </trkpt>
      <trkpt lat="50.54003" lon="3.45521">
        <ele>21.9</ele>
        <time>2021-09-05T07:22:22.887Z</time>
      </trkpt>
      <trkpt lat="50.54" lon="3.45541">
        <ele>21.5</ele>
        <time>2021-09-05T07:22:27.000Z</time>
      </trkpt>
      <trkpt lat="50.53996" lon="3.45559">
        <ele>21.3</ele>
        <time>2021-09-05T07:22:30.000Z</time>
      </trkpt>
      <trkpt lat="50.53991" lon="3.4558">
        <ele>21.6</ele>
        <time>2021-09-05T07:22:32.485Z</time>
      </trkpt>
      <trkpt lat="50.53987" lon="3.456">
        <ele>21.9</ele>
        <time>2021-09-05T07:22:37.000Z</time>
      </trkpt>
      <trkpt lat="50.53986" lon="3.4562">
        <ele>21.8</ele>
        <time>2021-09-05T07:22:40.000Z</time>
      </trkpt>
      <trkpt lat="50.53983" lon="3.45637">
        <ele>21.7</ele>
        <time>2021-09-05T07:22:43.000Z</time>
      </trkpt>
      <trkpt lat="50.5398" lon="3.45655">
        <ele>21.7</ele>
        <time>2021-09-05T07:22:46.000Z</time>
      </trkpt>
      <trkpt lat="50.53977" lon="3.45672">
        <ele>21.8</ele>
        <time>2021-09-05T07:22:49.000Z</time>
      </trkpt>
      <trkpt lat="50.53974" lon="3.45696">
        <ele>21.9</ele>
        <time>2021-09-05T07:22:51.705Z</time>
      </trkpt>
      <trkpt lat="50.53971" lon="3.45717">
        <ele>22</ele>
        <time>2021-09-05T07:22:56.000Z</time>
      </trkpt>
      <trkpt lat="50.53968" lon="3.4574">
        <ele>21.6</ele>
        <time>2021-09-05T07:22:58.524Z</time>
      </trkpt>
      <trkpt lat="50.53965" lon="3.4576">
        <ele>21.5</ele>
        <time>2021-09-05T07:23:01.650Z</time>
      </trkpt>
      <trkpt lat="50.5396" lon="3.45781">
        <ele>21.9</ele>
        <time>2021-09-05T07:23:06.000Z</time>
      </trkpt>
      <trkpt lat="50.53956" lon="3.45802">
        <ele>22.2</ele>
        <time>2021-09-05T07:23:08.512Z</time>
      </trkpt>
      <trkpt lat="50.53953" lon="3.45825">
        <ele>21.9</ele>
        <time>2021-09-05T07:23:11.870Z</time>
      </trkpt>
      <trkpt lat="50.53952" lon="3.45846">
        <ele>21.7</ele>
        <time>2021-09-05T07:23:16.000Z</time>
      </trkpt>
      <trkpt lat="50.5395" lon="3.4587">
        <ele>21.8</ele>
        <time>2021-09-05T07:23:18.776Z</time>
      </trkpt>
      <trkpt lat="50.53948" lon="3.45892">
        <ele>21.8</ele>
        <time>2021-09-05T07:23:23.000Z</time>
      </trkpt>
      <trkpt lat="50.53944" lon="3.45914">
        <ele>21.1</ele>
        <time>2021-09-05T07:23:25.708Z</time>
      </trkpt>
      <trkpt lat="50.5394" lon="3.45939">
        <ele>21.3</ele>
        <time>2021-09-05T07:23:29.853Z</time>
      </trkpt>
      <trkpt lat="50.53936" lon="3.45959">
        <ele>21.6</ele>
        <time>2021-09-05T07:23:33.286Z</time>
      </trkpt>
      <trkpt lat="50.53933" lon="3.45979">
        <ele>21.7</ele>
        <time>2021-09-05T07:23:36.486Z</time>
      </trkpt>
      <trkpt lat="50.5393" lon="3.45999">
        <ele>21.5</ele>
        <time>2021-09-05T07:23:39.809Z</time>
      </trkpt>
      <trkpt lat="50.53926" lon="3.4602">
        <ele>21.7</ele>
        <time>2021-09-05T07:23:44.000Z</time>
      </trkpt>
      <trkpt lat="50.53924" lon="3.46039">
        <ele>21.7</ele>
        <time>2021-09-05T07:23:47.000Z</time>
      </trkpt>
      <trkpt lat="50.53921" lon="3.46057">
        <ele>21.8</ele>
        <time>2021-09-05T07:23:50.000Z</time>
      </trkpt>
      <trkpt lat="50.53918" lon="3.46077">
        <ele>21.2</ele>
        <time>2021-09-05T07:23:54.000Z</time>
      </trkpt>
      <trkpt lat="50.53916" lon="3.46098">
        <ele>21</ele>
        <time>2021-09-05T07:23:56.930Z</time>
      </trkpt>
      <trkpt lat="50.53912" lon="3.46117">
        <ele>21.2</ele>
        <time>2021-09-05T07:24:01.000Z</time>
      </trkpt>
      <trkpt lat="50.53906" lon="3.46141">
        <ele>21.4</ele>
        <time>2021-09-05T07:24:05.000Z</time>
      </trkpt>
      <trkpt lat="50.53904" lon="3.46159">
        <ele>21.5</ele>
        <time>2021-09-05T07:24:08.000Z</time>
      </trkpt>
      <trkpt lat="50.53901" lon="3.46181">
        <ele>21.8</ele>
        <time>2021-09-05T07:24:10.852Z</time>
      </trkpt>
      <trkpt lat="50.53897" lon="3.46201">
        <ele>22</ele>
        <time>2021-09-05T07:24:15.000Z</time>
      </trkpt>
      <trkpt lat="50.53894" lon="3.46218">
        <ele>22</ele>
        <time>2021-09-05T07:24:18.000Z</time>
      </trkpt>
      <trkpt lat="50.5389" lon="3.46237">
        <ele>22</ele>
        <time>2021-09-05T07:24:20.450Z</time>
      </trkpt>
      <trkpt lat="50.53886" lon="3.46259">
        <ele>22</ele>
        <time>2021-09-05T07:24:25.000Z</time>
      </trkpt>
      <trkpt lat="50.53882" lon="3.46282">
        <ele>22</ele>
        <time>2021-09-05T07:24:29.000Z</time>
      </trkpt>
      <trkpt lat="50.53879" lon="3.463">
        <ele>22</ele>
        <time>2021-09-05T07:24:32.000Z</time>
      </trkpt>
      <trkpt lat="50.53877" lon="3.46318">
        <ele>22</ele>
        <time>2021-09-05T07:24:35.000Z</time>
      </trkpt>
      <trkpt lat="50.53874" lon="3.4634">
        <ele>22</ele>
        <time>2021-09-05T07:24:39.000Z</time>
      </trkpt>
      <trkpt lat="50.53871" lon="3.46357">
        <ele>22</ele>
        <time>2021-09-05T07:24:41.231Z</time>
      </trkpt>
      <trkpt lat="50.53868" lon="3.46378">
        <ele>22</ele>
        <time>2021-09-05T07:24:44.976Z</time>
      </trkpt>
      <trkpt lat="50.53865" lon="3.46392">
        <ele>22</ele>
        <time>2021-09-05T07:24:49.000Z</time>
      </trkpt>
      <trkpt lat="50.53863" lon="3.46408">
        <ele>22</ele>
        <time>2021-09-05T07:24:52.000Z</time>
      </trkpt>
      <trkpt lat="50.53859" lon="3.46424">
        <ele>21.8</ele>
        <time>2021-09-05T07:24:55.000Z</time>
      </trkpt>
      <trkpt lat="50.53858" lon="3.46447">
        <ele>21.2</ele>
        <time>2021-09-05T07:24:57.987Z</time>
      </trkpt>
      <trkpt lat="50.53854" lon="3.46465">
        <ele>21.8</ele>
        <time>2021-09-05T07:25:01.533Z</time>
      </trkpt>
      <trkpt lat="50.53853" lon="3.46481">
        <ele>22</ele>
        <time>2021-09-05T07:25:06.000Z</time>
      </trkpt>
      <trkpt lat="50.53849" lon="3.46492">
        <ele>22</ele>
        <time>2021-09-05T07:25:08.710Z</time>
      </trkpt>
      <trkpt lat="50.53844" lon="3.46496">
        <ele>22</ele>
        <time>2021-09-05T07:26:55.000Z</time>
      </trkpt>
      <trkpt lat="50.53843" lon="3.46506">
        <ele>22</ele>
        <time>2021-09-05T07:27:02.029Z</time>
      </trkpt>
      <trkpt lat="50.53839" lon="3.46516">
        <ele>22</ele>
        <time>2021-09-05T07:27:07.000Z</time>
      </trkpt>
      <trkpt lat="50.53837" lon="3.46522">
        <ele>22</ele>
        <time>2021-09-05T07:27:11.000Z</time>
      </trkpt>
      <trkpt lat="50.53835" lon="3.4653">
        <ele>22</ele>
        <time>2021-09-05T07:27:15.000Z</time>
      </trkpt>
      <trkpt lat="50.53832" lon="3.46542">
        <ele>22</ele>
        <time>2021-09-05T07:27:21.000Z</time>
      </trkpt>
      <trkpt lat="50.53831" lon="3.4655">
        <ele>22.1</ele>
        <time>2021-09-05T07:27:23.914Z</time>
      </trkpt>
      <trkpt lat="50.53829" lon="3.46557">
        <ele>22.2</ele>
        <time>2021-09-05T07:27:28.000Z</time>
      </trkpt>
      <trkpt lat="50.53828" lon="3.46565">
        <ele>22.3</ele>
        <time>2021-09-05T07:27:32.000Z</time>
      </trkpt>
      <trkpt lat="50.53827" lon="3.46574">
        <ele>22.4</ele>
        <time>2021-09-05T07:27:36.000Z</time>
      </trkpt>
      <trkpt lat="50.53826" lon="3.46582">
        <ele>22.5</ele>
        <time>2021-09-05T07:27:40.000Z</time>
      </trkpt>
      <trkpt lat="50.53823" lon="3.46595">
        <ele>22.7</ele>
        <time>2021-09-05T07:27:46.000Z</time>
      </trkpt>
      <trkpt lat="50.53819" lon="3.4661">
        <ele>23</ele>
        <time>2021-09-05T07:27:53.000Z</time>
      </trkpt>
      <trkpt lat="50.53818" lon="3.46617">
        <ele>23</ele>
        <time>2021-09-05T07:27:56.000Z</time>
      </trkpt>
      <trkpt lat="50.53817" lon="3.46631">
        <ele>22.8</ele>
        <time>2021-09-05T07:28:03.000Z</time>
      </trkpt>
      <trkpt lat="50.53817" lon="3.46639">
        <ele>22.6</ele>
        <time>2021-09-05T07:28:05.756Z</time>
      </trkpt>
      <trkpt lat="50.53814" lon="3.46651">
        <ele>22.4</ele>
        <time>2021-09-05T07:28:13.000Z</time>
      </trkpt>
      <trkpt lat="50.53809" lon="3.46663">
        <ele>22.1</ele>
        <time>2021-09-05T07:28:18.643Z</time>
      </trkpt>
      <trkpt lat="50.53808" lon="3.4667">
        <ele>22</ele>
        <time>2021-09-05T07:28:23.000Z</time>
      </trkpt>
      <trkpt lat="50.53806" lon="3.46678">
        <ele>22</ele>
        <time>2021-09-05T07:28:25.711Z</time>
      </trkpt>
      <trkpt lat="50.53805" lon="3.46684">
        <ele>22.1</ele>
        <time>2021-09-05T07:28:28.948Z</time>
      </trkpt>
      <trkpt lat="50.53804" lon="3.46691">
        <ele>22.3</ele>
        <time>2021-09-05T07:28:33.000Z</time>
      </trkpt>
      <trkpt lat="50.53802" lon="3.467">
        <ele>22.7</ele>
        <time>2021-09-05T07:28:37.000Z</time>
      </trkpt>
      <trkpt lat="50.538" lon="3.46707">
        <ele>23</ele>
        <time>2021-09-05T07:28:39.706Z</time>
      </trkpt>
      <trkpt lat="50.53799" lon="3.46715">
        <ele>23.1</ele>
        <time>2021-09-05T07:28:43.011Z</time>
      </trkpt>
      <trkpt lat="50.53797" lon="3.46727">
        <ele>23.1</ele>
        <time>2021-09-05T07:28:49.250Z</time>
      </trkpt>
      <trkpt lat="50.53795" lon="3.46735">
        <ele>23.2</ele>
        <time>2021-09-05T07:28:54.000Z</time>
      </trkpt>
      <trkpt lat="50.53793" lon="3.46742">
        <ele>23.2</ele>
        <time>2021-09-05T07:28:57.000Z</time>
      </trkpt>
      <trkpt lat="50.53792" lon="3.46749">
        <ele>23</ele>
        <time>2021-09-05T07:29:01.000Z</time>
      </trkpt>
      <trkpt lat="50.53791" lon="3.46758">
        <ele>22.9</ele>
        <time>2021-09-05T07:29:05.000Z</time>
      </trkpt>
      <trkpt lat="50.53787" lon="3.4677">
        <ele>22.9</ele>
        <time>2021-09-05T07:29:10.527Z</time>
      </trkpt>
      <trkpt lat="50.53785" lon="3.46783">
        <ele>22.6</ele>
        <time>2021-09-05T07:29:18.000Z</time>
      </trkpt>
      <trkpt lat="50.53782" lon="3.46795">
        <ele>22.3</ele>
        <time>2021-09-05T07:29:23.642Z</time>
      </trkpt>
      <trkpt lat="50.53778" lon="3.46804">
        <ele>22.1</ele>
        <time>2021-09-05T07:29:32.000Z</time>
      </trkpt>
      <trkpt lat="50.53771" lon="3.46816">
        <ele>23.5</ele>
        <time>2021-09-05T07:29:37.629Z</time>
      </trkpt>
      <trkpt lat="50.53767" lon="3.46821">
        <ele>24.3</ele>
        <time>2021-09-05T07:29:42.000Z</time>
      </trkpt>
      <trkpt lat="50.53764" lon="3.46827">
        <ele>24.7</ele>
        <time>2021-09-05T07:29:44.509Z</time>
      </trkpt>
      <trkpt lat="50.53759" lon="3.4684">
        <ele>25.2</ele>
        <time>2021-09-05T07:29:51.751Z</time>
      </trkpt>
      <trkpt lat="50.53757" lon="3.46846">
        <ele>25.4</ele>
        <time>2021-09-05T07:29:56.000Z</time>
      </trkpt>
      <trkpt lat="50.53754" lon="3.46853">
        <ele>25.7</ele>
        <time>2021-09-05T07:29:58.412Z</time>
      </trkpt>
      <trkpt lat="50.53751" lon="3.4686">
        <ele>25.9</ele>
        <time>2021-09-05T07:30:01.707Z</time>
      </trkpt>
      <trkpt lat="50.53746" lon="3.46873">
        <ele>27.2</ele>
        <time>2021-09-05T07:30:10.000Z</time>
      </trkpt>
      <trkpt lat="50.53745" lon="3.4688">
        <ele>27.5</ele>
        <time>2021-09-05T07:30:12.729Z</time>
      </trkpt>
      <trkpt lat="50.53743" lon="3.46887">
        <ele>28</ele>
        <time>2021-09-05T07:30:17.000Z</time>
      </trkpt>
      <trkpt lat="50.53739" lon="3.46899">
        <ele>28.8</ele>
        <time>2021-09-05T07:30:22.557Z</time>
      </trkpt>
      <trkpt lat="50.53738" lon="3.46909">
        <ele>28.7</ele>
        <time>2021-09-05T07:30:30.000Z</time>
      </trkpt>
      <trkpt lat="50.53738" lon="3.46919">
        <ele>28.4</ele>
        <time>2021-09-05T07:30:36.000Z</time>
      </trkpt>
      <trkpt lat="50.53734" lon="3.46925">
        <ele>29.3</ele>
        <time>2021-09-05T07:30:38.674Z</time>
      </trkpt>
      <trkpt lat="50.53728" lon="3.46935">
        <ele>30.7</ele>
        <time>2021-09-05T07:30:47.000Z</time>
      </trkpt>
      <trkpt lat="50.53728" lon="3.46948">
        <ele>30.3</ele>
        <time>2021-09-05T07:30:54.000Z</time>
      </trkpt>
      <trkpt lat="50.53727" lon="3.46956">
        <ele>30.6</ele>
        <time>2021-09-05T07:30:58.000Z</time>
      </trkpt>
      <trkpt lat="50.53725" lon="3.46963">
        <ele>31.1</ele>
        <time>2021-09-05T07:31:01.056Z</time>
      </trkpt>
      <trkpt lat="50.53721" lon="3.46975">
        <ele>32</ele>
        <time>2021-09-05T07:31:09.000Z</time>
      </trkpt>
      <trkpt lat="50.53719" lon="3.46983">
        <ele>32</ele>
        <time>2021-09-05T07:31:12.066Z</time>
      </trkpt>
      <trkpt lat="50.53716" lon="3.46992">
        <ele>32.1</ele>
        <time>2021-09-05T07:31:20.000Z</time>
      </trkpt>
      <trkpt lat="50.53715" lon="3.47">
        <ele>32</ele>
        <time>2021-09-05T07:31:24.000Z</time>
      </trkpt>
      <trkpt lat="50.53713" lon="3.47007">
        <ele>32.2</ele>
        <time>2021-09-05T07:31:26.934Z</time>
      </trkpt>
      <trkpt lat="50.5371" lon="3.47018">
        <ele>32.4</ele>
        <time>2021-09-05T07:31:34.000Z</time>
      </trkpt>
      <trkpt lat="50.53709" lon="3.47026">
        <ele>32.4</ele>
        <time>2021-09-05T07:31:38.000Z</time>
      </trkpt>
      <trkpt lat="50.53708" lon="3.47039">
        <ele>32.4</ele>
        <time>2021-09-05T07:31:43.570Z</time>
      </trkpt>
      <trkpt lat="50.53707" lon="3.47052">
        <ele>32.3</ele>
        <time>2021-09-05T07:31:50.289Z</time>
      </trkpt>
      <trkpt lat="50.53707" lon="3.4706">
        <ele>32.4</ele>
        <time>2021-09-05T07:31:55.000Z</time>
      </trkpt>
      <trkpt lat="50.53707" lon="3.47073">
        <ele>32.9</ele>
        <time>2021-09-05T07:32:00.693Z</time>
      </trkpt>
      <trkpt lat="50.53708" lon="3.4708">
        <ele>32.9</ele>
        <time>2021-09-05T07:32:05.000Z</time>
      </trkpt>
      <trkpt lat="50.53709" lon="3.47092">
        <ele>33.4</ele>
        <time>2021-09-05T07:32:10.273Z</time>
      </trkpt>
      <trkpt lat="50.53712" lon="3.47105">
        <ele>34</ele>
        <time>2021-09-05T07:32:16.953Z</time>
      </trkpt>
      <trkpt lat="50.53718" lon="3.47114">
        <ele>34.2</ele>
        <time>2021-09-05T07:32:24.000Z</time>
      </trkpt>
      <trkpt lat="50.53726" lon="3.4712">
        <ele>33.1</ele>
        <time>2021-09-05T07:32:29.932Z</time>
      </trkpt>
      <trkpt lat="50.53729" lon="3.47131">
        <ele>33.3</ele>
        <time>2021-09-05T07:32:36.239Z</time>
      </trkpt>
      <trkpt lat="50.53727" lon="3.47138">
        <ele>34.2</ele>
        <time>2021-09-05T07:32:39.991Z</time>
      </trkpt>
      <trkpt lat="50.53726" lon="3.47149">
        <ele>34.7</ele>
        <time>2021-09-05T07:32:47.000Z</time>
      </trkpt>
      <trkpt lat="50.53725" lon="3.47156">
        <ele>34.8</ele>
        <time>2021-09-05T07:32:51.000Z</time>
      </trkpt>
      <trkpt lat="50.53724" lon="3.47168">
        <ele>35</ele>
        <time>2021-09-05T07:32:56.673Z</time>
      </trkpt>
      <trkpt lat="50.53722" lon="3.47175">
        <ele>35</ele>
        <time>2021-09-05T07:33:01.000Z</time>
      </trkpt>
      <trkpt lat="50.5372" lon="3.47186">
        <ele>35</ele>
        <time>2021-09-05T07:33:07.000Z</time>
      </trkpt>
      <trkpt lat="50.5372" lon="3.47197">
        <ele>35</ele>
        <time>2021-09-05T07:33:09.427Z</time>
      </trkpt>
      <trkpt lat="50.53717" lon="3.47213">
        <ele>35</ele>
        <time>2021-09-05T07:33:13.010Z</time>
      </trkpt>
      <trkpt lat="50.53713" lon="3.47227">
        <ele>35</ele>
        <time>2021-09-05T07:33:17.000Z</time>
      </trkpt>
      <trkpt lat="50.53711" lon="3.47245">
        <ele>35</ele>
        <time>2021-09-05T07:33:19.934Z</time>
      </trkpt>
      <trkpt lat="50.53709" lon="3.47261">
        <ele>35</ele>
        <time>2021-09-05T07:33:23.437Z</time>
      </trkpt>
      <trkpt lat="50.53705" lon="3.47279">
        <ele>35</ele>
        <time>2021-09-05T07:33:26.914Z</time>
      </trkpt>
      <trkpt lat="50.53702" lon="3.473">
        <ele>35</ele>
        <time>2021-09-05T07:33:30.929Z</time>
      </trkpt>
      <trkpt lat="50.53699" lon="3.47316">
        <ele>35</ele>
        <time>2021-09-05T07:33:35.000Z</time>
      </trkpt>
      <trkpt lat="50.53696" lon="3.47331">
        <ele>35</ele>
        <time>2021-09-05T07:33:39.000Z</time>
      </trkpt>
      <trkpt lat="50.53696" lon="3.47341">
        <ele>35</ele>
        <time>2021-09-05T07:33:44.907Z</time>
      </trkpt>
      <trkpt lat="50.53693" lon="3.47347">
        <ele>35</ele>
        <time>2021-09-05T07:34:00.000Z</time>
      </trkpt>
      <trkpt lat="50.53692" lon="3.47365">
        <ele>35</ele>
        <time>2021-09-05T07:34:04.000Z</time>
      </trkpt>
      <trkpt lat="50.5369" lon="3.47378">
        <ele>35.1</ele>
        <time>2021-09-05T07:34:07.000Z</time>
      </trkpt>
      <trkpt lat="50.53688" lon="3.47392">
        <ele>35.2</ele>
        <time>2021-09-05T07:34:09.429Z</time>
      </trkpt>
      <trkpt lat="50.53685" lon="3.47408">
        <ele>35.1</ele>
        <time>2021-09-05T07:34:12.787Z</time>
      </trkpt>
      <trkpt lat="50.53682" lon="3.47426">
        <ele>35</ele>
        <time>2021-09-05T07:34:17.000Z</time>
      </trkpt>
      <trkpt lat="50.53677" lon="3.47445">
        <ele>35</ele>
        <time>2021-09-05T07:34:19.788Z</time>
      </trkpt>
      <trkpt lat="50.53674" lon="3.47463">
        <ele>35</ele>
        <time>2021-09-05T07:34:24.000Z</time>
      </trkpt>
      <trkpt lat="50.53671" lon="3.47483">
        <ele>34.9</ele>
        <time>2021-09-05T07:34:26.571Z</time>
      </trkpt>
      <trkpt lat="50.53669" lon="3.47502">
        <ele>34.9</ele>
        <time>2021-09-05T07:34:29.949Z</time>
      </trkpt>
      <trkpt lat="50.53666" lon="3.4752">
        <ele>34.3</ele>
        <time>2021-09-05T07:34:33.233Z</time>
      </trkpt>
      <trkpt lat="50.53664" lon="3.47541">
        <ele>34.1</ele>
        <time>2021-09-05T07:34:38.000Z</time>
      </trkpt>
      <trkpt lat="50.53662" lon="3.47562">
        <ele>34.4</ele>
        <time>2021-09-05T07:34:40.914Z</time>
      </trkpt>
      <trkpt lat="50.5366" lon="3.4758">
        <ele>34.9</ele>
        <time>2021-09-05T07:34:45.000Z</time>
      </trkpt>
      <trkpt lat="50.53657" lon="3.47598">
        <ele>35</ele>
        <time>2021-09-05T07:34:47.173Z</time>
      </trkpt>
      <trkpt lat="50.53654" lon="3.47616">
        <ele>35</ele>
        <time>2021-09-05T07:34:50.466Z</time>
      </trkpt>
      <trkpt lat="50.5365" lon="3.47637">
        <ele>35</ele>
        <time>2021-09-05T07:34:55.000Z</time>
      </trkpt>
      <trkpt lat="50.53647" lon="3.47655">
        <ele>34.8</ele>
        <time>2021-09-05T07:34:57.213Z</time>
      </trkpt>
      <trkpt lat="50.53644" lon="3.47673">
        <ele>34.8</ele>
        <time>2021-09-05T07:35:00.470Z</time>
      </trkpt>
      <trkpt lat="50.5364" lon="3.4769">
        <ele>35</ele>
        <time>2021-09-05T07:35:03.530Z</time>
      </trkpt>
      <trkpt lat="50.53637" lon="3.4771">
        <ele>35</ele>
        <time>2021-09-05T07:35:06.991Z</time>
      </trkpt>
      <trkpt lat="50.53634" lon="3.47727">
        <ele>35</ele>
        <time>2021-09-05T07:35:11.000Z</time>
      </trkpt>
      <trkpt lat="50.53632" lon="3.47745">
        <ele>35</ele>
        <time>2021-09-05T07:35:14.000Z</time>
      </trkpt>
      <trkpt lat="50.53629" lon="3.47765">
        <ele>34.7</ele>
        <time>2021-09-05T07:35:16.696Z</time>
      </trkpt>
      <trkpt lat="50.53626" lon="3.47783">
        <ele>34.5</ele>
        <time>2021-09-05T07:35:19.848Z</time>
      </trkpt>
      <trkpt lat="50.53623" lon="3.478">
        <ele>34.6</ele>
        <time>2021-09-05T07:35:22.871Z</time>
      </trkpt>
      <trkpt lat="50.5362" lon="3.47818">
        <ele>34.7</ele>
        <time>2021-09-05T07:35:27.000Z</time>
      </trkpt>
      <trkpt lat="50.53616" lon="3.47841">
        <ele>34.8</ele>
        <time>2021-09-05T07:35:29.755Z</time>
      </trkpt>
      <trkpt lat="50.53614" lon="3.47862">
        <ele>34.9</ele>
        <time>2021-09-05T07:35:34.000Z</time>
      </trkpt>
      <trkpt lat="50.53613" lon="3.4788">
        <ele>34.9</ele>
        <time>2021-09-05T07:35:37.000Z</time>
      </trkpt>
      <trkpt lat="50.5361" lon="3.47897">
        <ele>35</ele>
        <time>2021-09-05T07:35:40.000Z</time>
      </trkpt>
      <trkpt lat="50.53607" lon="3.47914">
        <ele>35.1</ele>
        <time>2021-09-05T07:35:43.000Z</time>
      </trkpt>
      <trkpt lat="50.53603" lon="3.47937">
        <ele>35.3</ele>
        <time>2021-09-05T07:35:47.000Z</time>
      </trkpt>
      <trkpt lat="50.53601" lon="3.47954">
        <ele>35</ele>
        <time>2021-09-05T07:35:50.000Z</time>
      </trkpt>
      <trkpt lat="50.53599" lon="3.47972">
        <ele>34.4</ele>
        <time>2021-09-05T07:35:52.109Z</time>
      </trkpt>
      <trkpt lat="50.53596" lon="3.47994">
        <ele>34.5</ele>
        <time>2021-09-05T07:35:57.000Z</time>
      </trkpt>
      <trkpt lat="50.53592" lon="3.48017">
        <ele>34.7</ele>
        <time>2021-09-05T07:36:01.000Z</time>
      </trkpt>
      <trkpt lat="50.53588" lon="3.48038">
        <ele>34.8</ele>
        <time>2021-09-05T07:36:03.653Z</time>
      </trkpt>
      <trkpt lat="50.53584" lon="3.48057">
        <ele>35</ele>
        <time>2021-09-05T07:36:07.012Z</time>
      </trkpt>
      <trkpt lat="50.53582" lon="3.48074">
        <ele>35.1</ele>
        <time>2021-09-05T07:36:11.000Z</time>
      </trkpt>
      <trkpt lat="50.53579" lon="3.48096">
        <ele>34.9</ele>
        <time>2021-09-05T07:36:15.000Z</time>
      </trkpt>
      <trkpt lat="50.53576" lon="3.48111">
        <ele>34.8</ele>
        <time>2021-09-05T07:36:18.000Z</time>
      </trkpt>
      <trkpt lat="50.53575" lon="3.48126">
        <ele>34.5</ele>
        <time>2021-09-05T07:36:20.130Z</time>
      </trkpt>
      <trkpt lat="50.53573" lon="3.48144">
        <ele>34.4</ele>
        <time>2021-09-05T07:36:23.489Z</time>
      </trkpt>
      <trkpt lat="50.5357" lon="3.48162">
        <ele>34.5</ele>
        <time>2021-09-05T07:36:26.991Z</time>
      </trkpt>
      <trkpt lat="50.53568" lon="3.48179">
        <ele>34.4</ele>
        <time>2021-09-05T07:36:31.000Z</time>
      </trkpt>
      <trkpt lat="50.53565" lon="3.48195">
        <ele>34.3</ele>
        <time>2021-09-05T07:36:34.000Z</time>
      </trkpt>
      <trkpt lat="50.53562" lon="3.4821">
        <ele>34.5</ele>
        <time>2021-09-05T07:36:37.000Z</time>
      </trkpt>
      <trkpt lat="50.53558" lon="3.4823">
        <ele>34.6</ele>
        <time>2021-09-05T07:36:41.000Z</time>
      </trkpt>
      <trkpt lat="50.53555" lon="3.48255">
        <ele>34.1</ele>
        <time>2021-09-05T07:36:45.000Z</time>
      </trkpt>
      <trkpt lat="50.53551" lon="3.48277">
        <ele>34.8</ele>
        <time>2021-09-05T07:36:49.000Z</time>
      </trkpt>
      <trkpt lat="50.53548" lon="3.48294">
        <ele>34.8</ele>
        <time>2021-09-05T07:36:53.000Z</time>
      </trkpt>
      <trkpt lat="50.53545" lon="3.48311">
        <ele>34.8</ele>
        <time>2021-09-05T07:36:57.000Z</time>
      </trkpt>
      <trkpt lat="50.53542" lon="3.48325">
        <ele>34.8</ele>
        <time>2021-09-05T07:37:00.000Z</time>
      </trkpt>
      <trkpt lat="50.53539" lon="3.48345">
        <ele>34.5</ele>
        <time>2021-09-05T07:37:04.000Z</time>
      </trkpt>
      <trkpt lat="50.53537" lon="3.48361">
        <ele>34.3</ele>
        <time>2021-09-05T07:37:06.529Z</time>
      </trkpt>
      <trkpt lat="50.53533" lon="3.48377">
        <ele>34.6</ele>
        <time>2021-09-05T07:37:11.000Z</time>
      </trkpt>
      <trkpt lat="50.53531" lon="3.48392">
        <ele>34.7</ele>
        <time>2021-09-05T07:37:14.000Z</time>
      </trkpt>
      <trkpt lat="50.53528" lon="3.48412">
        <ele>34.2</ele>
        <time>2021-09-05T07:37:18.000Z</time>
      </trkpt>
      <trkpt lat="50.53525" lon="3.48431">
        <ele>34.5</ele>
        <time>2021-09-05T07:37:20.835Z</time>
      </trkpt>
      <trkpt lat="50.53522" lon="3.48448">
        <ele>35</ele>
        <time>2021-09-05T07:37:25.000Z</time>
      </trkpt>
      <trkpt lat="50.5352" lon="3.48461">
        <ele>35.2</ele>
        <time>2021-09-05T07:37:28.000Z</time>
      </trkpt>
      <trkpt lat="50.53517" lon="3.48475">
        <ele>35.5</ele>
        <time>2021-09-05T07:37:31.000Z</time>
      </trkpt>
      <trkpt lat="50.53515" lon="3.4849">
        <ele>35.2</ele>
        <time>2021-09-05T07:37:34.000Z</time>
      </trkpt>
      <trkpt lat="50.53513" lon="3.48507">
        <ele>35</ele>
        <time>2021-09-05T07:37:36.666Z</time>
      </trkpt>
      <trkpt lat="50.5351" lon="3.48524">
        <ele>35</ele>
        <time>2021-09-05T07:37:41.000Z</time>
      </trkpt>
      <trkpt lat="50.53508" lon="3.4854">
        <ele>34.8</ele>
        <time>2021-09-05T07:37:44.000Z</time>
      </trkpt>
      <trkpt lat="50.53506" lon="3.48556">
        <ele>34.6</ele>
        <time>2021-09-05T07:37:46.153Z</time>
      </trkpt>
      <trkpt lat="50.53502" lon="3.48575">
        <ele>34.2</ele>
        <time>2021-09-05T07:37:49.991Z</time>
      </trkpt>
      <trkpt lat="50.53498" lon="3.48591">
        <ele>34.5</ele>
        <time>2021-09-05T07:37:53.022Z</time>
      </trkpt>
      <trkpt lat="50.53495" lon="3.48608">
        <ele>34.9</ele>
        <time>2021-09-05T07:37:56.272Z</time>
      </trkpt>
      <trkpt lat="50.53493" lon="3.48623">
        <ele>35.3</ele>
        <time>2021-09-05T07:37:59.422Z</time>
      </trkpt>
      <trkpt lat="50.5349" lon="3.48641">
        <ele>35.7</ele>
        <time>2021-09-05T07:38:02.855Z</time>
      </trkpt>
      <trkpt lat="50.53488" lon="3.48659">
        <ele>35.1</ele>
        <time>2021-09-05T07:38:06.195Z</time>
      </trkpt>
      <trkpt lat="50.53485" lon="3.48677">
        <ele>35</ele>
        <time>2021-09-05T07:38:09.626Z</time>
      </trkpt>
      <trkpt lat="50.53482" lon="3.48693">
        <ele>35</ele>
        <time>2021-09-05T07:38:14.000Z</time>
      </trkpt>
      <trkpt lat="50.5348" lon="3.48707">
        <ele>34.8</ele>
        <time>2021-09-05T07:38:16.132Z</time>
      </trkpt>
      <trkpt lat="50.53478" lon="3.48725">
        <ele>34.6</ele>
        <time>2021-09-05T07:38:19.828Z</time>
      </trkpt>
      <trkpt lat="50.53475" lon="3.4874">
        <ele>34.8</ele>
        <time>2021-09-05T07:38:24.000Z</time>
      </trkpt>
      <trkpt lat="50.53473" lon="3.48753">
        <ele>34.8</ele>
        <time>2021-09-05T07:38:27.000Z</time>
      </trkpt>
      <trkpt lat="50.5347" lon="3.48773">
        <ele>34.7</ele>
        <time>2021-09-05T07:38:30.009Z</time>
      </trkpt>
      <trkpt lat="50.53467" lon="3.48788">
        <ele>34.8</ele>
        <time>2021-09-05T07:38:34.000Z</time>
      </trkpt>
      <trkpt lat="50.53464" lon="3.48804">
        <ele>34.8</ele>
        <time>2021-09-05T07:38:37.000Z</time>
      </trkpt>
      <trkpt lat="50.53461" lon="3.48825">
        <ele>35.1</ele>
        <time>2021-09-05T07:38:39.906Z</time>
      </trkpt>
      <trkpt lat="50.53458" lon="3.48842">
        <ele>35.2</ele>
        <time>2021-09-05T07:38:44.000Z</time>
      </trkpt>
      <trkpt lat="50.53455" lon="3.48859">
        <ele>35</ele>
        <time>2021-09-05T07:38:46.306Z</time>
      </trkpt>
      <trkpt lat="50.53452" lon="3.48879">
        <ele>34.7</ele>
        <time>2021-09-05T07:38:51.000Z</time>
      </trkpt>
      <trkpt lat="50.5345" lon="3.48898">
        <ele>34.6</ele>
        <time>2021-09-05T07:38:53.671Z</time>
      </trkpt>
      <trkpt lat="50.53446" lon="3.48915">
        <ele>34.9</ele>
        <time>2021-09-05T07:38:58.000Z</time>
      </trkpt>
      <trkpt lat="50.53444" lon="3.48932">
        <ele>34.5</ele>
        <time>2021-09-05T07:39:00.265Z</time>
      </trkpt>
      <trkpt lat="50.53441" lon="3.4895">
        <ele>34.7</ele>
        <time>2021-09-05T07:39:05.000Z</time>
      </trkpt>
      <trkpt lat="50.53439" lon="3.48964">
        <ele>35</ele>
        <time>2021-09-05T07:39:08.000Z</time>
      </trkpt>
      <trkpt lat="50.53436" lon="3.48983">
        <ele>35.1</ele>
        <time>2021-09-05T07:39:12.000Z</time>
      </trkpt>
      <trkpt lat="50.53434" lon="3.49002">
        <ele>34.8</ele>
        <time>2021-09-05T07:39:14.649Z</time>
      </trkpt>
      <trkpt lat="50.53431" lon="3.49019">
        <ele>34.8</ele>
        <time>2021-09-05T07:39:18.033Z</time>
      </trkpt>
      <trkpt lat="50.53428" lon="3.49035">
        <ele>34.8</ele>
        <time>2021-09-05T07:39:22.000Z</time>
      </trkpt>
      <trkpt lat="50.53426" lon="3.4905">
        <ele>35</ele>
        <time>2021-09-05T07:39:25.000Z</time>
      </trkpt>
      <trkpt lat="50.53423" lon="3.4907">
        <ele>34.9</ele>
        <time>2021-09-05T07:39:29.000Z</time>
      </trkpt>
      <trkpt lat="50.53421" lon="3.49085">
        <ele>34.6</ele>
        <time>2021-09-05T07:39:32.000Z</time>
      </trkpt>
      <trkpt lat="50.53418" lon="3.49101">
        <ele>34.3</ele>
        <time>2021-09-05T07:39:35.000Z</time>
      </trkpt>
      <trkpt lat="50.53415" lon="3.49117">
        <ele>34.4</ele>
        <time>2021-09-05T07:39:38.000Z</time>
      </trkpt>
      <trkpt lat="50.53413" lon="3.4913">
        <ele>34.7</ele>
        <time>2021-09-05T07:39:41.000Z</time>
      </trkpt>
      <trkpt lat="50.5341" lon="3.49145">
        <ele>35</ele>
        <time>2021-09-05T07:39:45.000Z</time>
      </trkpt>
      <trkpt lat="50.53408" lon="3.49161">
        <ele>34.8</ele>
        <time>2021-09-05T07:39:48.000Z</time>
      </trkpt>
      <trkpt lat="50.53405" lon="3.4918">
        <ele>34.9</ele>
        <time>2021-09-05T07:39:50.433Z</time>
      </trkpt>
      <trkpt lat="50.53402" lon="3.49196">
        <ele>35.1</ele>
        <time>2021-09-05T07:39:55.000Z</time>
      </trkpt>
      <trkpt lat="50.534" lon="3.49208">
        <ele>35.1</ele>
        <time>2021-09-05T07:39:58.000Z</time>
      </trkpt>
      <trkpt lat="50.53398" lon="3.49219">
        <ele>35.1</ele>
        <time>2021-09-05T07:40:01.000Z</time>
      </trkpt>
      <trkpt lat="50.53396" lon="3.49231">
        <ele>35</ele>
        <time>2021-09-05T07:40:04.000Z</time>
      </trkpt>
      <trkpt lat="50.53393" lon="3.49247">
        <ele>34.8</ele>
        <time>2021-09-05T07:40:06.573Z</time>
      </trkpt>
      <trkpt lat="50.53391" lon="3.49264">
        <ele>34.4</ele>
        <time>2021-09-05T07:40:11.000Z</time>
      </trkpt>
      <trkpt lat="50.53388" lon="3.4928">
        <ele>34.2</ele>
        <time>2021-09-05T07:40:13.467Z</time>
      </trkpt>
      <trkpt lat="50.53385" lon="3.49298">
        <ele>34.9</ele>
        <time>2021-09-05T07:40:18.000Z</time>
      </trkpt>
      <trkpt lat="50.53383" lon="3.49312">
        <ele>35.2</ele>
        <time>2021-09-05T07:40:21.000Z</time>
      </trkpt>
      <trkpt lat="50.5338" lon="3.49332">
        <ele>35.6</ele>
        <time>2021-09-05T07:40:23.852Z</time>
      </trkpt>
      <trkpt lat="50.53377" lon="3.49348">
        <ele>35.4</ele>
        <time>2021-09-05T07:40:28.000Z</time>
      </trkpt>
      <trkpt lat="50.53376" lon="3.49363">
        <ele>34.8</ele>
        <time>2021-09-05T07:40:31.000Z</time>
      </trkpt>
      <trkpt lat="50.53373" lon="3.49382">
        <ele>34.9</ele>
        <time>2021-09-05T07:40:33.889Z</time>
      </trkpt>
      <trkpt lat="50.53371" lon="3.49394">
        <ele>34.8</ele>
        <time>2021-09-05T07:40:38.000Z</time>
      </trkpt>
      <trkpt lat="50.5337" lon="3.49404">
        <ele>34.7</ele>
        <time>2021-09-05T07:40:41.000Z</time>
      </trkpt>
      <trkpt lat="50.53367" lon="3.4942">
        <ele>34.6</ele>
        <time>2021-09-05T07:40:45.000Z</time>
      </trkpt>
      <trkpt lat="50.53364" lon="3.4943">
        <ele>34.8</ele>
        <time>2021-09-05T07:40:48.000Z</time>
      </trkpt>
      <trkpt lat="50.53364" lon="3.49441">
        <ele>34.8</ele>
        <time>2021-09-05T07:40:52.000Z</time>
      </trkpt>
      <trkpt lat="50.53362" lon="3.49455">
        <ele>34.6</ele>
        <time>2021-09-05T07:40:55.000Z</time>
      </trkpt>
      <trkpt lat="50.53356" lon="3.49486">
        <ele>34.6</ele>
        <time>2021-09-05T07:40:59.000Z</time>
      </trkpt>
      <trkpt lat="50.53351" lon="3.49503">
        <ele>35.1</ele>
        <time>2021-09-05T07:41:02.000Z</time>
      </trkpt>
      <trkpt lat="50.53349" lon="3.49526">
        <ele>35.2</ele>
        <time>2021-09-05T07:41:04.645Z</time>
      </trkpt>
      <trkpt lat="50.53346" lon="3.49546">
        <ele>35</ele>
        <time>2021-09-05T07:41:09.000Z</time>
      </trkpt>
      <trkpt lat="50.53344" lon="3.49563">
        <ele>34.7</ele>
        <time>2021-09-05T07:41:11.048Z</time>
      </trkpt>
      <trkpt lat="50.5334" lon="3.49581">
        <ele>34.6</ele>
        <time>2021-09-05T07:41:14.366Z</time>
      </trkpt>
      <trkpt lat="50.53337" lon="3.49601">
        <ele>34.7</ele>
        <time>2021-09-05T07:41:19.000Z</time>
      </trkpt>
      <trkpt lat="50.53334" lon="3.49623">
        <ele>34.5</ele>
        <time>2021-09-05T07:41:23.000Z</time>
      </trkpt>
      <trkpt lat="50.53331" lon="3.49641">
        <ele>34.5</ele>
        <time>2021-09-05T07:41:25.545Z</time>
      </trkpt>
      <trkpt lat="50.53328" lon="3.49659">
        <ele>35</ele>
        <time>2021-09-05T07:41:30.000Z</time>
      </trkpt>
      <trkpt lat="50.53325" lon="3.49675">
        <ele>35.2</ele>
        <time>2021-09-05T07:41:32.524Z</time>
      </trkpt>
      <trkpt lat="50.53322" lon="3.49694">
        <ele>35.1</ele>
        <time>2021-09-05T07:41:37.000Z</time>
      </trkpt>
      <trkpt lat="50.5332" lon="3.49707">
        <ele>35</ele>
        <time>2021-09-05T07:41:40.000Z</time>
      </trkpt>
      <trkpt lat="50.53319" lon="3.49719">
        <ele>34.7</ele>
        <time>2021-09-05T07:41:43.000Z</time>
      </trkpt>
      <trkpt lat="50.53316" lon="3.49737">
        <ele>34.5</ele>
        <time>2021-09-05T07:41:47.000Z</time>
      </trkpt>
      <trkpt lat="50.53313" lon="3.49755">
        <ele>34.5</ele>
        <time>2021-09-05T07:41:51.000Z</time>
      </trkpt>
      <trkpt lat="50.53311" lon="3.49769">
        <ele>34.6</ele>
        <time>2021-09-05T07:41:54.000Z</time>
      </trkpt>
      <trkpt lat="50.53308" lon="3.49788">
        <ele>34.5</ele>
        <time>2021-09-05T07:41:58.000Z</time>
      </trkpt>
      <trkpt lat="50.53305" lon="3.49805">
        <ele>34.2</ele>
        <time>2021-09-05T07:42:00.522Z</time>
      </trkpt>
      <trkpt lat="50.53302" lon="3.49819">
        <ele>34.8</ele>
        <time>2021-09-05T07:42:03.723Z</time>
      </trkpt>
      <trkpt lat="50.533" lon="3.49834">
        <ele>35</ele>
        <time>2021-09-05T07:42:06.801Z</time>
      </trkpt>
      <trkpt lat="50.53297" lon="3.49849">
        <ele>35</ele>
        <time>2021-09-05T07:42:11.000Z</time>
      </trkpt>
      <trkpt lat="50.53295" lon="3.49864">
        <ele>34.9</ele>
        <time>2021-09-05T07:42:14.000Z</time>
      </trkpt>
      <trkpt lat="50.53292" lon="3.49879">
        <ele>35.1</ele>
        <time>2021-09-05T07:42:16.240Z</time>
      </trkpt>
      <trkpt lat="50.53289" lon="3.49897">
        <ele>35.2</ele>
        <time>2021-09-05T07:42:19.720Z</time>
      </trkpt>
      <trkpt lat="50.53287" lon="3.49913">
        <ele>35.1</ele>
        <time>2021-09-05T07:42:22.743Z</time>
      </trkpt>
      <trkpt lat="50.53285" lon="3.4993">
        <ele>34.9</ele>
        <time>2021-09-05T07:42:27.000Z</time>
      </trkpt>
      <trkpt lat="50.53282" lon="3.49948">
        <ele>34.6</ele>
        <time>2021-09-05T07:42:29.506Z</time>
      </trkpt>
      <trkpt lat="50.53279" lon="3.49966">
        <ele>34.2</ele>
        <time>2021-09-05T07:42:34.000Z</time>
      </trkpt>
      <trkpt lat="50.53277" lon="3.49982">
        <ele>34.2</ele>
        <time>2021-09-05T07:42:37.000Z</time>
      </trkpt>
      <trkpt lat="50.53275" lon="3.49996">
        <ele>34.5</ele>
        <time>2021-09-05T07:42:40.000Z</time>
      </trkpt>
      <trkpt lat="50.53273" lon="3.50008">
        <ele>34.6</ele>
        <time>2021-09-05T07:42:43.000Z</time>
      </trkpt>
      <trkpt lat="50.5327" lon="3.50025">
        <ele>34.5</ele>
        <time>2021-09-05T07:42:45.049Z</time>
      </trkpt>
      <trkpt lat="50.53268" lon="3.50045">
        <ele>34.5</ele>
        <time>2021-09-05T07:42:50.000Z</time>
      </trkpt>
      <trkpt lat="50.53263" lon="3.50064">
        <ele>34.8</ele>
        <time>2021-09-05T07:42:53.000Z</time>
      </trkpt>
      <trkpt lat="50.53259" lon="3.50084">
        <ele>34.4</ele>
        <time>2021-09-05T07:42:56.000Z</time>
      </trkpt>
      <trkpt lat="50.53258" lon="3.50106">
        <ele>34.4</ele>
        <time>2021-09-05T07:43:00.000Z</time>
      </trkpt>
      <trkpt lat="50.5325" lon="3.50131">
        <ele>34.3</ele>
        <time>2021-09-05T07:43:02.813Z</time>
      </trkpt>
      <trkpt lat="50.53244" lon="3.50152">
        <ele>34.6</ele>
        <time>2021-09-05T07:43:06.041Z</time>
      </trkpt>
      <trkpt lat="50.53238" lon="3.50176">
        <ele>34.9</ele>
        <time>2021-09-05T07:43:10.000Z</time>
      </trkpt>
      <trkpt lat="50.53233" lon="3.5019">
        <ele>35</ele>
        <time>2021-09-05T07:43:13.000Z</time>
      </trkpt>
      <trkpt lat="50.53229" lon="3.50209">
        <ele>34.9</ele>
        <time>2021-09-05T07:43:15.501Z</time>
      </trkpt>
      <trkpt lat="50.53225" lon="3.50231">
        <ele>34.8</ele>
        <time>2021-09-05T07:43:18.737Z</time>
      </trkpt>
      <trkpt lat="50.53221" lon="3.5025">
        <ele>35.2</ele>
        <time>2021-09-05T07:43:23.000Z</time>
      </trkpt>
      <trkpt lat="50.53218" lon="3.50267">
        <ele>34.6</ele>
        <time>2021-09-05T07:43:25.744Z</time>
      </trkpt>
      <trkpt lat="50.53215" lon="3.5028">
        <ele>34.5</ele>
        <time>2021-09-05T07:43:30.000Z</time>
      </trkpt>
      <trkpt lat="50.53212" lon="3.50291">
        <ele>34.7</ele>
        <time>2021-09-05T07:43:33.000Z</time>
      </trkpt>
      <trkpt lat="50.53207" lon="3.50304">
        <ele>34.7</ele>
        <time>2021-09-05T07:43:36.000Z</time>
      </trkpt>
      <trkpt lat="50.53204" lon="3.50315">
        <ele>34.7</ele>
        <time>2021-09-05T07:43:39.000Z</time>
      </trkpt>
      <trkpt lat="50.53199" lon="3.50332">
        <ele>34.7</ele>
        <time>2021-09-05T07:43:43.000Z</time>
      </trkpt>
      <trkpt lat="50.53195" lon="3.5035">
        <ele>34.4</ele>
        <time>2021-09-05T07:43:47.000Z</time>
      </trkpt>
      <trkpt lat="50.53191" lon="3.50365">
        <ele>34.6</ele>
        <time>2021-09-05T07:43:49.554Z</time>
      </trkpt>
      <trkpt lat="50.53188" lon="3.50378">
        <ele>34.6</ele>
        <time>2021-09-05T07:43:52.567Z</time>
      </trkpt>
      <trkpt lat="50.53182" lon="3.50397">
        <ele>35</ele>
        <time>2021-09-05T07:43:58.000Z</time>
      </trkpt>
      <trkpt lat="50.53177" lon="3.50416">
        <ele>34.9</ele>
        <time>2021-09-05T07:44:02.000Z</time>
      </trkpt>
      <trkpt lat="50.53173" lon="3.50428">
        <ele>35</ele>
        <time>2021-09-05T07:44:05.000Z</time>
      </trkpt>
      <trkpt lat="50.53168" lon="3.50442">
        <ele>35</ele>
        <time>2021-09-05T07:44:07.218Z</time>
      </trkpt>
      <trkpt lat="50.53162" lon="3.50459">
        <ele>35.4</ele>
        <time>2021-09-05T07:44:12.000Z</time>
      </trkpt>
      <trkpt lat="50.53157" lon="3.50473">
        <ele>35.7</ele>
        <time>2021-09-05T07:44:14.641Z</time>
      </trkpt>
      <trkpt lat="50.53153" lon="3.50486">
        <ele>35.5</ele>
        <time>2021-09-05T07:44:17.663Z</time>
      </trkpt>
      <trkpt lat="50.53149" lon="3.505">
        <ele>34.9</ele>
        <time>2021-09-05T07:44:20.759Z</time>
      </trkpt>
      <trkpt lat="50.53144" lon="3.50514">
        <ele>35</ele>
        <time>2021-09-05T07:44:25.000Z</time>
      </trkpt>
      <trkpt lat="50.5314" lon="3.5053">
        <ele>34.8</ele>
        <time>2021-09-05T07:44:27.662Z</time>
      </trkpt>
      <trkpt lat="50.53136" lon="3.50545">
        <ele>34.9</ele>
        <time>2021-09-05T07:44:32.000Z</time>
      </trkpt>
      <trkpt lat="50.53133" lon="3.50559">
        <ele>34.9</ele>
        <time>2021-09-05T07:44:35.000Z</time>
      </trkpt>
      <trkpt lat="50.53129" lon="3.50574">
        <ele>34.6</ele>
        <time>2021-09-05T07:44:39.000Z</time>
      </trkpt>
      <trkpt lat="50.53126" lon="3.50585">
        <ele>34.4</ele>
        <time>2021-09-05T07:44:43.000Z</time>
      </trkpt>
      <trkpt lat="50.53128" lon="3.50579">
        <ele>34.5</ele>
        <time>2021-09-05T07:48:21.000Z</time>
      </trkpt>
      <trkpt lat="50.53125" lon="3.50587">
        <ele>34.4</ele>
        <time>2021-09-05T07:48:56.000Z</time>
      </trkpt>
      <trkpt lat="50.53122" lon="3.50596">
        <ele>34.5</ele>
        <time>2021-09-05T07:48:59.000Z</time>
      </trkpt>
      <trkpt lat="50.53117" lon="3.50607">
        <ele>34.7</ele>
        <time>2021-09-05T07:49:02.000Z</time>
      </trkpt>
      <trkpt lat="50.53111" lon="3.50618">
        <ele>34.8</ele>
        <time>2021-09-05T07:49:04.610Z</time>
      </trkpt>
      <trkpt lat="50.53107" lon="3.50628">
        <ele>35.2</ele>
        <time>2021-09-05T07:49:09.000Z</time>
      </trkpt>
      <trkpt lat="50.53103" lon="3.50635">
        <ele>35.6</ele>
        <time>2021-09-05T07:49:12.000Z</time>
      </trkpt>
      <trkpt lat="50.53101" lon="3.50642">
        <ele>35.6</ele>
        <time>2021-09-05T07:49:15.000Z</time>
      </trkpt>
      <trkpt lat="50.53097" lon="3.50655">
        <ele>35.4</ele>
        <time>2021-09-05T07:49:17.892Z</time>
      </trkpt>
      <trkpt lat="50.53092" lon="3.50671">
        <ele>35</ele>
        <time>2021-09-05T07:49:22.000Z</time>
      </trkpt>
      <trkpt lat="50.53086" lon="3.50688">
        <ele>35</ele>
        <time>2021-09-05T07:49:25.000Z</time>
      </trkpt>
      <trkpt lat="50.53078" lon="3.50712">
        <ele>35.4</ele>
        <time>2021-09-05T07:49:29.000Z</time>
      </trkpt>
      <trkpt lat="50.53072" lon="3.50732">
        <ele>35.4</ele>
        <time>2021-09-05T07:49:31.894Z</time>
      </trkpt>
      <trkpt lat="50.53066" lon="3.5075">
        <ele>34.9</ele>
        <time>2021-09-05T07:49:36.000Z</time>
      </trkpt>
      <trkpt lat="50.53058" lon="3.50771">
        <ele>35</ele>
        <time>2021-09-05T07:49:40.000Z</time>
      </trkpt>
      <trkpt lat="50.53052" lon="3.50787">
        <ele>35</ele>
        <time>2021-09-05T07:49:43.000Z</time>
      </trkpt>
      <trkpt lat="50.53046" lon="3.50807">
        <ele>34.7</ele>
        <time>2021-09-05T07:49:46.558Z</time>
      </trkpt>
      <trkpt lat="50.53039" lon="3.50824">
        <ele>34.8</ele>
        <time>2021-09-05T07:49:51.000Z</time>
      </trkpt>
      <trkpt lat="50.53035" lon="3.50835">
        <ele>34.4</ele>
        <time>2021-09-05T07:49:54.000Z</time>
      </trkpt>
      <trkpt lat="50.5303" lon="3.50847">
        <ele>34.4</ele>
        <time>2021-09-05T07:49:57.000Z</time>
      </trkpt>
      <trkpt lat="50.53024" lon="3.50859">
        <ele>34.9</ele>
        <time>2021-09-05T07:49:59.050Z</time>
      </trkpt>
      <trkpt lat="50.53017" lon="3.50875">
        <ele>35.4</ele>
        <time>2021-09-05T07:50:02.766Z</time>
      </trkpt>
      <trkpt lat="50.53013" lon="3.50889">
        <ele>35.1</ele>
        <time>2021-09-05T07:50:05.910Z</time>
      </trkpt>
      <trkpt lat="50.53008" lon="3.50902">
        <ele>35.2</ele>
        <time>2021-09-05T07:50:10.000Z</time>
      </trkpt>
      <trkpt lat="50.53001" lon="3.5092">
        <ele>34.9</ele>
        <time>2021-09-05T07:50:12.508Z</time>
      </trkpt>
      <trkpt lat="50.52994" lon="3.50936">
        <ele>35.8</ele>
        <time>2021-09-05T07:50:15.850Z</time>
      </trkpt>
      <trkpt lat="50.52986" lon="3.50953">
        <ele>35.9</ele>
        <time>2021-09-05T07:50:19.451Z</time>
      </trkpt>
      <trkpt lat="50.52978" lon="3.50971">
        <ele>34.9</ele>
        <time>2021-09-05T07:50:24.000Z</time>
      </trkpt>
      <trkpt lat="50.52969" lon="3.50989">
        <ele>35.4</ele>
        <time>2021-09-05T07:50:26.960Z</time>
      </trkpt>
      <trkpt lat="50.5296" lon="3.51006">
        <ele>35.9</ele>
        <time>2021-09-05T07:50:31.000Z</time>
      </trkpt>
      <trkpt lat="50.52951" lon="3.51027">
        <ele>34.8</ele>
        <time>2021-09-05T07:50:33.737Z</time>
      </trkpt>
      <trkpt lat="50.52943" lon="3.51044">
        <ele>35.2</ele>
        <time>2021-09-05T07:50:37.068Z</time>
      </trkpt>
      <trkpt lat="50.52936" lon="3.51056">
        <ele>35.9</ele>
        <time>2021-09-05T07:50:41.000Z</time>
      </trkpt>
      <trkpt lat="50.52929" lon="3.51067">
        <ele>35.8</ele>
        <time>2021-09-05T07:50:44.000Z</time>
      </trkpt>
      <trkpt lat="50.52921" lon="3.51081">
        <ele>35.1</ele>
        <time>2021-09-05T07:50:46.313Z</time>
      </trkpt>
      <trkpt lat="50.52913" lon="3.51097">
        <ele>35.5</ele>
        <time>2021-09-05T07:50:49.571Z</time>
      </trkpt>
      <trkpt lat="50.52906" lon="3.51111">
        <ele>36.2</ele>
        <time>2021-09-05T07:50:52.732Z</time>
      </trkpt>
      <trkpt lat="50.52899" lon="3.51126">
        <ele>35.7</ele>
        <time>2021-09-05T07:50:57.000Z</time>
      </trkpt>
      <trkpt lat="50.52893" lon="3.51137">
        <ele>35</ele>
        <time>2021-09-05T07:51:00.000Z</time>
      </trkpt>
      <trkpt lat="50.52886" lon="3.51149">
        <ele>34.9</ele>
        <time>2021-09-05T07:51:02.593Z</time>
      </trkpt>
      <trkpt lat="50.52879" lon="3.51165">
        <ele>35.1</ele>
        <time>2021-09-05T07:51:07.000Z</time>
      </trkpt>
      <trkpt lat="50.52871" lon="3.51179">
        <ele>35.4</ele>
        <time>2021-09-05T07:51:10.000Z</time>
      </trkpt>
      <trkpt lat="50.52862" lon="3.51196">
        <ele>35</ele>
        <time>2021-09-05T07:51:12.498Z</time>
      </trkpt>
      <trkpt lat="50.52853" lon="3.51213">
        <ele>35.6</ele>
        <time>2021-09-05T07:51:17.000Z</time>
      </trkpt>
      <trkpt lat="50.52845" lon="3.51231">
        <ele>35.7</ele>
        <time>2021-09-05T07:51:20.282Z</time>
      </trkpt>
      <trkpt lat="50.52837" lon="3.51244">
        <ele>35.3</ele>
        <time>2021-09-05T07:51:24.000Z</time>
      </trkpt>
      <trkpt lat="50.52831" lon="3.51255">
        <ele>35.2</ele>
        <time>2021-09-05T07:51:27.000Z</time>
      </trkpt>
      <trkpt lat="50.52821" lon="3.51272">
        <ele>35.5</ele>
        <time>2021-09-05T07:51:29.644Z</time>
      </trkpt>
      <trkpt lat="50.52813" lon="3.51288">
        <ele>35.4</ele>
        <time>2021-09-05T07:51:34.000Z</time>
      </trkpt>
      <trkpt lat="50.52805" lon="3.51303">
        <ele>35.1</ele>
        <time>2021-09-05T07:51:36.703Z</time>
      </trkpt>
      <trkpt lat="50.52799" lon="3.51314">
        <ele>35.2</ele>
        <time>2021-09-05T07:51:39.902Z</time>
      </trkpt>
      <trkpt lat="50.52792" lon="3.51327">
        <ele>35.2</ele>
        <time>2021-09-05T07:51:44.000Z</time>
      </trkpt>
      <trkpt lat="50.52784" lon="3.51342">
        <ele>35.3</ele>
        <time>2021-09-05T07:51:47.000Z</time>
      </trkpt>
      <trkpt lat="50.52775" lon="3.51358">
        <ele>35.4</ele>
        <time>2021-09-05T07:51:50.563Z</time>
      </trkpt>
      <trkpt lat="50.52766" lon="3.51375">
        <ele>35.3</ele>
        <time>2021-09-05T07:51:54.343Z</time>
      </trkpt>
      <trkpt lat="50.52757" lon="3.51391">
        <ele>34.7</ele>
        <time>2021-09-05T07:51:58.000Z</time>
      </trkpt>
      <trkpt lat="50.52748" lon="3.51411">
        <ele>34.5</ele>
        <time>2021-09-05T07:52:01.626Z</time>
      </trkpt>
      <trkpt lat="50.52738" lon="3.5143">
        <ele>35.2</ele>
        <time>2021-09-05T07:52:04.599Z</time>
      </trkpt>
      <trkpt lat="50.52728" lon="3.51447">
        <ele>36</ele>
        <time>2021-09-05T07:52:09.000Z</time>
      </trkpt>
      <trkpt lat="50.5272" lon="3.51465">
        <ele>35.1</ele>
        <time>2021-09-05T07:52:11.316Z</time>
      </trkpt>
      <trkpt lat="50.52711" lon="3.51483">
        <ele>35.2</ele>
        <time>2021-09-05T07:52:14.818Z</time>
      </trkpt>
      <trkpt lat="50.52704" lon="3.51498">
        <ele>34.5</ele>
        <time>2021-09-05T07:52:19.000Z</time>
      </trkpt>
      <trkpt lat="50.52696" lon="3.51516">
        <ele>34.3</ele>
        <time>2021-09-05T07:52:23.000Z</time>
      </trkpt>
      <trkpt lat="50.52688" lon="3.5153">
        <ele>34.9</ele>
        <time>2021-09-05T07:52:25.635Z</time>
      </trkpt>
      <trkpt lat="50.52681" lon="3.51542">
        <ele>35.2</ele>
        <time>2021-09-05T07:52:28.642Z</time>
      </trkpt>
      <trkpt lat="50.52675" lon="3.51556">
        <ele>34.7</ele>
        <time>2021-09-05T07:52:32.017Z</time>
      </trkpt>
      <trkpt lat="50.52668" lon="3.51571">
        <ele>33.9</ele>
        <time>2021-09-05T07:52:36.000Z</time>
      </trkpt>
      <trkpt lat="50.5266" lon="3.51587">
        <ele>33.7</ele>
        <time>2021-09-05T07:52:38.839Z</time>
      </trkpt>
      <trkpt lat="50.52654" lon="3.51599">
        <ele>34.1</ele>
        <time>2021-09-05T07:52:43.000Z</time>
      </trkpt>
      <trkpt lat="50.52646" lon="3.51614">
        <ele>34.3</ele>
        <time>2021-09-05T07:52:46.261Z</time>
      </trkpt>
      <trkpt lat="50.52639" lon="3.51629">
        <ele>33.7</ele>
        <time>2021-09-05T07:52:50.000Z</time>
      </trkpt>
      <trkpt lat="50.52632" lon="3.51647">
        <ele>33.1</ele>
        <time>2021-09-05T07:52:53.417Z</time>
      </trkpt>
      <trkpt lat="50.52625" lon="3.51662">
        <ele>33.8</ele>
        <time>2021-09-05T07:52:57.000Z</time>
      </trkpt>
      <trkpt lat="50.52616" lon="3.5168">
        <ele>34.3</ele>
        <time>2021-09-05T07:53:00.621Z</time>
      </trkpt>
      <trkpt lat="50.5261" lon="3.51695">
        <ele>33.9</ele>
        <time>2021-09-05T07:53:04.000Z</time>
      </trkpt>
      <trkpt lat="50.52603" lon="3.5171">
        <ele>33.3</ele>
        <time>2021-09-05T07:53:07.201Z</time>
      </trkpt>
      <trkpt lat="50.52597" lon="3.51727">
        <ele>33.6</ele>
        <time>2021-09-05T07:53:11.000Z</time>
      </trkpt>
      <trkpt lat="50.52591" lon="3.5174">
        <ele>34.2</ele>
        <time>2021-09-05T07:53:14.000Z</time>
      </trkpt>
      <trkpt lat="50.52586" lon="3.51751">
        <ele>34.7</ele>
        <time>2021-09-05T07:53:17.000Z</time>
      </trkpt>
      <trkpt lat="50.52581" lon="3.51764">
        <ele>33.8</ele>
        <time>2021-09-05T07:53:20.079Z</time>
      </trkpt>
      <trkpt lat="50.52575" lon="3.51778">
        <ele>33</ele>
        <time>2021-09-05T07:53:23.472Z</time>
      </trkpt>
      <trkpt lat="50.5257" lon="3.51794">
        <ele>33.9</ele>
        <time>2021-09-05T07:53:27.236Z</time>
      </trkpt>
      <trkpt lat="50.52565" lon="3.51809">
        <ele>34.6</ele>
        <time>2021-09-05T07:53:31.000Z</time>
      </trkpt>
      <trkpt lat="50.52555" lon="3.51829">
        <ele>34.9</ele>
        <time>2021-09-05T07:53:35.000Z</time>
      </trkpt>
      <trkpt lat="50.52548" lon="3.51845">
        <ele>33.9</ele>
        <time>2021-09-05T07:53:38.000Z</time>
      </trkpt>
      <trkpt lat="50.52542" lon="3.51863">
        <ele>34</ele>
        <time>2021-09-05T07:53:41.556Z</time>
      </trkpt>
      <trkpt lat="50.52535" lon="3.51879">
        <ele>34.5</ele>
        <time>2021-09-05T07:53:44.776Z</time>
      </trkpt>
      <trkpt lat="50.5253" lon="3.51896">
        <ele>34.9</ele>
        <time>2021-09-05T07:53:48.000Z</time>
      </trkpt>
      <trkpt lat="50.52525" lon="3.51912">
        <ele>34.9</ele>
        <time>2021-09-05T07:53:51.000Z</time>
      </trkpt>
      <trkpt lat="50.52516" lon="3.51932">
        <ele>34.3</ele>
        <time>2021-09-05T07:53:54.638Z</time>
      </trkpt>
      <trkpt lat="50.525" lon="3.51944">
        <ele>34</ele>
        <time>2021-09-05T07:53:58.000Z</time>
      </trkpt>
      <trkpt lat="50.52493" lon="3.51968">
        <ele>34.1</ele>
        <time>2021-09-05T07:54:01.000Z</time>
      </trkpt>
      <trkpt lat="50.52484" lon="3.51991">
        <ele>33.3</ele>
        <time>2021-09-05T07:54:04.000Z</time>
      </trkpt>
      <trkpt lat="50.52474" lon="3.52022">
        <ele>32.1</ele>
        <time>2021-09-05T07:54:08.000Z</time>
      </trkpt>
      <trkpt lat="50.52466" lon="3.52047">
        <ele>32.7</ele>
        <time>2021-09-05T07:54:11.000Z</time>
      </trkpt>
      <trkpt lat="50.52458" lon="3.52072">
        <ele>32.2</ele>
        <time>2021-09-05T07:54:14.000Z</time>
      </trkpt>
      <trkpt lat="50.52442" lon="3.52103">
        <ele>31.3</ele>
        <time>2021-09-05T07:54:18.000Z</time>
      </trkpt>
      <trkpt lat="50.52422" lon="3.52115">
        <ele>30.5</ele>
        <time>2021-09-05T07:54:22.000Z</time>
      </trkpt>
      <trkpt lat="50.52406" lon="3.52125">
        <ele>30</ele>
        <time>2021-09-05T07:54:26.000Z</time>
      </trkpt>
      <trkpt lat="50.52394" lon="3.52133">
        <ele>30</ele>
        <time>2021-09-05T07:54:29.000Z</time>
      </trkpt>
      <trkpt lat="50.52384" lon="3.52147">
        <ele>30.4</ele>
        <time>2021-09-05T07:54:31.818Z</time>
      </trkpt>
      <trkpt lat="50.52374" lon="3.5216">
        <ele>30.9</ele>
        <time>2021-09-05T07:54:34.858Z</time>
      </trkpt>
      <trkpt lat="50.52366" lon="3.5217">
        <ele>31</ele>
        <time>2021-09-05T07:54:39.000Z</time>
      </trkpt>
      <trkpt lat="50.52358" lon="3.52183">
        <ele>31.1</ele>
        <time>2021-09-05T07:54:43.000Z</time>
      </trkpt>
      <trkpt lat="50.52352" lon="3.52192">
        <ele>31.3</ele>
        <time>2021-09-05T07:54:46.000Z</time>
      </trkpt>
      <trkpt lat="50.52347" lon="3.52202">
        <ele>31.5</ele>
        <time>2021-09-05T07:54:49.000Z</time>
      </trkpt>
      <trkpt lat="50.52338" lon="3.5221">
        <ele>31.8</ele>
        <time>2021-09-05T07:54:52.408Z</time>
      </trkpt>
      <trkpt lat="50.52332" lon="3.5222">
        <ele>32</ele>
        <time>2021-09-05T07:54:56.000Z</time>
      </trkpt>
      <trkpt lat="50.52326" lon="3.52228">
        <ele>32.3</ele>
        <time>2021-09-05T07:54:59.000Z</time>
      </trkpt>
      <trkpt lat="50.52321" lon="3.52236">
        <ele>32.4</ele>
        <time>2021-09-05T07:55:02.000Z</time>
      </trkpt>
      <trkpt lat="50.52313" lon="3.52247">
        <ele>32.7</ele>
        <time>2021-09-05T07:55:06.000Z</time>
      </trkpt>
      <trkpt lat="50.52308" lon="3.52255">
        <ele>32.9</ele>
        <time>2021-09-05T07:55:09.000Z</time>
      </trkpt>
      <trkpt lat="50.523" lon="3.52265">
        <ele>33</ele>
        <time>2021-09-05T07:55:13.000Z</time>
      </trkpt>
      <trkpt lat="50.52291" lon="3.52275">
        <ele>33</ele>
        <time>2021-09-05T07:55:17.000Z</time>
      </trkpt>
      <trkpt lat="50.52285" lon="3.52283">
        <ele>33</ele>
        <time>2021-09-05T07:55:20.000Z</time>
      </trkpt>
      <trkpt lat="50.52278" lon="3.52289">
        <ele>33</ele>
        <time>2021-09-05T07:55:23.000Z</time>
      </trkpt>
      <trkpt lat="50.52269" lon="3.52299">
        <ele>33</ele>
        <time>2021-09-05T07:55:27.000Z</time>
      </trkpt>
      <trkpt lat="50.52259" lon="3.52308">
        <ele>33</ele>
        <time>2021-09-05T07:55:31.000Z</time>
      </trkpt>
      <trkpt lat="50.5225" lon="3.52315">
        <ele>33</ele>
        <time>2021-09-05T07:55:34.000Z</time>
      </trkpt>
      <trkpt lat="50.52241" lon="3.52323">
        <ele>33</ele>
        <time>2021-09-05T07:55:37.000Z</time>
      </trkpt>
      <trkpt lat="50.5223" lon="3.5233">
        <ele>33</ele>
        <time>2021-09-05T07:55:40.000Z</time>
      </trkpt>
      <trkpt lat="50.52216" lon="3.52339">
        <ele>33</ele>
        <time>2021-09-05T07:55:44.000Z</time>
      </trkpt>
      <trkpt lat="50.52205" lon="3.52345">
        <ele>33</ele>
        <time>2021-09-05T07:55:47.000Z</time>
      </trkpt>
      <trkpt lat="50.52191" lon="3.5235">
        <ele>33</ele>
        <time>2021-09-05T07:55:50.002Z</time>
      </trkpt>
      <trkpt lat="50.52178" lon="3.52353">
        <ele>32.8</ele>
        <time>2021-09-05T07:55:54.000Z</time>
      </trkpt>
      <trkpt lat="50.52164" lon="3.52355">
        <ele>32.7</ele>
        <time>2021-09-05T07:55:56.651Z</time>
      </trkpt>
      <trkpt lat="50.52145" lon="3.52355">
        <ele>32.2</ele>
        <time>2021-09-05T07:56:01.000Z</time>
      </trkpt>
      <trkpt lat="50.52124" lon="3.5236">
        <ele>32</ele>
        <time>2021-09-05T07:56:05.000Z</time>
      </trkpt>
      <trkpt lat="50.52104" lon="3.52366">
        <ele>32</ele>
        <time>2021-09-05T07:56:09.000Z</time>
      </trkpt>
      <trkpt lat="50.52093" lon="3.52371">
        <ele>32</ele>
        <time>2021-09-05T07:56:12.000Z</time>
      </trkpt>
      <trkpt lat="50.52076" lon="3.52371">
        <ele>32</ele>
        <time>2021-09-05T07:56:15.000Z</time>
      </trkpt>
      <trkpt lat="50.52059" lon="3.52372">
        <ele>32</ele>
        <time>2021-09-05T07:56:18.000Z</time>
      </trkpt>
      <trkpt lat="50.52045" lon="3.52374">
        <ele>31.8</ele>
        <time>2021-09-05T07:56:21.000Z</time>
      </trkpt>
      <trkpt lat="50.52029" lon="3.52374">
        <ele>31.6</ele>
        <time>2021-09-05T07:56:25.000Z</time>
      </trkpt>
      <trkpt lat="50.5201" lon="3.52376">
        <ele>31.5</ele>
        <time>2021-09-05T07:56:29.000Z</time>
      </trkpt>
      <trkpt lat="50.51997" lon="3.52374">
        <ele>31.5</ele>
        <time>2021-09-05T07:56:32.647Z</time>
      </trkpt>
      <trkpt lat="50.51978" lon="3.52382">
        <ele>31.2</ele>
        <time>2021-09-05T07:56:36.000Z</time>
      </trkpt>
      <trkpt lat="50.51957" lon="3.52383">
        <ele>31.2</ele>
        <time>2021-09-05T07:56:40.000Z</time>
      </trkpt>
      <trkpt lat="50.51939" lon="3.52384">
        <ele>31.1</ele>
        <time>2021-09-05T07:56:44.000Z</time>
      </trkpt>
      <trkpt lat="50.51922" lon="3.52378">
        <ele>31.1</ele>
        <time>2021-09-05T07:56:48.000Z</time>
      </trkpt>
      <trkpt lat="50.51904" lon="3.52376">
        <ele>31</ele>
        <time>2021-09-05T07:56:52.000Z</time>
      </trkpt>
      <trkpt lat="50.51889" lon="3.52375">
        <ele>31</ele>
        <time>2021-09-05T07:56:56.000Z</time>
      </trkpt>
      <trkpt lat="50.51875" lon="3.52373">
        <ele>31</ele>
        <time>2021-09-05T07:56:58.921Z</time>
      </trkpt>
      <trkpt lat="50.51859" lon="3.52376">
        <ele>31</ele>
        <time>2021-09-05T07:57:03.000Z</time>
      </trkpt>
      <trkpt lat="50.51837" lon="3.52371">
        <ele>30.7</ele>
        <time>2021-09-05T07:57:07.000Z</time>
      </trkpt>
      <trkpt lat="50.51823" lon="3.52363">
        <ele>30.6</ele>
        <time>2021-09-05T07:57:10.000Z</time>
      </trkpt>
      <trkpt lat="50.51805" lon="3.52349">
        <ele>30</ele>
        <time>2021-09-05T07:57:14.000Z</time>
      </trkpt>
      <trkpt lat="50.5179" lon="3.52336">
        <ele>30</ele>
        <time>2021-09-05T07:57:17.000Z</time>
      </trkpt>
      <trkpt lat="50.51776" lon="3.52324">
        <ele>30</ele>
        <time>2021-09-05T07:57:20.000Z</time>
      </trkpt>
      <trkpt lat="50.51758" lon="3.52307">
        <ele>30</ele>
        <time>2021-09-05T07:57:24.000Z</time>
      </trkpt>
      <trkpt lat="50.51747" lon="3.52296">
        <ele>29.9</ele>
        <time>2021-09-05T07:57:27.000Z</time>
      </trkpt>
      <trkpt lat="50.51736" lon="3.52289">
        <ele>29.8</ele>
        <time>2021-09-05T07:57:30.000Z</time>
      </trkpt>
      <trkpt lat="50.51719" lon="3.52274">
        <ele>29.8</ele>
        <time>2021-09-05T07:57:34.000Z</time>
      </trkpt>
      <trkpt lat="50.51704" lon="3.52259">
        <ele>29.1</ele>
        <time>2021-09-05T07:57:37.000Z</time>
      </trkpt>
      <trkpt lat="50.51685" lon="3.52245">
        <ele>29</ele>
        <time>2021-09-05T07:57:41.000Z</time>
      </trkpt>
      <trkpt lat="50.51674" lon="3.52234">
        <ele>29</ele>
        <time>2021-09-05T07:57:44.000Z</time>
      </trkpt>
      <trkpt lat="50.51657" lon="3.52219">
        <ele>29</ele>
        <time>2021-09-05T07:57:48.000Z</time>
      </trkpt>
      <trkpt lat="50.51647" lon="3.5221">
        <ele>29</ele>
        <time>2021-09-05T07:57:51.000Z</time>
      </trkpt>
      <trkpt lat="50.51629" lon="3.52194">
        <ele>29</ele>
        <time>2021-09-05T07:57:55.000Z</time>
      </trkpt>
      <trkpt lat="50.51614" lon="3.52183">
        <ele>29</ele>
        <time>2021-09-05T07:57:58.000Z</time>
      </trkpt>
      <trkpt lat="50.51599" lon="3.52171">
        <ele>28.9</ele>
        <time>2021-09-05T07:58:02.000Z</time>
      </trkpt>
      <trkpt lat="50.51585" lon="3.52157">
        <ele>29</ele>
        <time>2021-09-05T07:58:06.000Z</time>
      </trkpt>
      <trkpt lat="50.5157" lon="3.5214">
        <ele>28.5</ele>
        <time>2021-09-05T07:58:10.000Z</time>
      </trkpt>
      <trkpt lat="50.51558" lon="3.52147">
        <ele>28.1</ele>
        <time>2021-09-05T07:58:13.000Z</time>
      </trkpt>
      <trkpt lat="50.51542" lon="3.52176">
        <ele>28</ele>
        <time>2021-09-05T07:58:17.000Z</time>
      </trkpt>
      <trkpt lat="50.5153" lon="3.52194">
        <ele>28</ele>
        <time>2021-09-05T07:58:20.000Z</time>
      </trkpt>
      <trkpt lat="50.51518" lon="3.52215">
        <ele>28</ele>
        <time>2021-09-05T07:58:24.000Z</time>
      </trkpt>
      <trkpt lat="50.5151" lon="3.52227">
        <ele>28</ele>
        <time>2021-09-05T07:58:27.000Z</time>
      </trkpt>
      <trkpt lat="50.51494" lon="3.52251">
        <ele>28</ele>
        <time>2021-09-05T07:58:31.000Z</time>
      </trkpt>
      <trkpt lat="50.51479" lon="3.52273">
        <ele>28</ele>
        <time>2021-09-05T07:58:35.000Z</time>
      </trkpt>
      <trkpt lat="50.51469" lon="3.52296">
        <ele>28</ele>
        <time>2021-09-05T07:58:39.000Z</time>
      </trkpt>
      <trkpt lat="50.51456" lon="3.52311">
        <ele>28</ele>
        <time>2021-09-05T07:58:42.000Z</time>
      </trkpt>
      <trkpt lat="50.5144" lon="3.52333">
        <ele>27.8</ele>
        <time>2021-09-05T07:58:46.000Z</time>
      </trkpt>
      <trkpt lat="50.51428" lon="3.52345">
        <ele>27.4</ele>
        <time>2021-09-05T07:58:49.000Z</time>
      </trkpt>
      <trkpt lat="50.51415" lon="3.52362">
        <ele>27</ele>
        <time>2021-09-05T07:58:52.000Z</time>
      </trkpt>
      <trkpt lat="50.514" lon="3.52382">
        <ele>27</ele>
        <time>2021-09-05T07:58:56.000Z</time>
      </trkpt>
      <trkpt lat="50.5139" lon="3.524">
        <ele>27</ele>
        <time>2021-09-05T07:58:59.000Z</time>
      </trkpt>
      <trkpt lat="50.51379" lon="3.5243">
        <ele>27</ele>
        <time>2021-09-05T07:59:03.000Z</time>
      </trkpt>
      <trkpt lat="50.51372" lon="3.5245">
        <ele>27</ele>
        <time>2021-09-05T07:59:06.000Z</time>
      </trkpt>
      <trkpt lat="50.51364" lon="3.52468">
        <ele>27</ele>
        <time>2021-09-05T07:59:09.000Z</time>
      </trkpt>
      <trkpt lat="50.51352" lon="3.52493">
        <ele>27.2</ele>
        <time>2021-09-05T07:59:13.000Z</time>
      </trkpt>
      <trkpt lat="50.51343" lon="3.52508">
        <ele>27.5</ele>
        <time>2021-09-05T07:59:16.000Z</time>
      </trkpt>
      <trkpt lat="50.51335" lon="3.52519">
        <ele>27.3</ele>
        <time>2021-09-05T07:59:19.000Z</time>
      </trkpt>
      <trkpt lat="50.51326" lon="3.52533">
        <ele>27.3</ele>
        <time>2021-09-05T07:59:22.000Z</time>
      </trkpt>
      <trkpt lat="50.51323" lon="3.52549">
        <ele>27.4</ele>
        <time>2021-09-05T07:59:26.000Z</time>
      </trkpt>
      <trkpt lat="50.51312" lon="3.52565">
        <ele>27.8</ele>
        <time>2021-09-05T07:59:28.652Z</time>
      </trkpt>
      <trkpt lat="50.51303" lon="3.52585">
        <ele>28</ele>
        <time>2021-09-05T07:59:33.000Z</time>
      </trkpt>
      <trkpt lat="50.51298" lon="3.52603">
        <ele>28</ele>
        <time>2021-09-05T07:59:35.948Z</time>
      </trkpt>
      <trkpt lat="50.51292" lon="3.52621">
        <ele>27.8</ele>
        <time>2021-09-05T07:59:40.000Z</time>
      </trkpt>
      <trkpt lat="50.51286" lon="3.52636">
        <ele>27.7</ele>
        <time>2021-09-05T07:59:43.000Z</time>
      </trkpt>
      <trkpt lat="50.5128" lon="3.5265">
        <ele>27.9</ele>
        <time>2021-09-05T07:59:46.000Z</time>
      </trkpt>
      <trkpt lat="50.51271" lon="3.52669">
        <ele>27.9</ele>
        <time>2021-09-05T07:59:50.000Z</time>
      </trkpt>
      <trkpt lat="50.51263" lon="3.52688">
        <ele>27.6</ele>
        <time>2021-09-05T07:59:54.000Z</time>
      </trkpt>
      <trkpt lat="50.51258" lon="3.52703">
        <ele>27.7</ele>
        <time>2021-09-05T07:59:57.000Z</time>
      </trkpt>
      <trkpt lat="50.51253" lon="3.52719">
        <ele>27.9</ele>
        <time>2021-09-05T07:59:59.939Z</time>
      </trkpt>
      <trkpt lat="50.51249" lon="3.52736">
        <ele>28</ele>
        <time>2021-09-05T08:00:03.159Z</time>
      </trkpt>
      <trkpt lat="50.51245" lon="3.52754">
        <ele>28</ele>
        <time>2021-09-05T08:00:07.000Z</time>
      </trkpt>
      <trkpt lat="50.51237" lon="3.52777">
        <ele>28</ele>
        <time>2021-09-05T08:00:10.480Z</time>
      </trkpt>
      <trkpt lat="50.51231" lon="3.52801">
        <ele>28</ele>
        <time>2021-09-05T08:00:15.000Z</time>
      </trkpt>
      <trkpt lat="50.5122" lon="3.5282">
        <ele>28</ele>
        <time>2021-09-05T08:00:18.367Z</time>
      </trkpt>
      <trkpt lat="50.51208" lon="3.5283">
        <ele>28</ele>
        <time>2021-09-05T08:00:22.000Z</time>
      </trkpt>
      <trkpt lat="50.51194" lon="3.52846">
        <ele>28</ele>
        <time>2021-09-05T08:00:26.000Z</time>
      </trkpt>
      <trkpt lat="50.51182" lon="3.5286">
        <ele>28.4</ele>
        <time>2021-09-05T08:00:29.149Z</time>
      </trkpt>
      <trkpt lat="50.51172" lon="3.5287">
        <ele>28.5</ele>
        <time>2021-09-05T08:00:32.396Z</time>
      </trkpt>
      <trkpt lat="50.51162" lon="3.52881">
        <ele>28.4</ele>
        <time>2021-09-05T08:00:35.652Z</time>
      </trkpt>
      <trkpt lat="50.51151" lon="3.52894">
        <ele>28.6</ele>
        <time>2021-09-05T08:00:39.398Z</time>
      </trkpt>
      <trkpt lat="50.51142" lon="3.52908">
        <ele>29</ele>
        <time>2021-09-05T08:00:43.156Z</time>
      </trkpt>
      <trkpt lat="50.51133" lon="3.52924">
        <ele>29</ele>
        <time>2021-09-05T08:00:46.852Z</time>
      </trkpt>
      <trkpt lat="50.51124" lon="3.52938">
        <ele>29</ele>
        <time>2021-09-05T08:00:50.174Z</time>
      </trkpt>
      <trkpt lat="50.51116" lon="3.5295">
        <ele>29</ele>
        <time>2021-09-05T08:00:53.310Z</time>
      </trkpt>
      <trkpt lat="50.51108" lon="3.52963">
        <ele>29</ele>
        <time>2021-09-05T08:00:56.961Z</time>
      </trkpt>
      <trkpt lat="50.511" lon="3.52977">
        <ele>28.9</ele>
        <time>2021-09-05T08:01:00.263Z</time>
      </trkpt>
      <trkpt lat="50.51091" lon="3.52992">
        <ele>28.5</ele>
        <time>2021-09-05T08:01:04.000Z</time>
      </trkpt>
      <trkpt lat="50.51081" lon="3.53005">
        <ele>28.1</ele>
        <time>2021-09-05T08:01:07.000Z</time>
      </trkpt>
      <trkpt lat="50.51072" lon="3.53018">
        <ele>28.4</ele>
        <time>2021-09-05T08:01:10.000Z</time>
      </trkpt>
      <trkpt lat="50.51061" lon="3.53035">
        <ele>28.6</ele>
        <time>2021-09-05T08:01:13.477Z</time>
      </trkpt>
      <trkpt lat="50.51052" lon="3.53048">
        <ele>28.3</ele>
        <time>2021-09-05T08:01:16.705Z</time>
      </trkpt>
      <trkpt lat="50.51041" lon="3.5306">
        <ele>28</ele>
        <time>2021-09-05T08:01:20.000Z</time>
      </trkpt>
      <trkpt lat="50.5103" lon="3.5307">
        <ele>28</ele>
        <time>2021-09-05T08:01:22.446Z</time>
      </trkpt>
      <trkpt lat="50.51016" lon="3.53078">
        <ele>28.1</ele>
        <time>2021-09-05T08:01:25.945Z</time>
      </trkpt>
      <trkpt lat="50.51002" lon="3.53084">
        <ele>28</ele>
        <time>2021-09-05T08:01:30.000Z</time>
      </trkpt>
      <trkpt lat="50.50993" lon="3.53088">
        <ele>28</ele>
        <time>2021-09-05T08:01:33.000Z</time>
      </trkpt>
      <trkpt lat="50.50977" lon="3.53094">
        <ele>28</ele>
        <time>2021-09-05T08:01:35.659Z</time>
      </trkpt>
      <trkpt lat="50.5096" lon="3.53101">
        <ele>27.7</ele>
        <time>2021-09-05T08:01:40.000Z</time>
      </trkpt>
      <trkpt lat="50.50946" lon="3.53109">
        <ele>27.1</ele>
        <time>2021-09-05T08:01:43.000Z</time>
      </trkpt>
      <trkpt lat="50.50937" lon="3.53121">
        <ele>27.3</ele>
        <time>2021-09-05T08:01:46.000Z</time>
      </trkpt>
      <trkpt lat="50.50932" lon="3.53132">
        <ele>27.4</ele>
        <time>2021-09-05T08:01:48.077Z</time>
      </trkpt>
      <trkpt lat="50.50923" lon="3.53154">
        <ele>26.8</ele>
        <time>2021-09-05T08:01:51.334Z</time>
      </trkpt>
      <trkpt lat="50.50915" lon="3.53173">
        <ele>26</ele>
        <time>2021-09-05T08:01:54.673Z</time>
      </trkpt>
      <trkpt lat="50.50908" lon="3.53191">
        <ele>26</ele>
        <time>2021-09-05T08:01:59.000Z</time>
      </trkpt>
      <trkpt lat="50.509" lon="3.5321">
        <ele>25.7</ele>
        <time>2021-09-05T08:02:02.000Z</time>
      </trkpt>
      <trkpt lat="50.50887" lon="3.53232">
        <ele>25</ele>
        <time>2021-09-05T08:02:05.000Z</time>
      </trkpt>
      <trkpt lat="50.50864" lon="3.53252">
        <ele>24.2</ele>
        <time>2021-09-05T08:02:09.000Z</time>
      </trkpt>
      <trkpt lat="50.5085" lon="3.53267">
        <ele>24.4</ele>
        <time>2021-09-05T08:02:12.000Z</time>
      </trkpt>
      <trkpt lat="50.50832" lon="3.53278">
        <ele>24</ele>
        <time>2021-09-05T08:02:16.000Z</time>
      </trkpt>
      <trkpt lat="50.50804" lon="3.53278">
        <ele>24</ele>
        <time>2021-09-05T08:02:20.000Z</time>
      </trkpt>
      <trkpt lat="50.50785" lon="3.53284">
        <ele>24</ele>
        <time>2021-09-05T08:02:23.000Z</time>
      </trkpt>
      <trkpt lat="50.5076" lon="3.53291">
        <ele>23.7</ele>
        <time>2021-09-05T08:02:27.000Z</time>
      </trkpt>
      <trkpt lat="50.50742" lon="3.53295">
        <ele>23.3</ele>
        <time>2021-09-05T08:02:30.000Z</time>
      </trkpt>
      <trkpt lat="50.50721" lon="3.53302">
        <ele>23</ele>
        <time>2021-09-05T08:02:34.000Z</time>
      </trkpt>
      <trkpt lat="50.50706" lon="3.53313">
        <ele>22.7</ele>
        <time>2021-09-05T08:02:37.000Z</time>
      </trkpt>
      <trkpt lat="50.50688" lon="3.53328">
        <ele>22.1</ele>
        <time>2021-09-05T08:02:41.000Z</time>
      </trkpt>
      <trkpt lat="50.50672" lon="3.53349">
        <ele>21.9</ele>
        <time>2021-09-05T08:02:45.000Z</time>
      </trkpt>
      <trkpt lat="50.50655" lon="3.53369">
        <ele>21.6</ele>
        <time>2021-09-05T08:02:49.000Z</time>
      </trkpt>
      <trkpt lat="50.50642" lon="3.53387">
        <ele>21.1</ele>
        <time>2021-09-05T08:02:52.000Z</time>
      </trkpt>
      <trkpt lat="50.50625" lon="3.5341">
        <ele>21</ele>
        <time>2021-09-05T08:02:56.000Z</time>
      </trkpt>
      <trkpt lat="50.50609" lon="3.53434">
        <ele>21</ele>
        <time>2021-09-05T08:03:00.000Z</time>
      </trkpt>
      <trkpt lat="50.506" lon="3.53448">
        <ele>21</ele>
        <time>2021-09-05T08:03:03.000Z</time>
      </trkpt>
      <trkpt lat="50.50588" lon="3.53471">
        <ele>21</ele>
        <time>2021-09-05T08:03:07.000Z</time>
      </trkpt>
      <trkpt lat="50.50581" lon="3.53484">
        <ele>21</ele>
        <time>2021-09-05T08:03:10.000Z</time>
      </trkpt>
      <trkpt lat="50.50581" lon="3.53497">
        <ele>21.1</ele>
        <time>2021-09-05T08:03:13.198Z</time>
      </trkpt>
      <trkpt lat="50.50575" lon="3.53518">
        <ele>21.8</ele>
        <time>2021-09-05T08:03:17.000Z</time>
      </trkpt>
      <trkpt lat="50.50566" lon="3.53535">
        <ele>22</ele>
        <time>2021-09-05T08:03:21.000Z</time>
      </trkpt>
      <trkpt lat="50.5056" lon="3.53547">
        <ele>22</ele>
        <time>2021-09-05T08:03:24.000Z</time>
      </trkpt>
      <trkpt lat="50.50553" lon="3.53566">
        <ele>22.4</ele>
        <time>2021-09-05T08:03:28.000Z</time>
      </trkpt>
      <trkpt lat="50.50547" lon="3.53578">
        <ele>22.9</ele>
        <time>2021-09-05T08:03:31.000Z</time>
      </trkpt>
      <trkpt lat="50.5054" lon="3.53594">
        <ele>23.2</ele>
        <time>2021-09-05T08:03:35.000Z</time>
      </trkpt>
      <trkpt lat="50.50534" lon="3.53607">
        <ele>23.2</ele>
        <time>2021-09-05T08:03:37.901Z</time>
      </trkpt>
      <trkpt lat="50.50527" lon="3.53619">
        <ele>23.3</ele>
        <time>2021-09-05T08:03:42.000Z</time>
      </trkpt>
      <trkpt lat="50.50522" lon="3.53628">
        <ele>23.7</ele>
        <time>2021-09-05T08:03:44.739Z</time>
      </trkpt>
      <trkpt lat="50.50514" lon="3.5364">
        <ele>24</ele>
        <time>2021-09-05T08:03:48.321Z</time>
      </trkpt>
      <trkpt lat="50.50507" lon="3.53653">
        <ele>24</ele>
        <time>2021-09-05T08:03:51.561Z</time>
      </trkpt>
      <trkpt lat="50.50501" lon="3.53663">
        <ele>24</ele>
        <time>2021-09-05T08:03:55.000Z</time>
      </trkpt>
      <trkpt lat="50.50496" lon="3.53676">
        <ele>24.3</ele>
        <time>2021-09-05T08:03:58.000Z</time>
      </trkpt>
      <trkpt lat="50.50489" lon="3.53692">
        <ele>24.6</ele>
        <time>2021-09-05T08:04:02.000Z</time>
      </trkpt>
      <trkpt lat="50.50484" lon="3.53702">
        <ele>24.4</ele>
        <time>2021-09-05T08:04:04.944Z</time>
      </trkpt>
      <trkpt lat="50.5048" lon="3.53717">
        <ele>24.3</ele>
        <time>2021-09-05T08:04:09.000Z</time>
      </trkpt>
      <trkpt lat="50.50477" lon="3.5373">
        <ele>24.5</ele>
        <time>2021-09-05T08:04:11.358Z</time>
      </trkpt>
      <trkpt lat="50.5047" lon="3.53743">
        <ele>24.7</ele>
        <time>2021-09-05T08:04:16.000Z</time>
      </trkpt>
      <trkpt lat="50.50464" lon="3.53753">
        <ele>25</ele>
        <time>2021-09-05T08:04:19.000Z</time>
      </trkpt>
      <trkpt lat="50.50454" lon="3.53769">
        <ele>25</ele>
        <time>2021-09-05T08:04:23.000Z</time>
      </trkpt>
      <trkpt lat="50.50444" lon="3.53784">
        <ele>25</ele>
        <time>2021-09-05T08:04:27.000Z</time>
      </trkpt>
      <trkpt lat="50.50438" lon="3.53792">
        <ele>25</ele>
        <time>2021-09-05T08:04:30.000Z</time>
      </trkpt>
      <trkpt lat="50.50434" lon="3.538">
        <ele>25</ele>
        <time>2021-09-05T08:04:33.000Z</time>
      </trkpt>
      <trkpt lat="50.50428" lon="3.53808">
        <ele>25</ele>
        <time>2021-09-05T08:04:42.418Z</time>
      </trkpt>
      <trkpt lat="50.50423" lon="3.53816">
        <ele>25</ele>
        <time>2021-09-05T08:04:50.000Z</time>
      </trkpt>
      <trkpt lat="50.5042" lon="3.53827">
        <ele>25</ele>
        <time>2021-09-05T08:04:57.000Z</time>
      </trkpt>
      <trkpt lat="50.50417" lon="3.53835">
        <ele>25</ele>
        <time>2021-09-05T08:04:59.297Z</time>
      </trkpt>
      <trkpt lat="50.50414" lon="3.5384">
        <ele>25</ele>
        <time>2021-09-05T08:05:04.000Z</time>
      </trkpt>
      <trkpt lat="50.50407" lon="3.53852">
        <ele>25</ele>
        <time>2021-09-05T08:05:11.000Z</time>
      </trkpt>
      <trkpt lat="50.50405" lon="3.53858">
        <ele>25</ele>
        <time>2021-09-05T08:05:15.000Z</time>
      </trkpt>
      <trkpt lat="50.50403" lon="3.53865">
        <ele>25.1</ele>
        <time>2021-09-05T08:05:19.000Z</time>
      </trkpt>
      <trkpt lat="50.50401" lon="3.53872">
        <ele>25.2</ele>
        <time>2021-09-05T08:05:21.258Z</time>
      </trkpt>
      <trkpt lat="50.50399" lon="3.53878">
        <ele>25.2</ele>
        <time>2021-09-05T08:05:24.580Z</time>
      </trkpt>
      <trkpt lat="50.50395" lon="3.53883">
        <ele>25.2</ele>
        <time>2021-09-05T08:05:27.675Z</time>
      </trkpt>
      <trkpt lat="50.50389" lon="3.53888">
        <ele>25</ele>
        <time>2021-09-05T08:05:35.000Z</time>
      </trkpt>
      <trkpt lat="50.50388" lon="3.53895">
        <ele>25</ele>
        <time>2021-09-05T08:05:58.000Z</time>
      </trkpt>
      <trkpt lat="50.50385" lon="3.53901">
        <ele>25</ele>
        <time>2021-09-05T08:06:00.540Z</time>
      </trkpt>
      <trkpt lat="50.50381" lon="3.53899">
        <ele>25</ele>
        <time>2021-09-05T08:06:05.000Z</time>
      </trkpt>
      <trkpt lat="50.50378" lon="3.53892">
        <ele>25</ele>
        <time>2021-09-05T08:06:11.494Z</time>
      </trkpt>
      <trkpt lat="50.50374" lon="3.53886">
        <ele>25</ele>
        <time>2021-09-05T08:06:16.000Z</time>
      </trkpt>
      <trkpt lat="50.50369" lon="3.53879">
        <ele>25</ele>
        <time>2021-09-05T08:06:20.000Z</time>
      </trkpt>
      <trkpt lat="50.50365" lon="3.53873">
        <ele>25</ele>
        <time>2021-09-05T08:06:23.000Z</time>
      </trkpt>
      <trkpt lat="50.5036" lon="3.53866">
        <ele>25</ele>
        <time>2021-09-05T08:06:28.534Z</time>
      </trkpt>
      <trkpt lat="50.50356" lon="3.53861">
        <ele>25</ele>
        <time>2021-09-05T08:06:32.462Z</time>
      </trkpt>
      <trkpt lat="50.50353" lon="3.53855">
        <ele>25</ele>
        <time>2021-09-05T08:06:36.000Z</time>
      </trkpt>
      <trkpt lat="50.50348" lon="3.53853">
        <ele>25</ele>
        <time>2021-09-05T08:06:40.000Z</time>
      </trkpt>
      <trkpt lat="50.50342" lon="3.53854">
        <ele>25</ele>
        <time>2021-09-05T08:06:44.000Z</time>
      </trkpt>
      <trkpt lat="50.50336" lon="3.53857">
        <ele>25</ele>
        <time>2021-09-05T08:06:48.000Z</time>
      </trkpt>
      <trkpt lat="50.50331" lon="3.53858">
        <ele>24.9</ele>
        <time>2021-09-05T08:06:51.000Z</time>
      </trkpt>
      <trkpt lat="50.50321" lon="3.53861">
        <ele>24.6</ele>
        <time>2021-09-05T08:06:58.000Z</time>
      </trkpt>
      <trkpt lat="50.50313" lon="3.53865">
        <ele>24.3</ele>
        <time>2021-09-05T08:07:04.000Z</time>
      </trkpt>
      <trkpt lat="50.50309" lon="3.53867">
        <ele>24.1</ele>
        <time>2021-09-05T08:07:07.000Z</time>
      </trkpt>
      <trkpt lat="50.50299" lon="3.53872">
        <ele>23.9</ele>
        <time>2021-09-05T08:07:14.000Z</time>
      </trkpt>
      <trkpt lat="50.50291" lon="3.53877">
        <ele>23.8</ele>
        <time>2021-09-05T08:07:21.000Z</time>
      </trkpt>
      <trkpt lat="50.50285" lon="3.53881">
        <ele>23.8</ele>
        <time>2021-09-05T08:07:25.000Z</time>
      </trkpt>
      <trkpt lat="50.50276" lon="3.53888">
        <ele>23.9</ele>
        <time>2021-09-05T08:07:32.000Z</time>
      </trkpt>
      <trkpt lat="50.50268" lon="3.53893">
        <ele>23.6</ele>
        <time>2021-09-05T08:07:39.000Z</time>
      </trkpt>
      <trkpt lat="50.5026" lon="3.53896">
        <ele>23.4</ele>
        <time>2021-09-05T08:07:45.000Z</time>
      </trkpt>
      <trkpt lat="50.50255" lon="3.53899">
        <ele>23.2</ele>
        <time>2021-09-05T08:07:49.000Z</time>
      </trkpt>
      <trkpt lat="50.50247" lon="3.53904">
        <ele>23</ele>
        <time>2021-09-05T08:07:55.000Z</time>
      </trkpt>
      <trkpt lat="50.50241" lon="3.53909">
        <ele>23</ele>
        <time>2021-09-05T08:08:01.000Z</time>
      </trkpt>
      <trkpt lat="50.50233" lon="3.53915">
        <ele>23</ele>
        <time>2021-09-05T08:08:07.146Z</time>
      </trkpt>
      <trkpt lat="50.50229" lon="3.53917">
        <ele>23</ele>
        <time>2021-09-05T08:08:11.000Z</time>
      </trkpt>
      <trkpt lat="50.50224" lon="3.53921">
        <ele>23</ele>
        <time>2021-09-05T08:08:15.000Z</time>
      </trkpt>
      <trkpt lat="50.50218" lon="3.53925">
        <ele>22.8</ele>
        <time>2021-09-05T08:08:19.000Z</time>
      </trkpt>
      <trkpt lat="50.50212" lon="3.5393">
        <ele>22.6</ele>
        <time>2021-09-05T08:08:25.000Z</time>
      </trkpt>
      <trkpt lat="50.50202" lon="3.53936">
        <ele>22.3</ele>
        <time>2021-09-05T08:08:32.000Z</time>
      </trkpt>
      <trkpt lat="50.50197" lon="3.5394">
        <ele>22.1</ele>
        <time>2021-09-05T08:08:36.000Z</time>
      </trkpt>
      <trkpt lat="50.50189" lon="3.53945">
        <ele>22</ele>
        <time>2021-09-05T08:08:43.000Z</time>
      </trkpt>
      <trkpt lat="50.50184" lon="3.53948">
        <ele>22</ele>
        <time>2021-09-05T08:08:53.182Z</time>
      </trkpt>
      <trkpt lat="50.50179" lon="3.5395">
        <ele>22</ele>
        <time>2021-09-05T08:08:57.000Z</time>
      </trkpt>
      <trkpt lat="50.5017" lon="3.53955">
        <ele>22</ele>
        <time>2021-09-05T08:09:04.000Z</time>
      </trkpt>
      <trkpt lat="50.50166" lon="3.53958">
        <ele>22</ele>
        <time>2021-09-05T08:09:07.498Z</time>
      </trkpt>
      <trkpt lat="50.5016" lon="3.53963">
        <ele>22</ele>
        <time>2021-09-05T08:09:13.805Z</time>
      </trkpt>
      <trkpt lat="50.50152" lon="3.53968">
        <ele>22</ele>
        <time>2021-09-05T08:09:21.000Z</time>
      </trkpt>
      <trkpt lat="50.50144" lon="3.53972">
        <ele>22</ele>
        <time>2021-09-05T08:09:28.000Z</time>
      </trkpt>
      <trkpt lat="50.50135" lon="3.5398">
        <ele>22.3</ele>
        <time>2021-09-05T08:09:35.000Z</time>
      </trkpt>
      <trkpt lat="50.5013" lon="3.53984">
        <ele>22.4</ele>
        <time>2021-09-05T08:09:38.537Z</time>
      </trkpt>
      <trkpt lat="50.50122" lon="3.53989">
        <ele>22.6</ele>
        <time>2021-09-05T08:09:44.723Z</time>
      </trkpt>
      <trkpt lat="50.50118" lon="3.53993">
        <ele>22.7</ele>
        <time>2021-09-05T08:09:48.000Z</time>
      </trkpt>
      <trkpt lat="50.50114" lon="3.53997">
        <ele>22.9</ele>
        <time>2021-09-05T08:09:52.000Z</time>
      </trkpt>
      <trkpt lat="50.50107" lon="3.54003">
        <ele>23</ele>
        <time>2021-09-05T08:09:58.296Z</time>
      </trkpt>
      <trkpt lat="50.50103" lon="3.54006">
        <ele>23</ele>
        <time>2021-09-05T08:10:01.500Z</time>
      </trkpt>
      <trkpt lat="50.50096" lon="3.54013">
        <ele>23</ele>
        <time>2021-09-05T08:10:08.377Z</time>
      </trkpt>
      <trkpt lat="50.50088" lon="3.54021">
        <ele>23</ele>
        <time>2021-09-05T08:10:14.658Z</time>
      </trkpt>
      <trkpt lat="50.5008" lon="3.54027">
        <ele>23</ele>
        <time>2021-09-05T08:10:21.000Z</time>
      </trkpt>
      <trkpt lat="50.50076" lon="3.5403">
        <ele>23</ele>
        <time>2021-09-05T08:10:24.623Z</time>
      </trkpt>
      <trkpt lat="50.50072" lon="3.54033">
        <ele>23</ele>
        <time>2021-09-05T08:10:27.685Z</time>
      </trkpt>
      <trkpt lat="50.50066" lon="3.54036">
        <ele>23</ele>
        <time>2021-09-05T08:10:31.000Z</time>
      </trkpt>
      <trkpt lat="50.50062" lon="3.54035">
        <ele>23</ele>
        <time>2021-09-05T08:10:34.543Z</time>
      </trkpt>
      <trkpt lat="50.50057" lon="3.54038">
        <ele>23</ele>
        <time>2021-09-05T08:10:38.000Z</time>
      </trkpt>
      <trkpt lat="50.50053" lon="3.5404">
        <ele>23</ele>
        <time>2021-09-05T08:10:41.402Z</time>
      </trkpt>
      <trkpt lat="50.50049" lon="3.54044">
        <ele>23</ele>
        <time>2021-09-05T08:10:45.000Z</time>
      </trkpt>
      <trkpt lat="50.50041" lon="3.54052">
        <ele>23</ele>
        <time>2021-09-05T08:10:52.000Z</time>
      </trkpt>
      <trkpt lat="50.50036" lon="3.54057">
        <ele>23</ele>
        <time>2021-09-05T08:10:58.116Z</time>
      </trkpt>
      <trkpt lat="50.50031" lon="3.54061">
        <ele>23</ele>
        <time>2021-09-05T08:11:02.000Z</time>
      </trkpt>
      <trkpt lat="50.50027" lon="3.54065">
        <ele>23</ele>
        <time>2021-09-05T08:11:06.000Z</time>
      </trkpt>
      <trkpt lat="50.50019" lon="3.54071">
        <ele>23</ele>
        <time>2021-09-05T08:11:11.918Z</time>
      </trkpt>
      <trkpt lat="50.50014" lon="3.54075">
        <ele>23</ele>
        <time>2021-09-05T08:11:16.000Z</time>
      </trkpt>
      <trkpt lat="50.50008" lon="3.54081">
        <ele>23</ele>
        <time>2021-09-05T08:11:22.100Z</time>
      </trkpt>
      <trkpt lat="50.49999" lon="3.54087">
        <ele>23</ele>
        <time>2021-09-05T08:11:29.398Z</time>
      </trkpt>
      <trkpt lat="50.49995" lon="3.54091">
        <ele>23</ele>
        <time>2021-09-05T08:11:33.000Z</time>
      </trkpt>
      <trkpt lat="50.49987" lon="3.54098">
        <ele>23</ele>
        <time>2021-09-05T08:11:40.000Z</time>
      </trkpt>
      <trkpt lat="50.49981" lon="3.54103">
        <ele>23</ele>
        <time>2021-09-05T08:11:46.000Z</time>
      </trkpt>
      <trkpt lat="50.49976" lon="3.54105">
        <ele>23</ele>
        <time>2021-09-05T08:11:50.000Z</time>
      </trkpt>
      <trkpt lat="50.49968" lon="3.5411">
        <ele>22.8</ele>
        <time>2021-09-05T08:11:56.321Z</time>
      </trkpt>
      <trkpt lat="50.49964" lon="3.54113">
        <ele>22.7</ele>
        <time>2021-09-05T08:12:00.000Z</time>
      </trkpt>
      <trkpt lat="50.49959" lon="3.54118">
        <ele>22.5</ele>
        <time>2021-09-05T08:12:04.000Z</time>
      </trkpt>
      <trkpt lat="50.49954" lon="3.54122">
        <ele>22.3</ele>
        <time>2021-09-05T08:12:08.000Z</time>
      </trkpt>
      <trkpt lat="50.49949" lon="3.54126">
        <ele>22.2</ele>
        <time>2021-09-05T08:12:12.000Z</time>
      </trkpt>
      <trkpt lat="50.49944" lon="3.5413">
        <ele>22</ele>
        <time>2021-09-05T08:12:16.000Z</time>
      </trkpt>
      <trkpt lat="50.49938" lon="3.54134">
        <ele>22</ele>
        <time>2021-09-05T08:12:22.000Z</time>
      </trkpt>
      <trkpt lat="50.49934" lon="3.54137">
        <ele>22</ele>
        <time>2021-09-05T08:12:26.000Z</time>
      </trkpt>
      <trkpt lat="50.49929" lon="3.54141">
        <ele>22</ele>
        <time>2021-09-05T08:12:30.000Z</time>
      </trkpt>
      <trkpt lat="50.49922" lon="3.54147">
        <ele>22.1</ele>
        <time>2021-09-05T08:12:36.000Z</time>
      </trkpt>
      <trkpt lat="50.49917" lon="3.54151">
        <ele>22</ele>
        <time>2021-09-05T08:12:40.000Z</time>
      </trkpt>
      <trkpt lat="50.4991" lon="3.54157">
        <ele>21.8</ele>
        <time>2021-09-05T08:12:46.000Z</time>
      </trkpt>
      <trkpt lat="50.49905" lon="3.5416">
        <ele>21.6</ele>
        <time>2021-09-05T08:12:50.000Z</time>
      </trkpt>
      <trkpt lat="50.49898" lon="3.54164">
        <ele>21.3</ele>
        <time>2021-09-05T08:12:57.000Z</time>
      </trkpt>
      <trkpt lat="50.49891" lon="3.54172">
        <ele>21.1</ele>
        <time>2021-09-05T08:13:04.000Z</time>
      </trkpt>
      <trkpt lat="50.49884" lon="3.54178">
        <ele>21</ele>
        <time>2021-09-05T08:13:11.000Z</time>
      </trkpt>
      <trkpt lat="50.49879" lon="3.54181">
        <ele>21</ele>
        <time>2021-09-05T08:13:15.000Z</time>
      </trkpt>
      <trkpt lat="50.49872" lon="3.54182">
        <ele>21</ele>
        <time>2021-09-05T08:13:21.000Z</time>
      </trkpt>
      <trkpt lat="50.49864" lon="3.54182">
        <ele>21</ele>
        <time>2021-09-05T08:13:27.076Z</time>
      </trkpt>
      <trkpt lat="50.49859" lon="3.54175">
        <ele>20.9</ele>
        <time>2021-09-05T08:13:34.000Z</time>
      </trkpt>
      <trkpt lat="50.49848" lon="3.54166">
        <ele>20.5</ele>
        <time>2021-09-05T08:13:38.000Z</time>
      </trkpt>
      <trkpt lat="50.49834" lon="3.5417">
        <ele>20</ele>
        <time>2021-09-05T08:13:41.563Z</time>
      </trkpt>
      <trkpt lat="50.49823" lon="3.54176">
        <ele>20</ele>
        <time>2021-09-05T08:13:45.000Z</time>
      </trkpt>
      <trkpt lat="50.49808" lon="3.54181">
        <ele>20</ele>
        <time>2021-09-05T08:13:48.403Z</time>
      </trkpt>
      <trkpt lat="50.49796" lon="3.54186">
        <ele>20</ele>
        <time>2021-09-05T08:13:51.717Z</time>
      </trkpt>
      <trkpt lat="50.49782" lon="3.54191">
        <ele>20</ele>
        <time>2021-09-05T08:13:56.000Z</time>
      </trkpt>
      <trkpt lat="50.49771" lon="3.54195">
        <ele>20</ele>
        <time>2021-09-05T08:13:58.942Z</time>
      </trkpt>
      <trkpt lat="50.49756" lon="3.54203">
        <ele>20</ele>
        <time>2021-09-05T08:14:03.000Z</time>
      </trkpt>
      <trkpt lat="50.49744" lon="3.54212">
        <ele>20</ele>
        <time>2021-09-05T08:14:06.438Z</time>
      </trkpt>
      <trkpt lat="50.49732" lon="3.54222">
        <ele>20</ele>
        <time>2021-09-05T08:14:09.704Z</time>
      </trkpt>
      <trkpt lat="50.49721" lon="3.5423">
        <ele>20</ele>
        <time>2021-09-05T08:14:13.000Z</time>
      </trkpt>
      <trkpt lat="50.49711" lon="3.54239">
        <ele>20</ele>
        <time>2021-09-05T08:14:16.000Z</time>
      </trkpt>
      <trkpt lat="50.49701" lon="3.54245">
        <ele>20</ele>
        <time>2021-09-05T08:14:19.263Z</time>
      </trkpt>
      <trkpt lat="50.49691" lon="3.54253">
        <ele>20</ele>
        <time>2021-09-05T08:14:22.422Z</time>
      </trkpt>
      <trkpt lat="50.49678" lon="3.54263">
        <ele>20</ele>
        <time>2021-09-05T08:14:25.567Z</time>
      </trkpt>
      <trkpt lat="50.49667" lon="3.54273">
        <ele>20</ele>
        <time>2021-09-05T08:14:28.758Z</time>
      </trkpt>
      <trkpt lat="50.49657" lon="3.5428">
        <ele>20</ele>
        <time>2021-09-05T08:14:32.000Z</time>
      </trkpt>
      <trkpt lat="50.49647" lon="3.54286">
        <ele>20</ele>
        <time>2021-09-05T08:14:35.000Z</time>
      </trkpt>
      <trkpt lat="50.49636" lon="3.54289">
        <ele>20</ele>
        <time>2021-09-05T08:14:38.499Z</time>
      </trkpt>
      <trkpt lat="50.49621" lon="3.54289">
        <ele>20</ele>
        <time>2021-09-05T08:14:42.000Z</time>
      </trkpt>
      <trkpt lat="50.49609" lon="3.543">
        <ele>20</ele>
        <time>2021-09-05T08:14:45.000Z</time>
      </trkpt>
      <trkpt lat="50.49599" lon="3.5431">
        <ele>20.1</ele>
        <time>2021-09-05T08:14:48.099Z</time>
      </trkpt>
      <trkpt lat="50.49586" lon="3.54321">
        <ele>20.5</ele>
        <time>2021-09-05T08:14:52.000Z</time>
      </trkpt>
      <trkpt lat="50.4957" lon="3.54331">
        <ele>20.5</ele>
        <time>2021-09-05T08:14:55.540Z</time>
      </trkpt>
      <trkpt lat="50.49559" lon="3.5434">
        <ele>20.3</ele>
        <time>2021-09-05T08:14:59.000Z</time>
      </trkpt>
      <trkpt lat="50.49543" lon="3.54346">
        <ele>20.5</ele>
        <time>2021-09-05T08:15:03.000Z</time>
      </trkpt>
      <trkpt lat="50.4953" lon="3.54349">
        <ele>20.6</ele>
        <time>2021-09-05T08:15:06.046Z</time>
      </trkpt>
      <trkpt lat="50.49519" lon="3.54356">
        <ele>20.9</ele>
        <time>2021-09-05T08:15:09.279Z</time>
      </trkpt>
      <trkpt lat="50.49508" lon="3.54357">
        <ele>21</ele>
        <time>2021-09-05T08:15:12.360Z</time>
      </trkpt>
      <trkpt lat="50.49497" lon="3.54362">
        <ele>21.1</ele>
        <time>2021-09-05T08:15:16.000Z</time>
      </trkpt>
      <trkpt lat="50.49489" lon="3.54368">
        <ele>21.5</ele>
        <time>2021-09-05T08:15:19.000Z</time>
      </trkpt>
      <trkpt lat="50.49482" lon="3.54376">
        <ele>21.8</ele>
        <time>2021-09-05T08:15:21.820Z</time>
      </trkpt>
      <trkpt lat="50.49475" lon="3.54386">
        <ele>22</ele>
        <time>2021-09-05T08:15:25.359Z</time>
      </trkpt>
      <trkpt lat="50.49468" lon="3.54395">
        <ele>22</ele>
        <time>2021-09-05T08:15:29.000Z</time>
      </trkpt>
      <trkpt lat="50.49461" lon="3.54404">
        <ele>22.2</ele>
        <time>2021-09-05T08:15:33.000Z</time>
      </trkpt>
      <trkpt lat="50.49455" lon="3.5441">
        <ele>22.5</ele>
        <time>2021-09-05T08:15:36.000Z</time>
      </trkpt>
      <trkpt lat="50.49451" lon="3.54419">
        <ele>22.8</ele>
        <time>2021-09-05T08:15:39.420Z</time>
      </trkpt>
      <trkpt lat="50.49445" lon="3.54425">
        <ele>23</ele>
        <time>2021-09-05T08:15:43.000Z</time>
      </trkpt>
      <trkpt lat="50.4944" lon="3.54428">
        <ele>22.9</ele>
        <time>2021-09-05T08:15:49.396Z</time>
      </trkpt>
      <trkpt lat="50.49436" lon="3.54433">
        <ele>22.9</ele>
        <time>2021-09-05T08:15:53.000Z</time>
      </trkpt>
      <trkpt lat="50.4943" lon="3.54439">
        <ele>22.9</ele>
        <time>2021-09-05T08:15:58.843Z</time>
      </trkpt>
      <trkpt lat="50.49425" lon="3.54444">
        <ele>23</ele>
        <time>2021-09-05T08:16:02.825Z</time>
      </trkpt>
      <trkpt lat="50.49421" lon="3.54451">
        <ele>23</ele>
        <time>2021-09-05T08:16:06.341Z</time>
      </trkpt>
      <trkpt lat="50.49413" lon="3.5446">
        <ele>23.1</ele>
        <time>2021-09-05T08:16:12.701Z</time>
      </trkpt>
      <trkpt lat="50.49409" lon="3.54464">
        <ele>23.2</ele>
        <time>2021-09-05T08:16:16.264Z</time>
      </trkpt>
      <trkpt lat="50.49405" lon="3.54468">
        <ele>23.4</ele>
        <time>2021-09-05T08:16:19.595Z</time>
      </trkpt>
      <trkpt lat="50.49399" lon="3.54477">
        <ele>23.6</ele>
        <time>2021-09-05T08:16:25.941Z</time>
      </trkpt>
      <trkpt lat="50.49394" lon="3.54481">
        <ele>23.8</ele>
        <time>2021-09-05T08:16:29.760Z</time>
      </trkpt>
      <trkpt lat="50.49389" lon="3.54486">
        <ele>24</ele>
        <time>2021-09-05T08:16:36.000Z</time>
      </trkpt>
      <trkpt lat="50.49384" lon="3.5449">
        <ele>24</ele>
        <time>2021-09-05T08:16:40.000Z</time>
      </trkpt>
      <trkpt lat="50.49377" lon="3.54494">
        <ele>24</ele>
        <time>2021-09-05T08:16:46.000Z</time>
      </trkpt>
      <trkpt lat="50.4937" lon="3.545">
        <ele>24</ele>
        <time>2021-09-05T08:16:53.000Z</time>
      </trkpt>
      <trkpt lat="50.49364" lon="3.54506">
        <ele>24.2</ele>
        <time>2021-09-05T08:17:00.000Z</time>
      </trkpt>
      <trkpt lat="50.49355" lon="3.54513">
        <ele>24.6</ele>
        <time>2021-09-05T08:17:07.000Z</time>
      </trkpt>
      <trkpt lat="50.49351" lon="3.54517">
        <ele>24.8</ele>
        <time>2021-09-05T08:17:10.179Z</time>
      </trkpt>
      <trkpt lat="50.49347" lon="3.54522">
        <ele>24.9</ele>
        <time>2021-09-05T08:17:13.678Z</time>
      </trkpt>
      <trkpt lat="50.49342" lon="3.54525">
        <ele>25</ele>
        <time>2021-09-05T08:17:17.130Z</time>
      </trkpt>
      <trkpt lat="50.49338" lon="3.54527">
        <ele>25</ele>
        <time>2021-09-05T08:17:21.000Z</time>
      </trkpt>
      <trkpt lat="50.49334" lon="3.54532">
        <ele>25</ele>
        <time>2021-09-05T08:17:25.000Z</time>
      </trkpt>
      <trkpt lat="50.4933" lon="3.54536">
        <ele>25.1</ele>
        <time>2021-09-05T08:17:28.613Z</time>
      </trkpt>
      <trkpt lat="50.49321" lon="3.5454">
        <ele>25.4</ele>
        <time>2021-09-05T08:17:36.000Z</time>
      </trkpt>
      <trkpt lat="50.49314" lon="3.54543">
        <ele>25.7</ele>
        <time>2021-09-05T08:17:43.000Z</time>
      </trkpt>
      <trkpt lat="50.49305" lon="3.54547">
        <ele>26</ele>
        <time>2021-09-05T08:17:50.000Z</time>
      </trkpt>
      <trkpt lat="50.49301" lon="3.54549">
        <ele>26</ele>
        <time>2021-09-05T08:17:54.000Z</time>
      </trkpt>
      <trkpt lat="50.49296" lon="3.54551">
        <ele>26</ele>
        <time>2021-09-05T08:17:58.000Z</time>
      </trkpt>
      <trkpt lat="50.49288" lon="3.54556">
        <ele>26</ele>
        <time>2021-09-05T08:18:04.662Z</time>
      </trkpt>
      <trkpt lat="50.49278" lon="3.5456">
        <ele>26</ele>
        <time>2021-09-05T08:18:12.000Z</time>
      </trkpt>
      <trkpt lat="50.49271" lon="3.54563">
        <ele>26.2</ele>
        <time>2021-09-05T08:18:19.000Z</time>
      </trkpt>
      <trkpt lat="50.49266" lon="3.54563">
        <ele>26.4</ele>
        <time>2021-09-05T08:18:25.000Z</time>
      </trkpt>
      <trkpt lat="50.49258" lon="3.54565">
        <ele>26.7</ele>
        <time>2021-09-05T08:18:32.597Z</time>
      </trkpt>
      <trkpt lat="50.49252" lon="3.54568">
        <ele>26.9</ele>
        <time>2021-09-05T08:18:36.022Z</time>
      </trkpt>
      <trkpt lat="50.49247" lon="3.54571">
        <ele>27</ele>
        <time>2021-09-05T08:18:39.645Z</time>
      </trkpt>
      <trkpt lat="50.49243" lon="3.54574">
        <ele>27</ele>
        <time>2021-09-05T08:18:43.000Z</time>
      </trkpt>
      <trkpt lat="50.49234" lon="3.54578">
        <ele>27</ele>
        <time>2021-09-05T08:18:50.000Z</time>
      </trkpt>
      <trkpt lat="50.4923" lon="3.54581">
        <ele>27</ele>
        <time>2021-09-05T08:18:53.000Z</time>
      </trkpt>
      <trkpt lat="50.49222" lon="3.54585">
        <ele>27.1</ele>
        <time>2021-09-05T08:19:00.000Z</time>
      </trkpt>
      <trkpt lat="50.49217" lon="3.54588">
        <ele>27.3</ele>
        <time>2021-09-05T08:19:04.000Z</time>
      </trkpt>
      <trkpt lat="50.49209" lon="3.54594">
        <ele>27.7</ele>
        <time>2021-09-05T08:19:11.000Z</time>
      </trkpt>
      <trkpt lat="50.49202" lon="3.54598">
        <ele>27.9</ele>
        <time>2021-09-05T08:19:17.000Z</time>
      </trkpt>
      <trkpt lat="50.49195" lon="3.54605">
        <ele>28</ele>
        <time>2021-09-05T08:19:24.000Z</time>
      </trkpt>
      <trkpt lat="50.49188" lon="3.54609">
        <ele>28.2</ele>
        <time>2021-09-05T08:19:31.000Z</time>
      </trkpt>
      <trkpt lat="50.49178" lon="3.54609">
        <ele>28.6</ele>
        <time>2021-09-05T08:19:39.000Z</time>
      </trkpt>
      <trkpt lat="50.49169" lon="3.5461">
        <ele>28.9</ele>
        <time>2021-09-05T08:19:46.000Z</time>
      </trkpt>
      <trkpt lat="50.49161" lon="3.54613">
        <ele>29.3</ele>
        <time>2021-09-05T08:19:52.266Z</time>
      </trkpt>
      <trkpt lat="50.49156" lon="3.54614">
        <ele>29.5</ele>
        <time>2021-09-05T08:19:56.000Z</time>
      </trkpt>
      <trkpt lat="50.49147" lon="3.54618">
        <ele>30</ele>
        <time>2021-09-05T08:20:03.000Z</time>
      </trkpt>
      <trkpt lat="50.49138" lon="3.54622">
        <ele>30.4</ele>
        <time>2021-09-05T08:20:09.438Z</time>
      </trkpt>
      <trkpt lat="50.49132" lon="3.54624">
        <ele>30.6</ele>
        <time>2021-09-05T08:20:16.000Z</time>
      </trkpt>
      <trkpt lat="50.49128" lon="3.54628">
        <ele>30.8</ele>
        <time>2021-09-05T08:20:20.000Z</time>
      </trkpt>
      <trkpt lat="50.4912" lon="3.54633">
        <ele>30.9</ele>
        <time>2021-09-05T08:20:26.476Z</time>
      </trkpt>
      <trkpt lat="50.49112" lon="3.54636">
        <ele>31</ele>
        <time>2021-09-05T08:20:33.000Z</time>
      </trkpt>
      <trkpt lat="50.49107" lon="3.54638">
        <ele>31.3</ele>
        <time>2021-09-05T08:20:36.420Z</time>
      </trkpt>
      <trkpt lat="50.49099" lon="3.54642">
        <ele>31.9</ele>
        <time>2021-09-05T08:20:43.622Z</time>
      </trkpt>
      <trkpt lat="50.49093" lon="3.54648">
        <ele>32.4</ele>
        <time>2021-09-05T08:20:51.000Z</time>
      </trkpt>
      <trkpt lat="50.49086" lon="3.54654">
        <ele>32.9</ele>
        <time>2021-09-05T08:20:57.338Z</time>
      </trkpt>
      <trkpt lat="50.49079" lon="3.54657">
        <ele>33.1</ele>
        <time>2021-09-05T08:21:04.000Z</time>
      </trkpt>
      <trkpt lat="50.49071" lon="3.54659">
        <ele>33.1</ele>
        <time>2021-09-05T08:21:10.780Z</time>
      </trkpt>
      <trkpt lat="50.49067" lon="3.54662">
        <ele>33.1</ele>
        <time>2021-09-05T08:21:14.000Z</time>
      </trkpt>
      <trkpt lat="50.49061" lon="3.54666">
        <ele>33</ele>
        <time>2021-09-05T08:21:18.000Z</time>
      </trkpt>
      <trkpt lat="50.49054" lon="3.54671">
        <ele>33.3</ele>
        <time>2021-09-05T08:21:25.000Z</time>
      </trkpt>
      <trkpt lat="50.49046" lon="3.54675">
        <ele>33.9</ele>
        <time>2021-09-05T08:21:31.000Z</time>
      </trkpt>
      <trkpt lat="50.49041" lon="3.54677">
        <ele>34.2</ele>
        <time>2021-09-05T08:21:35.000Z</time>
      </trkpt>
      <trkpt lat="50.49032" lon="3.5468">
        <ele>34.8</ele>
        <time>2021-09-05T08:21:41.277Z</time>
      </trkpt>
      <trkpt lat="50.49027" lon="3.54681">
        <ele>35</ele>
        <time>2021-09-05T08:21:45.000Z</time>
      </trkpt>
      <trkpt lat="50.4902" lon="3.54681">
        <ele>35.3</ele>
        <time>2021-09-05T08:21:51.000Z</time>
      </trkpt>
      <trkpt lat="50.49014" lon="3.54681">
        <ele>35.5</ele>
        <time>2021-09-05T08:21:55.000Z</time>
      </trkpt>
      <trkpt lat="50.49007" lon="3.54683">
        <ele>35.7</ele>
        <time>2021-09-05T08:22:01.000Z</time>
      </trkpt>
      <trkpt lat="50.48999" lon="3.54686">
        <ele>36</ele>
        <time>2021-09-05T08:22:08.000Z</time>
      </trkpt>
      <trkpt lat="50.48992" lon="3.5469">
        <ele>36</ele>
        <time>2021-09-05T08:22:14.000Z</time>
      </trkpt>
      <trkpt lat="50.48985" lon="3.54693">
        <ele>36</ele>
        <time>2021-09-05T08:22:21.000Z</time>
      </trkpt>
      <trkpt lat="50.48981" lon="3.54695">
        <ele>36</ele>
        <time>2021-09-05T08:22:25.000Z</time>
      </trkpt>
      <trkpt lat="50.48972" lon="3.547">
        <ele>36</ele>
        <time>2021-09-05T08:22:32.000Z</time>
      </trkpt>
      <trkpt lat="50.48965" lon="3.54701">
        <ele>36.1</ele>
        <time>2021-09-05T08:22:38.000Z</time>
      </trkpt>
      <trkpt lat="50.48958" lon="3.54703">
        <ele>36.2</ele>
        <time>2021-09-05T08:22:44.282Z</time>
      </trkpt>
      <trkpt lat="50.4895" lon="3.54708">
        <ele>36.4</ele>
        <time>2021-09-05T08:22:51.000Z</time>
      </trkpt>
      <trkpt lat="50.48941" lon="3.54711">
        <ele>36.6</ele>
        <time>2021-09-05T08:22:58.000Z</time>
      </trkpt>
      <trkpt lat="50.48936" lon="3.54713">
        <ele>36.7</ele>
        <time>2021-09-05T08:23:02.000Z</time>
      </trkpt>
      <trkpt lat="50.4893" lon="3.54717">
        <ele>36.8</ele>
        <time>2021-09-05T08:23:09.000Z</time>
      </trkpt>
      <trkpt lat="50.4892" lon="3.5472">
        <ele>36.9</ele>
        <time>2021-09-05T08:23:17.000Z</time>
      </trkpt>
      <trkpt lat="50.48915" lon="3.54723">
        <ele>36.9</ele>
        <time>2021-09-05T08:23:20.000Z</time>
      </trkpt>
      <trkpt lat="50.4891" lon="3.54728">
        <ele>36.6</ele>
        <time>2021-09-05T08:23:23.000Z</time>
      </trkpt>
      <trkpt lat="50.48901" lon="3.54729">
        <ele>36.3</ele>
        <time>2021-09-05T08:23:26.000Z</time>
      </trkpt>
      <trkpt lat="50.48893" lon="3.54727">
        <ele>36.1</ele>
        <time>2021-09-05T08:23:29.000Z</time>
      </trkpt>
      <trkpt lat="50.48876" lon="3.54738">
        <ele>36</ele>
        <time>2021-09-05T08:23:33.000Z</time>
      </trkpt>
      <trkpt lat="50.48863" lon="3.54745">
        <ele>36</ele>
        <time>2021-09-05T08:23:36.000Z</time>
      </trkpt>
      <trkpt lat="50.48853" lon="3.5475">
        <ele>36</ele>
        <time>2021-09-05T08:23:39.000Z</time>
      </trkpt>
      <trkpt lat="50.48841" lon="3.54753">
        <ele>36</ele>
        <time>2021-09-05T08:23:42.315Z</time>
      </trkpt>
      <trkpt lat="50.48826" lon="3.54762">
        <ele>35.9</ele>
        <time>2021-09-05T08:23:46.000Z</time>
      </trkpt>
      <trkpt lat="50.48811" lon="3.54773">
        <ele>35.9</ele>
        <time>2021-09-05T08:23:50.000Z</time>
      </trkpt>
      <trkpt lat="50.48798" lon="3.54775">
        <ele>35.7</ele>
        <time>2021-09-05T08:23:53.000Z</time>
      </trkpt>
      <trkpt lat="50.48784" lon="3.54788">
        <ele>35.2</ele>
        <time>2021-09-05T08:23:56.000Z</time>
      </trkpt>
      <trkpt lat="50.48764" lon="3.54806">
        <ele>35</ele>
        <time>2021-09-05T08:24:00.000Z</time>
      </trkpt>
      <trkpt lat="50.48746" lon="3.5482">
        <ele>34.9</ele>
        <time>2021-09-05T08:24:04.000Z</time>
      </trkpt>
      <trkpt lat="50.48733" lon="3.54831">
        <ele>34.9</ele>
        <time>2021-09-05T08:24:07.561Z</time>
      </trkpt>
      <trkpt lat="50.48722" lon="3.54843">
        <ele>35</ele>
        <time>2021-09-05T08:24:10.713Z</time>
      </trkpt>
      <trkpt lat="50.48712" lon="3.54863">
        <ele>35</ele>
        <time>2021-09-05T08:24:14.000Z</time>
      </trkpt>
      <trkpt lat="50.48703" lon="3.54881">
        <ele>35</ele>
        <time>2021-09-05T08:24:17.000Z</time>
      </trkpt>
      <trkpt lat="50.48696" lon="3.54896">
        <ele>35</ele>
        <time>2021-09-05T08:24:20.000Z</time>
      </trkpt>
      <trkpt lat="50.48689" lon="3.5491">
        <ele>35</ele>
        <time>2021-09-05T08:24:23.000Z</time>
      </trkpt>
      <trkpt lat="50.48684" lon="3.54925">
        <ele>35</ele>
        <time>2021-09-05T08:24:26.000Z</time>
      </trkpt>
      <trkpt lat="50.48674" lon="3.54931">
        <ele>35</ele>
        <time>2021-09-05T08:24:29.000Z</time>
      </trkpt>
      <trkpt lat="50.48661" lon="3.54933">
        <ele>35</ele>
        <time>2021-09-05T08:24:32.159Z</time>
      </trkpt>
      <trkpt lat="50.48648" lon="3.54938">
        <ele>35</ele>
        <time>2021-09-05T08:24:36.000Z</time>
      </trkpt>
      <trkpt lat="50.48638" lon="3.54941">
        <ele>35</ele>
        <time>2021-09-05T08:24:39.000Z</time>
      </trkpt>
      <trkpt lat="50.48624" lon="3.54943">
        <ele>35</ele>
        <time>2021-09-05T08:24:43.000Z</time>
      </trkpt>
      <trkpt lat="50.48615" lon="3.54946">
        <ele>35</ele>
        <time>2021-09-05T08:24:46.000Z</time>
      </trkpt>
      <trkpt lat="50.48595" lon="3.54949">
        <ele>34.5</ele>
        <time>2021-09-05T08:24:50.000Z</time>
      </trkpt>
      <trkpt lat="50.48581" lon="3.54951">
        <ele>34.2</ele>
        <time>2021-09-05T08:24:53.000Z</time>
      </trkpt>
      <trkpt lat="50.48569" lon="3.54954">
        <ele>34.3</ele>
        <time>2021-09-05T08:24:56.000Z</time>
      </trkpt>
      <trkpt lat="50.48557" lon="3.54956">
        <ele>34.4</ele>
        <time>2021-09-05T08:24:59.000Z</time>
      </trkpt>
      <trkpt lat="50.48543" lon="3.54958">
        <ele>34.5</ele>
        <time>2021-09-05T08:25:02.000Z</time>
      </trkpt>
      <trkpt lat="50.48523" lon="3.54959">
        <ele>34.6</ele>
        <time>2021-09-05T08:25:06.000Z</time>
      </trkpt>
      <trkpt lat="50.48508" lon="3.54961">
        <ele>34.9</ele>
        <time>2021-09-05T08:25:10.000Z</time>
      </trkpt>
      <trkpt lat="50.48494" lon="3.54956">
        <ele>35</ele>
        <time>2021-09-05T08:25:13.000Z</time>
      </trkpt>
      <trkpt lat="50.48483" lon="3.54949">
        <ele>35</ele>
        <time>2021-09-05T08:25:16.761Z</time>
      </trkpt>
      <trkpt lat="50.48467" lon="3.54943">
        <ele>35</ele>
        <time>2021-09-05T08:25:20.000Z</time>
      </trkpt>
      <trkpt lat="50.48457" lon="3.54939">
        <ele>35</ele>
        <time>2021-09-05T08:25:23.000Z</time>
      </trkpt>
      <trkpt lat="50.48445" lon="3.5493">
        <ele>35</ele>
        <time>2021-09-05T08:25:26.000Z</time>
      </trkpt>
      <trkpt lat="50.48433" lon="3.54923">
        <ele>35</ele>
        <time>2021-09-05T08:25:29.267Z</time>
      </trkpt>
      <trkpt lat="50.48418" lon="3.54913">
        <ele>35</ele>
        <time>2021-09-05T08:25:33.000Z</time>
      </trkpt>
      <trkpt lat="50.48405" lon="3.54902">
        <ele>35</ele>
        <time>2021-09-05T08:25:36.629Z</time>
      </trkpt>
      <trkpt lat="50.4839" lon="3.54892">
        <ele>35</ele>
        <time>2021-09-05T08:25:40.000Z</time>
      </trkpt>
      <trkpt lat="50.48376" lon="3.54882">
        <ele>35</ele>
        <time>2021-09-05T08:25:43.793Z</time>
      </trkpt>
      <trkpt lat="50.48363" lon="3.54875">
        <ele>35</ele>
        <time>2021-09-05T08:25:47.000Z</time>
      </trkpt>
      <trkpt lat="50.48352" lon="3.54866">
        <ele>35</ele>
        <time>2021-09-05T08:25:50.507Z</time>
      </trkpt>
      <trkpt lat="50.48336" lon="3.5486">
        <ele>35</ele>
        <time>2021-09-05T08:25:54.000Z</time>
      </trkpt>
      <trkpt lat="50.48318" lon="3.54854">
        <ele>35</ele>
        <time>2021-09-05T08:25:58.000Z</time>
      </trkpt>
      <trkpt lat="50.48303" lon="3.54851">
        <ele>35</ele>
        <time>2021-09-05T08:26:01.392Z</time>
      </trkpt>
      <trkpt lat="50.4829" lon="3.54844">
        <ele>35</ele>
        <time>2021-09-05T08:26:04.593Z</time>
      </trkpt>
      <trkpt lat="50.48277" lon="3.54842">
        <ele>35</ele>
        <time>2021-09-05T08:26:08.000Z</time>
      </trkpt>
      <trkpt lat="50.48266" lon="3.54841">
        <ele>35</ele>
        <time>2021-09-05T08:26:11.000Z</time>
      </trkpt>
      <trkpt lat="50.48253" lon="3.5484">
        <ele>35</ele>
        <time>2021-09-05T08:26:14.000Z</time>
      </trkpt>
      <trkpt lat="50.48238" lon="3.54842">
        <ele>35</ele>
        <time>2021-09-05T08:26:17.000Z</time>
      </trkpt>
      <trkpt lat="50.48226" lon="3.54847">
        <ele>35</ele>
        <time>2021-09-05T08:26:20.310Z</time>
      </trkpt>
      <trkpt lat="50.48213" lon="3.54848">
        <ele>35</ele>
        <time>2021-09-05T08:26:24.000Z</time>
      </trkpt>
      <trkpt lat="50.48202" lon="3.5485">
        <ele>35</ele>
        <time>2021-09-05T08:26:27.000Z</time>
      </trkpt>
      <trkpt lat="50.48182" lon="3.54854">
        <ele>34.9</ele>
        <time>2021-09-05T08:26:31.000Z</time>
      </trkpt>
      <trkpt lat="50.4817" lon="3.5486">
        <ele>35</ele>
        <time>2021-09-05T08:26:33.945Z</time>
      </trkpt>
      <trkpt lat="50.48155" lon="3.54865">
        <ele>35</ele>
        <time>2021-09-05T08:26:37.607Z</time>
      </trkpt>
      <trkpt lat="50.48142" lon="3.54867">
        <ele>35</ele>
        <time>2021-09-05T08:26:41.000Z</time>
      </trkpt>
      <trkpt lat="50.48122" lon="3.54866">
        <ele>34.4</ele>
        <time>2021-09-05T08:26:45.000Z</time>
      </trkpt>
      <trkpt lat="50.48103" lon="3.54862">
        <ele>34</ele>
        <time>2021-09-05T08:26:49.000Z</time>
      </trkpt>
      <trkpt lat="50.48092" lon="3.54857">
        <ele>33.9</ele>
        <time>2021-09-05T08:26:52.000Z</time>
      </trkpt>
      <trkpt lat="50.48077" lon="3.54858">
        <ele>33.7</ele>
        <time>2021-09-05T08:26:55.000Z</time>
      </trkpt>
      <trkpt lat="50.48062" lon="3.54851">
        <ele>33.1</ele>
        <time>2021-09-05T08:26:58.468Z</time>
      </trkpt>
      <trkpt lat="50.48054" lon="3.54832">
        <ele>33</ele>
        <time>2021-09-05T08:27:02.000Z</time>
      </trkpt>
      <trkpt lat="50.48045" lon="3.54808">
        <ele>32.7</ele>
        <time>2021-09-05T08:27:06.000Z</time>
      </trkpt>
      <trkpt lat="50.48037" lon="3.54787">
        <ele>32.1</ele>
        <time>2021-09-05T08:27:09.000Z</time>
      </trkpt>
      <trkpt lat="50.48028" lon="3.54766">
        <ele>32</ele>
        <time>2021-09-05T08:27:12.493Z</time>
      </trkpt>
      <trkpt lat="50.48019" lon="3.54745">
        <ele>32</ele>
        <time>2021-09-05T08:27:16.000Z</time>
      </trkpt>
      <trkpt lat="50.4801" lon="3.54722">
        <ele>32</ele>
        <time>2021-09-05T08:27:20.000Z</time>
      </trkpt>
      <trkpt lat="50.48001" lon="3.54707">
        <ele>32</ele>
        <time>2021-09-05T08:27:23.000Z</time>
      </trkpt>
      <trkpt lat="50.47992" lon="3.54688">
        <ele>32</ele>
        <time>2021-09-05T08:27:26.000Z</time>
      </trkpt>
      <trkpt lat="50.47983" lon="3.54668">
        <ele>32</ele>
        <time>2021-09-05T08:27:29.411Z</time>
      </trkpt>
      <trkpt lat="50.47974" lon="3.54646">
        <ele>32</ele>
        <time>2021-09-05T08:27:33.000Z</time>
      </trkpt>
      <trkpt lat="50.47965" lon="3.54622">
        <ele>31.3</ele>
        <time>2021-09-05T08:27:37.000Z</time>
      </trkpt>
      <trkpt lat="50.47957" lon="3.54607">
        <ele>31</ele>
        <time>2021-09-05T08:27:40.000Z</time>
      </trkpt>
      <trkpt lat="50.47949" lon="3.54587">
        <ele>31</ele>
        <time>2021-09-05T08:27:43.459Z</time>
      </trkpt>
      <trkpt lat="50.47939" lon="3.5457">
        <ele>31</ele>
        <time>2021-09-05T08:27:46.941Z</time>
      </trkpt>
      <trkpt lat="50.47931" lon="3.54556">
        <ele>31</ele>
        <time>2021-09-05T08:27:50.179Z</time>
      </trkpt>
      <trkpt lat="50.47921" lon="3.54539">
        <ele>31</ele>
        <time>2021-09-05T08:27:54.000Z</time>
      </trkpt>
      <trkpt lat="50.47918" lon="3.54532">
        <ele>31</ele>
        <time>2021-09-05T08:27:58.000Z</time>
      </trkpt>
      <trkpt lat="50.47916" lon="3.54524">
        <ele>31</ele>
        <time>2021-09-05T08:37:34.000Z</time>
      </trkpt>
      <trkpt lat="50.47911" lon="3.54514">
        <ele>30.8</ele>
        <time>2021-09-05T08:37:37.000Z</time>
      </trkpt>
      <trkpt lat="50.47905" lon="3.545">
        <ele>30.6</ele>
        <time>2021-09-05T08:37:39.928Z</time>
      </trkpt>
      <trkpt lat="50.47899" lon="3.54484">
        <ele>30.4</ele>
        <time>2021-09-05T08:37:43.274Z</time>
      </trkpt>
      <trkpt lat="50.47893" lon="3.5447">
        <ele>30.1</ele>
        <time>2021-09-05T08:37:46.744Z</time>
      </trkpt>
      <trkpt lat="50.47886" lon="3.5445">
        <ele>30</ele>
        <time>2021-09-05T08:37:50.000Z</time>
      </trkpt>
      <trkpt lat="50.47878" lon="3.54429">
        <ele>30</ele>
        <time>2021-09-05T08:37:53.000Z</time>
      </trkpt>
      <trkpt lat="50.47871" lon="3.5441">
        <ele>30</ele>
        <time>2021-09-05T08:37:56.004Z</time>
      </trkpt>
      <trkpt lat="50.47864" lon="3.54392">
        <ele>30</ele>
        <time>2021-09-05T08:37:59.290Z</time>
      </trkpt>
      <trkpt lat="50.47858" lon="3.54376">
        <ele>29.9</ele>
        <time>2021-09-05T08:38:02.628Z</time>
      </trkpt>
      <trkpt lat="50.47852" lon="3.54359">
        <ele>29.6</ele>
        <time>2021-09-05T08:38:06.000Z</time>
      </trkpt>
      <trkpt lat="50.47844" lon="3.54341">
        <ele>29.1</ele>
        <time>2021-09-05T08:38:09.163Z</time>
      </trkpt>
      <trkpt lat="50.47839" lon="3.54321">
        <ele>29</ele>
        <time>2021-09-05T08:38:13.000Z</time>
      </trkpt>
      <trkpt lat="50.4783" lon="3.54294">
        <ele>29</ele>
        <time>2021-09-05T08:38:17.000Z</time>
      </trkpt>
      <trkpt lat="50.47825" lon="3.54274">
        <ele>29</ele>
        <time>2021-09-05T08:38:20.000Z</time>
      </trkpt>
      <trkpt lat="50.4782" lon="3.54252">
        <ele>29</ele>
        <time>2021-09-05T08:38:23.000Z</time>
      </trkpt>
      <trkpt lat="50.47814" lon="3.54225">
        <ele>29</ele>
        <time>2021-09-05T08:38:27.000Z</time>
      </trkpt>
      <trkpt lat="50.47813" lon="3.54208">
        <ele>29</ele>
        <time>2021-09-05T08:38:30.293Z</time>
      </trkpt>
      <trkpt lat="50.47809" lon="3.54189">
        <ele>29</ele>
        <time>2021-09-05T08:38:33.635Z</time>
      </trkpt>
      <trkpt lat="50.47808" lon="3.54171">
        <ele>29</ele>
        <time>2021-09-05T08:38:37.000Z</time>
      </trkpt>
      <trkpt lat="50.47804" lon="3.54152">
        <ele>28.4</ele>
        <time>2021-09-05T08:38:39.944Z</time>
      </trkpt>
      <trkpt lat="50.478" lon="3.54132">
        <ele>27.8</ele>
        <time>2021-09-05T08:38:43.646Z</time>
      </trkpt>
      <trkpt lat="50.47798" lon="3.54114">
        <ele>27.7</ele>
        <time>2021-09-05T08:38:47.000Z</time>
      </trkpt>
      <trkpt lat="50.47794" lon="3.54095">
        <ele>27.3</ele>
        <time>2021-09-05T08:38:51.000Z</time>
      </trkpt>
      <trkpt lat="50.4779" lon="3.54076">
        <ele>26.9</ele>
        <time>2021-09-05T08:38:54.242Z</time>
      </trkpt>
      <trkpt lat="50.47785" lon="3.5405">
        <ele>26.5</ele>
        <time>2021-09-05T08:38:58.000Z</time>
      </trkpt>
      <trkpt lat="50.47781" lon="3.54029">
        <ele>26.2</ele>
        <time>2021-09-05T08:39:01.000Z</time>
      </trkpt>
      <trkpt lat="50.47775" lon="3.54002">
        <ele>26</ele>
        <time>2021-09-05T08:39:05.000Z</time>
      </trkpt>
      <trkpt lat="50.47771" lon="3.53979">
        <ele>26</ele>
        <time>2021-09-05T08:39:08.771Z</time>
      </trkpt>
      <trkpt lat="50.4777" lon="3.53961">
        <ele>26</ele>
        <time>2021-09-05T08:39:12.000Z</time>
      </trkpt>
      <trkpt lat="50.47764" lon="3.53947">
        <ele>26</ele>
        <time>2021-09-05T08:39:15.000Z</time>
      </trkpt>
      <trkpt lat="50.47759" lon="3.53934">
        <ele>26</ele>
        <time>2021-09-05T08:39:18.000Z</time>
      </trkpt>
      <trkpt lat="50.47752" lon="3.53917">
        <ele>26</ele>
        <time>2021-09-05T08:39:21.507Z</time>
      </trkpt>
      <trkpt lat="50.47745" lon="3.53894">
        <ele>26</ele>
        <time>2021-09-05T08:39:25.000Z</time>
      </trkpt>
      <trkpt lat="50.47737" lon="3.53875">
        <ele>26</ele>
        <time>2021-09-05T08:39:28.000Z</time>
      </trkpt>
      <trkpt lat="50.47731" lon="3.53855">
        <ele>25.9</ele>
        <time>2021-09-05T08:39:31.489Z</time>
      </trkpt>
      <trkpt lat="50.47723" lon="3.5384">
        <ele>26</ele>
        <time>2021-09-05T08:39:35.000Z</time>
      </trkpt>
      <trkpt lat="50.47718" lon="3.53825">
        <ele>25.7</ele>
        <time>2021-09-05T08:39:38.000Z</time>
      </trkpt>
      <trkpt lat="50.47712" lon="3.53806">
        <ele>25.4</ele>
        <time>2021-09-05T08:39:41.000Z</time>
      </trkpt>
      <trkpt lat="50.47704" lon="3.53775">
        <ele>25.7</ele>
        <time>2021-09-05T08:39:45.000Z</time>
      </trkpt>
      <trkpt lat="50.47697" lon="3.53753">
        <ele>25.9</ele>
        <time>2021-09-05T08:39:49.000Z</time>
      </trkpt>
      <trkpt lat="50.47689" lon="3.53725">
        <ele>26</ele>
        <time>2021-09-05T08:39:53.000Z</time>
      </trkpt>
      <trkpt lat="50.47685" lon="3.53704">
        <ele>26</ele>
        <time>2021-09-05T08:39:56.000Z</time>
      </trkpt>
      <trkpt lat="50.47682" lon="3.53685">
        <ele>25.8</ele>
        <time>2021-09-05T08:40:00.000Z</time>
      </trkpt>
      <trkpt lat="50.47676" lon="3.53664">
        <ele>25.6</ele>
        <time>2021-09-05T08:40:03.000Z</time>
      </trkpt>
      <trkpt lat="50.47672" lon="3.53644">
        <ele>25.1</ele>
        <time>2021-09-05T08:40:06.000Z</time>
      </trkpt>
      <trkpt lat="50.47668" lon="3.53622">
        <ele>25</ele>
        <time>2021-09-05T08:40:09.427Z</time>
      </trkpt>
      <trkpt lat="50.47664" lon="3.53598">
        <ele>25.5</ele>
        <time>2021-09-05T08:40:13.000Z</time>
      </trkpt>
      <trkpt lat="50.47665" lon="3.53578">
        <ele>26</ele>
        <time>2021-09-05T08:40:16.398Z</time>
      </trkpt>
      <trkpt lat="50.47657" lon="3.53553">
        <ele>26</ele>
        <time>2021-09-05T08:40:20.075Z</time>
      </trkpt>
      <trkpt lat="50.47651" lon="3.53533">
        <ele>26</ele>
        <time>2021-09-05T08:40:23.457Z</time>
      </trkpt>
      <trkpt lat="50.47649" lon="3.53515">
        <ele>26</ele>
        <time>2021-09-05T08:40:26.553Z</time>
      </trkpt>
      <trkpt lat="50.47646" lon="3.53494">
        <ele>26</ele>
        <time>2021-09-05T08:40:29.697Z</time>
      </trkpt>
      <trkpt lat="50.47642" lon="3.53475">
        <ele>26</ele>
        <time>2021-09-05T08:40:33.000Z</time>
      </trkpt>
      <trkpt lat="50.47638" lon="3.53458">
        <ele>26</ele>
        <time>2021-09-05T08:40:36.000Z</time>
      </trkpt>
      <trkpt lat="50.47634" lon="3.53437">
        <ele>26</ele>
        <time>2021-09-05T08:40:39.675Z</time>
      </trkpt>
      <trkpt lat="50.47631" lon="3.53421">
        <ele>26</ele>
        <time>2021-09-05T08:40:43.000Z</time>
      </trkpt>
      <trkpt lat="50.47627" lon="3.53403">
        <ele>26</ele>
        <time>2021-09-05T08:40:47.000Z</time>
      </trkpt>
      <trkpt lat="50.47623" lon="3.53386">
        <ele>26</ele>
        <time>2021-09-05T08:40:51.000Z</time>
      </trkpt>
      <trkpt lat="50.47614" lon="3.53354">
        <ele>26</ele>
        <time>2021-09-05T08:40:55.000Z</time>
      </trkpt>
      <trkpt lat="50.47605" lon="3.53324">
        <ele>25.7</ele>
        <time>2021-09-05T08:40:59.000Z</time>
      </trkpt>
      <trkpt lat="50.47598" lon="3.53305">
        <ele>25.5</ele>
        <time>2021-09-05T08:41:01.980Z</time>
      </trkpt>
      <trkpt lat="50.4759" lon="3.53284">
        <ele>25.2</ele>
        <time>2021-09-05T08:41:05.518Z</time>
      </trkpt>
      <trkpt lat="50.47581" lon="3.53268">
        <ele>25.1</ele>
        <time>2021-09-05T08:41:09.000Z</time>
      </trkpt>
      <trkpt lat="50.47569" lon="3.5324">
        <ele>25.2</ele>
        <time>2021-09-05T08:41:13.000Z</time>
      </trkpt>
      <trkpt lat="50.47556" lon="3.53214">
        <ele>25</ele>
        <time>2021-09-05T08:41:17.000Z</time>
      </trkpt>
      <trkpt lat="50.47546" lon="3.53195">
        <ele>25</ele>
        <time>2021-09-05T08:41:20.000Z</time>
      </trkpt>
      <trkpt lat="50.47534" lon="3.53164">
        <ele>25</ele>
        <time>2021-09-05T08:41:24.000Z</time>
      </trkpt>
      <trkpt lat="50.47524" lon="3.53144">
        <ele>25</ele>
        <time>2021-09-05T08:41:27.000Z</time>
      </trkpt>
      <trkpt lat="50.47516" lon="3.53109">
        <ele>25</ele>
        <time>2021-09-05T08:41:31.000Z</time>
      </trkpt>
      <trkpt lat="50.47504" lon="3.53079">
        <ele>25</ele>
        <time>2021-09-05T08:41:35.000Z</time>
      </trkpt>
      <trkpt lat="50.47495" lon="3.53057">
        <ele>25</ele>
        <time>2021-09-05T08:41:38.000Z</time>
      </trkpt>
      <trkpt lat="50.47483" lon="3.53028">
        <ele>25</ele>
        <time>2021-09-05T08:41:42.000Z</time>
      </trkpt>
      <trkpt lat="50.47471" lon="3.52998">
        <ele>25</ele>
        <time>2021-09-05T08:41:46.000Z</time>
      </trkpt>
      <trkpt lat="50.47458" lon="3.52974">
        <ele>25</ele>
        <time>2021-09-05T08:41:50.000Z</time>
      </trkpt>
      <trkpt lat="50.47448" lon="3.52958">
        <ele>25</ele>
        <time>2021-09-05T08:41:53.000Z</time>
      </trkpt>
      <trkpt lat="50.47435" lon="3.52939">
        <ele>25</ele>
        <time>2021-09-05T08:41:57.000Z</time>
      </trkpt>
      <trkpt lat="50.4742" lon="3.5292">
        <ele>25</ele>
        <time>2021-09-05T08:42:01.000Z</time>
      </trkpt>
      <trkpt lat="50.47409" lon="3.52908">
        <ele>25.2</ele>
        <time>2021-09-05T08:42:04.000Z</time>
      </trkpt>
      <trkpt lat="50.47396" lon="3.52896">
        <ele>25.2</ele>
        <time>2021-09-05T08:42:06.999Z</time>
      </trkpt>
      <trkpt lat="50.47383" lon="3.52881">
        <ele>25</ele>
        <time>2021-09-05T08:42:11.000Z</time>
      </trkpt>
      <trkpt lat="50.47375" lon="3.52871">
        <ele>25</ele>
        <time>2021-09-05T08:42:14.000Z</time>
      </trkpt>
      <trkpt lat="50.4736" lon="3.52856">
        <ele>25</ele>
        <time>2021-09-05T08:42:18.000Z</time>
      </trkpt>
      <trkpt lat="50.4735" lon="3.52845">
        <ele>25</ele>
        <time>2021-09-05T08:42:21.000Z</time>
      </trkpt>
      <trkpt lat="50.47341" lon="3.52838">
        <ele>25</ele>
        <time>2021-09-05T08:42:24.000Z</time>
      </trkpt>
      <trkpt lat="50.47328" lon="3.52822">
        <ele>24.9</ele>
        <time>2021-09-05T08:42:27.320Z</time>
      </trkpt>
      <trkpt lat="50.47316" lon="3.52807">
        <ele>24.4</ele>
        <time>2021-09-05T08:42:31.000Z</time>
      </trkpt>
      <trkpt lat="50.47307" lon="3.52795">
        <ele>24.1</ele>
        <time>2021-09-05T08:42:34.000Z</time>
      </trkpt>
      <trkpt lat="50.47293" lon="3.52777">
        <ele>24</ele>
        <time>2021-09-05T08:42:38.000Z</time>
      </trkpt>
      <trkpt lat="50.47282" lon="3.52766">
        <ele>24</ele>
        <time>2021-09-05T08:42:41.000Z</time>
      </trkpt>
      <trkpt lat="50.4727" lon="3.52753">
        <ele>24</ele>
        <time>2021-09-05T08:42:44.000Z</time>
      </trkpt>
      <trkpt lat="50.47259" lon="3.5274">
        <ele>24</ele>
        <time>2021-09-05T08:42:47.298Z</time>
      </trkpt>
      <trkpt lat="50.47246" lon="3.52724">
        <ele>24</ele>
        <time>2021-09-05T08:42:51.000Z</time>
      </trkpt>
      <trkpt lat="50.47243" lon="3.5271">
        <ele>24</ele>
        <time>2021-09-05T08:42:55.000Z</time>
      </trkpt>
      <trkpt lat="50.47254" lon="3.52691">
        <ele>24</ele>
        <time>2021-09-05T08:42:58.000Z</time>
      </trkpt>
      <trkpt lat="50.47262" lon="3.52667">
        <ele>24</ele>
        <time>2021-09-05T08:43:01.000Z</time>
      </trkpt>
      <trkpt lat="50.47245" lon="3.52648">
        <ele>24</ele>
        <time>2021-09-05T08:43:05.000Z</time>
      </trkpt>
      <trkpt lat="50.47233" lon="3.5263">
        <ele>23.8</ele>
        <time>2021-09-05T08:43:08.000Z</time>
      </trkpt>
      <trkpt lat="50.47217" lon="3.52605">
        <ele>23</ele>
        <time>2021-09-05T08:43:12.000Z</time>
      </trkpt>
      <trkpt lat="50.47206" lon="3.52587">
        <ele>23</ele>
        <time>2021-09-05T08:43:15.000Z</time>
      </trkpt>
      <trkpt lat="50.47191" lon="3.52567">
        <ele>23</ele>
        <time>2021-09-05T08:43:19.000Z</time>
      </trkpt>
      <trkpt lat="50.4718" lon="3.52545">
        <ele>23</ele>
        <time>2021-09-05T08:43:23.000Z</time>
      </trkpt>
      <trkpt lat="50.47168" lon="3.52525">
        <ele>22.9</ele>
        <time>2021-09-05T08:43:27.000Z</time>
      </trkpt>
      <trkpt lat="50.47158" lon="3.52509">
        <ele>22.3</ele>
        <time>2021-09-05T08:43:30.399Z</time>
      </trkpt>
      <trkpt lat="50.47147" lon="3.52494">
        <ele>22</ele>
        <time>2021-09-05T08:43:34.000Z</time>
      </trkpt>
      <trkpt lat="50.47136" lon="3.52476">
        <ele>22</ele>
        <time>2021-09-05T08:43:38.000Z</time>
      </trkpt>
      <trkpt lat="50.47124" lon="3.5246">
        <ele>21.8</ele>
        <time>2021-09-05T08:43:42.000Z</time>
      </trkpt>
      <trkpt lat="50.47116" lon="3.5245">
        <ele>21.3</ele>
        <time>2021-09-05T08:43:45.000Z</time>
      </trkpt>
      <trkpt lat="50.47107" lon="3.5244">
        <ele>21</ele>
        <time>2021-09-05T08:43:48.000Z</time>
      </trkpt>
      <trkpt lat="50.47096" lon="3.52427">
        <ele>21</ele>
        <time>2021-09-05T08:43:52.000Z</time>
      </trkpt>
      <trkpt lat="50.47086" lon="3.52411">
        <ele>21</ele>
        <time>2021-09-05T08:43:56.000Z</time>
      </trkpt>
      <trkpt lat="50.47079" lon="3.52397">
        <ele>20.8</ele>
        <time>2021-09-05T08:43:59.000Z</time>
      </trkpt>
      <trkpt lat="50.47068" lon="3.52376">
        <ele>20.4</ele>
        <time>2021-09-05T08:44:03.000Z</time>
      </trkpt>
      <trkpt lat="50.4706" lon="3.52361">
        <ele>20.2</ele>
        <time>2021-09-05T08:44:06.000Z</time>
      </trkpt>
      <trkpt lat="50.47049" lon="3.52347">
        <ele>19.4</ele>
        <time>2021-09-05T08:44:09.000Z</time>
      </trkpt>
      <trkpt lat="50.47038" lon="3.52331">
        <ele>19</ele>
        <time>2021-09-05T08:44:12.000Z</time>
      </trkpt>
      <trkpt lat="50.47022" lon="3.52313">
        <ele>18.8</ele>
        <time>2021-09-05T08:44:16.000Z</time>
      </trkpt>
      <trkpt lat="50.47012" lon="3.52302">
        <ele>18.4</ele>
        <time>2021-09-05T08:44:19.000Z</time>
      </trkpt>
      <trkpt lat="50.47004" lon="3.52292">
        <ele>18.1</ele>
        <time>2021-09-05T08:44:22.000Z</time>
      </trkpt>
      <trkpt lat="50.46992" lon="3.52277">
        <ele>18.3</ele>
        <time>2021-09-05T08:44:26.000Z</time>
      </trkpt>
      <trkpt lat="50.46982" lon="3.52266">
        <ele>19.3</ele>
        <time>2021-09-05T08:44:30.000Z</time>
      </trkpt>
      <trkpt lat="50.46973" lon="3.52252">
        <ele>20.8</ele>
        <time>2021-09-05T08:44:38.000Z</time>
      </trkpt>
      <trkpt lat="50.46967" lon="3.52244">
        <ele>19.7</ele>
        <time>2021-09-05T08:44:41.000Z</time>
      </trkpt>
      <trkpt lat="50.46961" lon="3.52239">
        <ele>18.7</ele>
        <time>2021-09-05T08:44:45.000Z</time>
      </trkpt>
      <trkpt lat="50.46957" lon="3.52235">
        <ele>18.1</ele>
        <time>2021-09-05T08:44:48.000Z</time>
      </trkpt>
      <trkpt lat="50.46948" lon="3.52225">
        <ele>17.2</ele>
        <time>2021-09-05T08:44:51.769Z</time>
      </trkpt>
      <trkpt lat="50.46939" lon="3.52215">
        <ele>16.8</ele>
        <time>2021-09-05T08:44:55.000Z</time>
      </trkpt>
      <trkpt lat="50.46931" lon="3.52207">
        <ele>16.7</ele>
        <time>2021-09-05T08:44:58.000Z</time>
      </trkpt>
      <trkpt lat="50.46927" lon="3.52199">
        <ele>16.7</ele>
        <time>2021-09-05T08:45:01.214Z</time>
      </trkpt>
      <trkpt lat="50.46911" lon="3.52186">
        <ele>17.5</ele>
        <time>2021-09-05T08:45:05.000Z</time>
      </trkpt>
      <trkpt lat="50.46895" lon="3.52169">
        <ele>19.3</ele>
        <time>2021-09-05T08:45:09.000Z</time>
      </trkpt>
      <trkpt lat="50.46874" lon="3.52148">
        <ele>19.9</ele>
        <time>2021-09-05T08:45:13.000Z</time>
      </trkpt>
      <trkpt lat="50.46859" lon="3.52133">
        <ele>19.5</ele>
        <time>2021-09-05T08:45:16.000Z</time>
      </trkpt>
      <trkpt lat="50.46838" lon="3.52113">
        <ele>18.9</ele>
        <time>2021-09-05T08:45:20.000Z</time>
      </trkpt>
      <trkpt lat="50.46813" lon="3.52091">
        <ele>17.3</ele>
        <time>2021-09-05T08:45:24.000Z</time>
      </trkpt>
      <trkpt lat="50.46789" lon="3.52072">
        <ele>17</ele>
        <time>2021-09-05T08:45:28.000Z</time>
      </trkpt>
      <trkpt lat="50.46773" lon="3.52057">
        <ele>17</ele>
        <time>2021-09-05T08:45:31.000Z</time>
      </trkpt>
      <trkpt lat="50.46755" lon="3.52041">
        <ele>16.9</ele>
        <time>2021-09-05T08:45:35.000Z</time>
      </trkpt>
      <trkpt lat="50.46739" lon="3.52028">
        <ele>17</ele>
        <time>2021-09-05T08:45:39.000Z</time>
      </trkpt>
      <trkpt lat="50.46725" lon="3.52019">
        <ele>17</ele>
        <time>2021-09-05T08:45:43.000Z</time>
      </trkpt>
      <trkpt lat="50.46709" lon="3.52008">
        <ele>17</ele>
        <time>2021-09-05T08:45:46.000Z</time>
      </trkpt>
      <trkpt lat="50.46694" lon="3.51997">
        <ele>17</ele>
        <time>2021-09-05T08:45:50.000Z</time>
      </trkpt>
      <trkpt lat="50.46681" lon="3.5199">
        <ele>17</ele>
        <time>2021-09-05T08:45:53.000Z</time>
      </trkpt>
      <trkpt lat="50.46666" lon="3.51979">
        <ele>17</ele>
        <time>2021-09-05T08:45:55.943Z</time>
      </trkpt>
      <trkpt lat="50.46652" lon="3.5197">
        <ele>17</ele>
        <time>2021-09-05T08:45:59.042Z</time>
      </trkpt>
      <trkpt lat="50.46638" lon="3.51962">
        <ele>17</ele>
        <time>2021-09-05T08:46:02.463Z</time>
      </trkpt>
      <trkpt lat="50.46624" lon="3.51951">
        <ele>16.9</ele>
        <time>2021-09-05T08:46:06.000Z</time>
      </trkpt>
      <trkpt lat="50.46612" lon="3.51943">
        <ele>17</ele>
        <time>2021-09-05T08:46:09.000Z</time>
      </trkpt>
      <trkpt lat="50.46598" lon="3.51933">
        <ele>17</ele>
        <time>2021-09-05T08:46:12.272Z</time>
      </trkpt>
      <trkpt lat="50.46585" lon="3.5192">
        <ele>17</ele>
        <time>2021-09-05T08:46:16.000Z</time>
      </trkpt>
      <trkpt lat="50.46571" lon="3.51902">
        <ele>17</ele>
        <time>2021-09-05T08:46:20.000Z</time>
      </trkpt>
      <trkpt lat="50.46558" lon="3.51881">
        <ele>17</ele>
        <time>2021-09-05T08:46:24.000Z</time>
      </trkpt>
      <trkpt lat="50.46546" lon="3.51865">
        <ele>17</ele>
        <time>2021-09-05T08:46:27.366Z</time>
      </trkpt>
      <trkpt lat="50.46535" lon="3.51852">
        <ele>17</ele>
        <time>2021-09-05T08:46:31.000Z</time>
      </trkpt>
      <trkpt lat="50.46523" lon="3.51841">
        <ele>16.8</ele>
        <time>2021-09-05T08:46:34.386Z</time>
      </trkpt>
      <trkpt lat="50.46513" lon="3.51829">
        <ele>16.7</ele>
        <time>2021-09-05T08:46:37.730Z</time>
      </trkpt>
      <trkpt lat="50.46504" lon="3.51818">
        <ele>17.2</ele>
        <time>2021-09-05T08:46:41.000Z</time>
      </trkpt>
      <trkpt lat="50.46493" lon="3.51803">
        <ele>17.5</ele>
        <time>2021-09-05T08:46:45.000Z</time>
      </trkpt>
      <trkpt lat="50.46481" lon="3.51787">
        <ele>17.1</ele>
        <time>2021-09-05T08:46:48.725Z</time>
      </trkpt>
      <trkpt lat="50.46472" lon="3.51775">
        <ele>17</ele>
        <time>2021-09-05T08:46:52.000Z</time>
      </trkpt>
      <trkpt lat="50.46462" lon="3.51761">
        <ele>16.6</ele>
        <time>2021-09-05T08:46:55.671Z</time>
      </trkpt>
      <trkpt lat="50.46453" lon="3.51747">
        <ele>16.4</ele>
        <time>2021-09-05T08:46:59.000Z</time>
      </trkpt>
      <trkpt lat="50.46443" lon="3.51734">
        <ele>16.5</ele>
        <time>2021-09-05T08:47:02.288Z</time>
      </trkpt>
      <trkpt lat="50.46433" lon="3.51719">
        <ele>16.7</ele>
        <time>2021-09-05T08:47:06.000Z</time>
      </trkpt>
      <trkpt lat="50.46423" lon="3.51707">
        <ele>17.1</ele>
        <time>2021-09-05T08:47:09.310Z</time>
      </trkpt>
      <trkpt lat="50.46414" lon="3.51696">
        <ele>17.8</ele>
        <time>2021-09-05T08:47:12.409Z</time>
      </trkpt>
      <trkpt lat="50.46404" lon="3.51685">
        <ele>17.5</ele>
        <time>2021-09-05T08:47:15.590Z</time>
      </trkpt>
      <trkpt lat="50.46394" lon="3.51674">
        <ele>17.6</ele>
        <time>2021-09-05T08:47:19.000Z</time>
      </trkpt>
      <trkpt lat="50.46381" lon="3.51661">
        <ele>18</ele>
        <time>2021-09-05T08:47:23.000Z</time>
      </trkpt>
      <trkpt lat="50.46371" lon="3.5165">
        <ele>18</ele>
        <time>2021-09-05T08:47:26.447Z</time>
      </trkpt>
      <trkpt lat="50.4636" lon="3.5164">
        <ele>18</ele>
        <time>2021-09-05T08:47:30.106Z</time>
      </trkpt>
      <trkpt lat="50.46353" lon="3.51637">
        <ele>18.4</ele>
        <time>2021-09-05T08:47:34.000Z</time>
      </trkpt>
      <trkpt lat="50.46349" lon="3.51642">
        <ele>18.4</ele>
        <time>2021-09-05T08:47:37.000Z</time>
      </trkpt>
      <trkpt lat="50.46345" lon="3.51656">
        <ele>18.2</ele>
        <time>2021-09-05T08:47:40.000Z</time>
      </trkpt>
      <trkpt lat="50.46339" lon="3.51677">
        <ele>17.9</ele>
        <time>2021-09-05T08:47:44.000Z</time>
      </trkpt>
      <trkpt lat="50.46331" lon="3.51695">
        <ele>18.1</ele>
        <time>2021-09-05T08:47:47.000Z</time>
      </trkpt>
      <trkpt lat="50.46325" lon="3.51709">
        <ele>18.3</ele>
        <time>2021-09-05T08:47:50.000Z</time>
      </trkpt>
      <trkpt lat="50.46318" lon="3.51724">
        <ele>18.5</ele>
        <time>2021-09-05T08:47:53.000Z</time>
      </trkpt>
      <trkpt lat="50.46308" lon="3.51744">
        <ele>18.1</ele>
        <time>2021-09-05T08:47:57.000Z</time>
      </trkpt>
      <trkpt lat="50.46298" lon="3.51765">
        <ele>18.3</ele>
        <time>2021-09-05T08:48:00.827Z</time>
      </trkpt>
      <trkpt lat="50.46291" lon="3.51784">
        <ele>18.3</ele>
        <time>2021-09-05T08:48:04.447Z</time>
      </trkpt>
      <trkpt lat="50.46285" lon="3.518">
        <ele>17.9</ele>
        <time>2021-09-05T08:48:07.453Z</time>
      </trkpt>
      <trkpt lat="50.46279" lon="3.51817">
        <ele>18</ele>
        <time>2021-09-05T08:48:10.569Z</time>
      </trkpt>
      <trkpt lat="50.46272" lon="3.51834">
        <ele>18</ele>
        <time>2021-09-05T08:48:13.574Z</time>
      </trkpt>
      <trkpt lat="50.46266" lon="3.51851">
        <ele>18</ele>
        <time>2021-09-05T08:48:16.746Z</time>
      </trkpt>
      <trkpt lat="50.46261" lon="3.5187">
        <ele>18</ele>
        <time>2021-09-05T08:48:20.000Z</time>
      </trkpt>
      <trkpt lat="50.46255" lon="3.51891">
        <ele>18</ele>
        <time>2021-09-05T08:48:23.449Z</time>
      </trkpt>
      <trkpt lat="50.4625" lon="3.5191">
        <ele>18</ele>
        <time>2021-09-05T08:48:26.706Z</time>
      </trkpt>
      <trkpt lat="50.46245" lon="3.5193">
        <ele>18.1</ele>
        <time>2021-09-05T08:48:30.000Z</time>
      </trkpt>
      <trkpt lat="50.46241" lon="3.51943">
        <ele>18</ele>
        <time>2021-09-05T08:48:32.836Z</time>
      </trkpt>
      <trkpt lat="50.46236" lon="3.51968">
        <ele>17.6</ele>
        <time>2021-09-05T08:48:37.000Z</time>
      </trkpt>
      <trkpt lat="50.46226" lon="3.51997">
        <ele>17.9</ele>
        <time>2021-09-05T08:48:41.000Z</time>
      </trkpt>
      <trkpt lat="50.46218" lon="3.52021">
        <ele>18</ele>
        <time>2021-09-05T08:48:45.000Z</time>
      </trkpt>
      <trkpt lat="50.46208" lon="3.52048">
        <ele>17.6</ele>
        <time>2021-09-05T08:48:49.000Z</time>
      </trkpt>
      <trkpt lat="50.462" lon="3.52061">
        <ele>17.8</ele>
        <time>2021-09-05T08:48:52.356Z</time>
      </trkpt>
      <trkpt lat="50.46191" lon="3.52079">
        <ele>18.1</ele>
        <time>2021-09-05T08:48:56.000Z</time>
      </trkpt>
      <trkpt lat="50.46183" lon="3.52096">
        <ele>18.4</ele>
        <time>2021-09-05T08:48:59.000Z</time>
      </trkpt>
      <trkpt lat="50.46173" lon="3.52115">
        <ele>18.7</ele>
        <time>2021-09-05T08:49:02.000Z</time>
      </trkpt>
      <trkpt lat="50.46163" lon="3.52133">
        <ele>18.3</ele>
        <time>2021-09-05T08:49:05.000Z</time>
      </trkpt>
      <trkpt lat="50.46157" lon="3.52143">
        <ele>18.3</ele>
        <time>2021-09-05T08:49:08.000Z</time>
      </trkpt>
      <trkpt lat="50.46144" lon="3.52172">
        <ele>18.7</ele>
        <time>2021-09-05T08:49:12.000Z</time>
      </trkpt>
      <trkpt lat="50.46132" lon="3.52197">
        <ele>18.2</ele>
        <time>2021-09-05T08:49:16.000Z</time>
      </trkpt>
      <trkpt lat="50.46123" lon="3.52215">
        <ele>18.1</ele>
        <time>2021-09-05T08:49:19.000Z</time>
      </trkpt>
      <trkpt lat="50.46115" lon="3.52233">
        <ele>18</ele>
        <time>2021-09-05T08:49:22.000Z</time>
      </trkpt>
      <trkpt lat="50.46104" lon="3.52258">
        <ele>18.2</ele>
        <time>2021-09-05T08:49:26.000Z</time>
      </trkpt>
      <trkpt lat="50.46096" lon="3.52279">
        <ele>18</ele>
        <time>2021-09-05T08:49:29.000Z</time>
      </trkpt>
      <trkpt lat="50.46088" lon="3.52308">
        <ele>17.8</ele>
        <time>2021-09-05T08:49:33.000Z</time>
      </trkpt>
      <trkpt lat="50.46084" lon="3.52331">
        <ele>18</ele>
        <time>2021-09-05T08:49:36.000Z</time>
      </trkpt>
      <trkpt lat="50.46081" lon="3.52354">
        <ele>18</ele>
        <time>2021-09-05T08:49:39.000Z</time>
      </trkpt>
      <trkpt lat="50.46077" lon="3.52375">
        <ele>17.6</ele>
        <time>2021-09-05T08:49:42.000Z</time>
      </trkpt>
      <trkpt lat="50.46072" lon="3.52403">
        <ele>17.4</ele>
        <time>2021-09-05T08:49:46.000Z</time>
      </trkpt>
      <trkpt lat="50.46069" lon="3.52421">
        <ele>17.5</ele>
        <time>2021-09-05T08:49:49.000Z</time>
      </trkpt>
      <trkpt lat="50.46066" lon="3.52446">
        <ele>17.6</ele>
        <time>2021-09-05T08:49:53.000Z</time>
      </trkpt>
      <trkpt lat="50.46062" lon="3.52465">
        <ele>17.8</ele>
        <time>2021-09-05T08:49:55.998Z</time>
      </trkpt>
      <trkpt lat="50.46059" lon="3.5249">
        <ele>17.9</ele>
        <time>2021-09-05T08:49:59.555Z</time>
      </trkpt>
      <trkpt lat="50.46057" lon="3.52514">
        <ele>17.9</ele>
        <time>2021-09-05T08:50:03.000Z</time>
      </trkpt>
      <trkpt lat="50.46054" lon="3.52534">
        <ele>17.8</ele>
        <time>2021-09-05T08:50:06.182Z</time>
      </trkpt>
      <trkpt lat="50.4605" lon="3.52556">
        <ele>17.4</ele>
        <time>2021-09-05T08:50:10.000Z</time>
      </trkpt>
      <trkpt lat="50.46048" lon="3.52574">
        <ele>17.4</ele>
        <time>2021-09-05T08:50:13.000Z</time>
      </trkpt>
      <trkpt lat="50.46044" lon="3.52595">
        <ele>17.4</ele>
        <time>2021-09-05T08:50:16.000Z</time>
      </trkpt>
      <trkpt lat="50.46041" lon="3.52617">
        <ele>17.5</ele>
        <time>2021-09-05T08:50:19.260Z</time>
      </trkpt>
      <trkpt lat="50.46036" lon="3.52639">
        <ele>17.7</ele>
        <time>2021-09-05T08:50:23.000Z</time>
      </trkpt>
      <trkpt lat="50.46032" lon="3.52663">
        <ele>17.8</ele>
        <time>2021-09-05T08:50:26.558Z</time>
      </trkpt>
      <trkpt lat="50.46027" lon="3.5268">
        <ele>18</ele>
        <time>2021-09-05T08:50:29.562Z</time>
      </trkpt>
      <trkpt lat="50.46022" lon="3.52699">
        <ele>17.9</ele>
        <time>2021-09-05T08:50:33.000Z</time>
      </trkpt>
      <trkpt lat="50.46016" lon="3.52716">
        <ele>17.6</ele>
        <time>2021-09-05T08:50:36.000Z</time>
      </trkpt>
      <trkpt lat="50.4601" lon="3.52728">
        <ele>17.6</ele>
        <time>2021-09-05T08:50:39.000Z</time>
      </trkpt>
      <trkpt lat="50.46003" lon="3.52748">
        <ele>17.9</ele>
        <time>2021-09-05T08:50:42.038Z</time>
      </trkpt>
      <trkpt lat="50.45994" lon="3.52764">
        <ele>17.6</ele>
        <time>2021-09-05T08:50:45.259Z</time>
      </trkpt>
      <trkpt lat="50.45982" lon="3.52769">
        <ele>17.8</ele>
        <time>2021-09-05T08:50:48.279Z</time>
      </trkpt>
      <trkpt lat="50.4597" lon="3.52758">
        <ele>18</ele>
        <time>2021-09-05T08:50:51.324Z</time>
      </trkpt>
      <trkpt lat="50.45959" lon="3.52745">
        <ele>18.1</ele>
        <time>2021-09-05T08:50:54.785Z</time>
      </trkpt>
      <trkpt lat="50.45948" lon="3.52734">
        <ele>18.5</ele>
        <time>2021-09-05T08:50:58.520Z</time>
      </trkpt>
      <trkpt lat="50.45938" lon="3.52724">
        <ele>19</ele>
        <time>2021-09-05T08:51:01.666Z</time>
      </trkpt>
      <trkpt lat="50.45928" lon="3.52714">
        <ele>19</ele>
        <time>2021-09-05T08:51:05.304Z</time>
      </trkpt>
      <trkpt lat="50.45918" lon="3.52705">
        <ele>19</ele>
        <time>2021-09-05T08:51:09.000Z</time>
      </trkpt>
      <trkpt lat="50.45908" lon="3.52695">
        <ele>19.3</ele>
        <time>2021-09-05T08:51:12.540Z</time>
      </trkpt>
      <trkpt lat="50.459" lon="3.52688">
        <ele>19.7</ele>
        <time>2021-09-05T08:51:16.000Z</time>
      </trkpt>
      <trkpt lat="50.45893" lon="3.52682">
        <ele>19.9</ele>
        <time>2021-09-05T08:51:19.000Z</time>
      </trkpt>
      <trkpt lat="50.45886" lon="3.52676">
        <ele>20.1</ele>
        <time>2021-09-05T08:51:22.000Z</time>
      </trkpt>
      <trkpt lat="50.45878" lon="3.52666">
        <ele>20.4</ele>
        <time>2021-09-05T08:51:24.924Z</time>
      </trkpt>
      <trkpt lat="50.45868" lon="3.52659">
        <ele>20.8</ele>
        <time>2021-09-05T08:51:28.623Z</time>
      </trkpt>
      <trkpt lat="50.45857" lon="3.52652">
        <ele>21</ele>
        <time>2021-09-05T08:51:31.700Z</time>
      </trkpt>
      <trkpt lat="50.45851" lon="3.52647">
        <ele>21</ele>
        <time>2021-09-05T08:51:35.000Z</time>
      </trkpt>
      <trkpt lat="50.45843" lon="3.52641">
        <ele>21</ele>
        <time>2021-09-05T08:51:38.000Z</time>
      </trkpt>
      <trkpt lat="50.45833" lon="3.52632">
        <ele>21.3</ele>
        <time>2021-09-05T08:51:41.678Z</time>
      </trkpt>
      <trkpt lat="50.45825" lon="3.52626">
        <ele>21.6</ele>
        <time>2021-09-05T08:51:45.000Z</time>
      </trkpt>
      <trkpt lat="50.45818" lon="3.52621">
        <ele>21.8</ele>
        <time>2021-09-05T08:51:48.000Z</time>
      </trkpt>
      <trkpt lat="50.45808" lon="3.52613">
        <ele>22</ele>
        <time>2021-09-05T08:51:52.000Z</time>
      </trkpt>
      <trkpt lat="50.458" lon="3.52606">
        <ele>22.3</ele>
        <time>2021-09-05T08:51:55.004Z</time>
      </trkpt>
      <trkpt lat="50.4579" lon="3.52597">
        <ele>22.8</ele>
        <time>2021-09-05T08:51:59.000Z</time>
      </trkpt>
      <trkpt lat="50.45781" lon="3.52589">
        <ele>23</ele>
        <time>2021-09-05T08:52:02.413Z</time>
      </trkpt>
      <trkpt lat="50.45774" lon="3.5258">
        <ele>23</ele>
        <time>2021-09-05T08:52:06.000Z</time>
      </trkpt>
      <trkpt lat="50.45766" lon="3.52572">
        <ele>23</ele>
        <time>2021-09-05T08:52:09.000Z</time>
      </trkpt>
      <trkpt lat="50.45759" lon="3.52563">
        <ele>23</ele>
        <time>2021-09-05T08:52:11.808Z</time>
      </trkpt>
      <trkpt lat="50.45749" lon="3.52554">
        <ele>23.1</ele>
        <time>2021-09-05T08:52:15.067Z</time>
      </trkpt>
      <trkpt lat="50.45736" lon="3.52541">
        <ele>23.3</ele>
        <time>2021-09-05T08:52:18.759Z</time>
      </trkpt>
      <trkpt lat="50.45728" lon="3.52531">
        <ele>23.2</ele>
        <time>2021-09-05T08:52:22.000Z</time>
      </trkpt>
      <trkpt lat="50.45721" lon="3.52521">
        <ele>23.2</ele>
        <time>2021-09-05T08:52:25.000Z</time>
      </trkpt>
      <trkpt lat="50.45711" lon="3.52509">
        <ele>23.7</ele>
        <time>2021-09-05T08:52:28.506Z</time>
      </trkpt>
      <trkpt lat="50.45703" lon="3.52498">
        <ele>24</ele>
        <time>2021-09-05T08:52:31.729Z</time>
      </trkpt>
      <trkpt lat="50.45698" lon="3.52489">
        <ele>24.1</ele>
        <time>2021-09-05T08:52:35.000Z</time>
      </trkpt>
      <trkpt lat="50.45689" lon="3.52473">
        <ele>24</ele>
        <time>2021-09-05T08:52:39.000Z</time>
      </trkpt>
      <trkpt lat="50.45683" lon="3.52462">
        <ele>24.2</ele>
        <time>2021-09-05T08:52:42.000Z</time>
      </trkpt>
      <trkpt lat="50.45676" lon="3.52449">
        <ele>24.3</ele>
        <time>2021-09-05T08:52:45.000Z</time>
      </trkpt>
      <trkpt lat="50.45666" lon="3.52437">
        <ele>24.3</ele>
        <time>2021-09-05T08:52:49.000Z</time>
      </trkpt>
      <trkpt lat="50.45657" lon="3.52434">
        <ele>24.2</ele>
        <time>2021-09-05T08:52:52.000Z</time>
      </trkpt>
      <trkpt lat="50.45649" lon="3.5245">
        <ele>23.9</ele>
        <time>2021-09-05T08:52:55.412Z</time>
      </trkpt>
      <trkpt lat="50.45651" lon="3.52483">
        <ele>23.3</ele>
        <time>2021-09-05T08:52:59.000Z</time>
      </trkpt>
      <trkpt lat="50.45651" lon="3.52509">
        <ele>23</ele>
        <time>2021-09-05T08:53:02.000Z</time>
      </trkpt>
      <trkpt lat="50.45647" lon="3.5253">
        <ele>22.9</ele>
        <time>2021-09-05T08:53:05.000Z</time>
      </trkpt>
      <trkpt lat="50.45637" lon="3.52527">
        <ele>22.9</ele>
        <time>2021-09-05T08:53:08.431Z</time>
      </trkpt>
      <trkpt lat="50.45623" lon="3.52512">
        <ele>22.4</ele>
        <time>2021-09-05T08:53:11.716Z</time>
      </trkpt>
      <trkpt lat="50.4561" lon="3.52497">
        <ele>22.1</ele>
        <time>2021-09-05T08:53:15.000Z</time>
      </trkpt>
      <trkpt lat="50.45594" lon="3.52482">
        <ele>22.2</ele>
        <time>2021-09-05T08:53:19.000Z</time>
      </trkpt>
      <trkpt lat="50.45581" lon="3.52474">
        <ele>21.9</ele>
        <time>2021-09-05T08:53:22.000Z</time>
      </trkpt>
      <trkpt lat="50.45568" lon="3.52462">
        <ele>21.4</ele>
        <time>2021-09-05T08:53:25.357Z</time>
      </trkpt>
      <trkpt lat="50.45557" lon="3.52452">
        <ele>21.1</ele>
        <time>2021-09-05T08:53:28.801Z</time>
      </trkpt>
      <trkpt lat="50.45546" lon="3.52442">
        <ele>21.1</ele>
        <time>2021-09-05T08:53:32.116Z</time>
      </trkpt>
      <trkpt lat="50.45529" lon="3.52426">
        <ele>21</ele>
        <time>2021-09-05T08:53:36.000Z</time>
      </trkpt>
      <trkpt lat="50.45514" lon="3.52411">
        <ele>21.1</ele>
        <time>2021-09-05T08:53:39.000Z</time>
      </trkpt>
      <trkpt lat="50.45498" lon="3.52396">
        <ele>21</ele>
        <time>2021-09-05T08:53:42.000Z</time>
      </trkpt>
      <trkpt lat="50.45484" lon="3.52384">
        <ele>21.1</ele>
        <time>2021-09-05T08:53:45.000Z</time>
      </trkpt>
      <trkpt lat="50.45467" lon="3.52368">
        <ele>20.8</ele>
        <time>2021-09-05T08:53:49.000Z</time>
      </trkpt>
      <trkpt lat="50.45454" lon="3.52357">
        <ele>20.4</ele>
        <time>2021-09-05T08:53:52.000Z</time>
      </trkpt>
      <trkpt lat="50.4544" lon="3.52343">
        <ele>20.5</ele>
        <time>2021-09-05T08:53:55.000Z</time>
      </trkpt>
      <trkpt lat="50.45423" lon="3.52326">
        <ele>20.2</ele>
        <time>2021-09-05T08:53:59.000Z</time>
      </trkpt>
      <trkpt lat="50.45405" lon="3.52307">
        <ele>20</ele>
        <time>2021-09-05T08:54:03.000Z</time>
      </trkpt>
      <trkpt lat="50.45388" lon="3.52293">
        <ele>20</ele>
        <time>2021-09-05T08:54:06.000Z</time>
      </trkpt>
      <trkpt lat="50.45368" lon="3.52274">
        <ele>20</ele>
        <time>2021-09-05T08:54:10.000Z</time>
      </trkpt>
      <trkpt lat="50.45349" lon="3.52255">
        <ele>19.9</ele>
        <time>2021-09-05T08:54:14.000Z</time>
      </trkpt>
      <trkpt lat="50.45333" lon="3.5224">
        <ele>20</ele>
        <time>2021-09-05T08:54:17.000Z</time>
      </trkpt>
      <trkpt lat="50.45316" lon="3.52226">
        <ele>20</ele>
        <time>2021-09-05T08:54:21.000Z</time>
      </trkpt>
      <trkpt lat="50.45307" lon="3.52216">
        <ele>20</ele>
        <time>2021-09-05T08:54:24.000Z</time>
      </trkpt>
      <trkpt lat="50.45296" lon="3.5221">
        <ele>20</ele>
        <time>2021-09-05T08:54:27.000Z</time>
      </trkpt>
      <trkpt lat="50.45285" lon="3.52225">
        <ele>20</ele>
        <time>2021-09-05T08:54:30.000Z</time>
      </trkpt>
      <trkpt lat="50.45268" lon="3.52251">
        <ele>19.6</ele>
        <time>2021-09-05T08:54:34.000Z</time>
      </trkpt>
      <trkpt lat="50.45255" lon="3.52271">
        <ele>19</ele>
        <time>2021-09-05T08:54:37.000Z</time>
      </trkpt>
      <trkpt lat="50.45245" lon="3.52287">
        <ele>19</ele>
        <time>2021-09-05T08:54:40.000Z</time>
      </trkpt>
      <trkpt lat="50.45226" lon="3.52312">
        <ele>19</ele>
        <time>2021-09-05T08:54:44.000Z</time>
      </trkpt>
      <trkpt lat="50.45209" lon="3.52337">
        <ele>19</ele>
        <time>2021-09-05T08:54:48.000Z</time>
      </trkpt>
      <trkpt lat="50.45197" lon="3.52353">
        <ele>19</ele>
        <time>2021-09-05T08:54:51.000Z</time>
      </trkpt>
      <trkpt lat="50.45182" lon="3.52372">
        <ele>19.2</ele>
        <time>2021-09-05T08:54:55.000Z</time>
      </trkpt>
      <trkpt lat="50.4517" lon="3.52384">
        <ele>19.7</ele>
        <time>2021-09-05T08:54:58.000Z</time>
      </trkpt>
      <trkpt lat="50.45155" lon="3.52403">
        <ele>20.2</ele>
        <time>2021-09-05T08:55:02.000Z</time>
      </trkpt>
      <trkpt lat="50.45145" lon="3.52418">
        <ele>20.8</ele>
        <time>2021-09-05T08:55:05.000Z</time>
      </trkpt>
      <trkpt lat="50.45135" lon="3.52434">
        <ele>21.1</ele>
        <time>2021-09-05T08:55:08.735Z</time>
      </trkpt>
      <trkpt lat="50.45126" lon="3.52447">
        <ele>21.6</ele>
        <time>2021-09-05T08:55:12.000Z</time>
      </trkpt>
      <trkpt lat="50.45118" lon="3.5246">
        <ele>22.3</ele>
        <time>2021-09-05T08:55:15.811Z</time>
      </trkpt>
      <trkpt lat="50.45113" lon="3.52473">
        <ele>23</ele>
        <time>2021-09-05T08:55:20.000Z</time>
      </trkpt>
      <trkpt lat="50.45108" lon="3.52481">
        <ele>23.4</ele>
        <time>2021-09-05T08:55:23.000Z</time>
      </trkpt>
      <trkpt lat="50.45101" lon="3.52496">
        <ele>23.9</ele>
        <time>2021-09-05T08:55:30.000Z</time>
      </trkpt>
      <trkpt lat="50.45096" lon="3.52506">
        <ele>24.2</ele>
        <time>2021-09-05T08:55:33.000Z</time>
      </trkpt>
      <trkpt lat="50.45092" lon="3.52515">
        <ele>24.5</ele>
        <time>2021-09-05T08:55:36.000Z</time>
      </trkpt>
      <trkpt lat="50.45087" lon="3.52524">
        <ele>24.9</ele>
        <time>2021-09-05T08:55:39.000Z</time>
      </trkpt>
      <trkpt lat="50.4508" lon="3.52535">
        <ele>25.4</ele>
        <time>2021-09-05T08:55:42.722Z</time>
      </trkpt>
      <trkpt lat="50.45076" lon="3.52543">
        <ele>25.8</ele>
        <time>2021-09-05T08:55:46.000Z</time>
      </trkpt>
      <trkpt lat="50.45072" lon="3.5255">
        <ele>26.2</ele>
        <time>2021-09-05T08:55:49.000Z</time>
      </trkpt>
      <trkpt lat="50.45066" lon="3.5256">
        <ele>26.7</ele>
        <time>2021-09-05T08:55:52.000Z</time>
      </trkpt>
      <trkpt lat="50.45059" lon="3.52567">
        <ele>26.9</ele>
        <time>2021-09-05T08:55:56.000Z</time>
      </trkpt>
      <trkpt lat="50.45051" lon="3.52578">
        <ele>27.1</ele>
        <time>2021-09-05T08:55:59.220Z</time>
      </trkpt>
      <trkpt lat="50.45043" lon="3.52587">
        <ele>27.5</ele>
        <time>2021-09-05T08:56:03.000Z</time>
      </trkpt>
      <trkpt lat="50.45035" lon="3.52592">
        <ele>27.8</ele>
        <time>2021-09-05T08:56:06.000Z</time>
      </trkpt>
      <trkpt lat="50.45024" lon="3.52599">
        <ele>28.1</ele>
        <time>2021-09-05T08:56:10.000Z</time>
      </trkpt>
      <trkpt lat="50.45012" lon="3.52609">
        <ele>28.5</ele>
        <time>2021-09-05T08:56:13.342Z</time>
      </trkpt>
      <trkpt lat="50.45004" lon="3.52614">
        <ele>28.9</ele>
        <time>2021-09-05T08:56:17.000Z</time>
      </trkpt>
    </trkseg>
  </trk>
</gpx>